[[{"header":{"parameterUnit":"m.s-1","parameterCategory":1,"la1":31.0,"la2":29.5877,"lo1":-88.7671,"lo2":-86.6584,"dy":0.0162,"dx":0.0185,"nx":115,"ny":88,"refTime":"2023-09-19T06:00:00:Z","depth":0,"parameterNumber":2,"parameterNumberName":"U-component_of_WINDS"},"data":[0.0,0.0,0.0,0.0,0.0,0.0,0.0,0.0,0.0,0.0,0.0,0.0,0.0,0.0,0.0,0.0,0.0,0.0,0.0,0.0,0.0,0.0,0.0,0.0,0.0,0.0,0.0,0.0,0.0,0.0,0.0,0.0,0.0,0.0,0.0,0.0,0.0,0.0,0.0,0.0,0.0,0.0,0.0,0.0,0.0,0.0,0.0,0.0,0.0,0.0,0.0,0.0,0.0,0.0,0.0,0.0,0.0,0.0,0.0,0.0,0.0,0.0,0.0,0.0,0.0,0.0,0.0,0.0,0.0,0.0,0.0,0.0,0.0,0.0,0.0,0.0,0.0,0.0,0.0,0.0,0.0,0.0,0.0,0.0,0.0,0.0,0.0,0.0,0.0,0.0,0.0,0.0,0.0,0.0,0.0,0.0,0.0,0.0,0.0,0.0,0.0,0.0,0.0,0.0,0.0,0.0,0.0,0.0,0.0,0.0,0.0,0.0,0.0,0.0,0.0,0.0,0.0,0.0,0.0,0.0,0.0,0.0,0.0,0.0,0.0,0.0,0.0,0.0,0.0,0.0,0.0,0.0,0.0,0.0,0.0,0.0,0.0,0.0,0.0,0.0,0.0,0.0,0.0,0.0,0.0,0.0,0.0,0.0,0.0,0.0,0.0,0.0,0.0,0.0,0.0,0.0,0.0,0.0,0.0,0.0,0.0,0.0,0.0,0.0,0.0,0.0,0.0,0.0,0.0,0.0,0.0,0.0,0.0,0.0,0.0,0.0,0.0,0.0,0.0,0.0,0.0,0.0,0.0,0.0,0.0,0.0,0.0,0.0,0.0,0.0,0.0,0.0,0.0,0.0,0.0,0.0,0.0,0.0,0.0,0.0,0.0,0.0,0.0,0.0,0.0,0.0,0.0,0.0,0.0,0.0,0.0,0.0,0.0,0.0,0.0,0.0,0.0,0.0,0.0,0.0,0.0,0.0,0.0,0.0,0.0,0.0,0.0,0.0,0.0,0.0,0.0,0.0,0.0,0.0,0.0,0.0,0.0,0.0,0.0,0.0,0.0,0.0,0.0,0.0,0.0,0.0,0.0,0.0,0.0,0.0,0.0,0.0,0.0,0.0,0.0,0.0,0.0,0.0,0.0,0.0,0.0,0.0,0.0,0.0,0.0,0.0,0.0,0.0,0.0,0.0,0.0,0.0,0.0,0.0,0.0,0.0,0.0,0.0,0.0,0.0,0.0,0.0,0.0,0.0,0.0,0.0,0.0,0.0,0.0,0.0,0.0,0.0,0.0,0.0,0.0,0.0,0.0,0.0,0.0,0.0,0.0,0.0,0.0,0.0,0.0,0.0,0.0,0.0,0.0,0.0,0.0,0.0,0.0,0.0,0.0,0.0,0.0,0.0,0.0,0.0,0.0,0.0,0.0,0.0,0.0,0.0,0.0,0.0,0.0,0.0,0.0,0.0,0.0,0.0,0.0,0.0,0.0,0.0,0.0,0.0,0.0,0.0,0.0,0.0,0.0,0.0,0.0,0.0,0.0,0.0,0.0,0.0,0.0,0.0,0.0,0.0,0.0,0.0,0.0,0.0,0.0,0.0,0.0,0.0,0.0,0.0,0.0,0.0,0.0,0.0,0.0,0.0,0.0,0.0,0.0,0.0,0.0,0.0,0.0,0.0,0.0,0.0,0.0,0.0,0.0,0.0,0.0,0.0,0.0,0.0,0.0,0.0,0.0,0.0,0.0,0.0,0.0,0.0,0.0,0.0,0.0,0.0,0.0,0.0,0.0,0.0,0.0,0.0,0.0,0.0,0.0,0.0,0.0,0.0,0.0,0.0,0.0,0.0,0.0,0.0,0.0,0.0,0.0,0.0,0.0,0.0,0.0,0.0,0.0,0.0,0.0,0.0,0.0,0.0,0.0,0.0,0.0,0.0,0.0,0.0,0.0,0.0,0.0,0.0,0.0,0.0,0.0,0.0,0.0,0.0,0.0,0.0,0.0,0.0,0.0,0.0,0.0,0.0,0.0,0.0,0.0,0.0,0.0,0.0,0.0,0.0,0.0,0.0,0.0,0.0,0.0,0.0,0.0,0.0,0.0,0.0,0.0,0.0,0.0,0.0,0.0,0.0,0.0,0.0,0.0,0.0,0.0,0.0,0.0,0.0,0.0,0.0,0.0,0.0,0.0,0.0,0.0,0.0,0.0,0.0,0.0,0.0,0.0,0.0,0.0,0.0,0.0,0.0,0.0,0.0,0.0,0.0,0.0,0.0,0.0,0.0,0.0,0.0,0.0,0.0,0.0,0.0,0.0,0.0,0.0,0.0,0.0,0.0,0.0,0.0,0.0,0.0,0.0,0.0,0.0,0.0,0.0,0.0,0.0,0.0,0.0,0.0,0.0,0.0,0.0,0.0,0.0,0.0,0.0,0.0,0.0,0.0,0.0,0.0,0.0,0.0,0.0,0.0,0.0,0.0,0.0,0.0,0.0,0.0,0.0,0.0,0.0,0.0,0.0,0.0,0.0,0.0,0.0,0.0,0.0,0.0,0.0,0.0,0.0,0.0,0.0,0.0,0.0,0.0,0.0,0.0,0.0,0.0,0.0,0.0,0.0,0.0,0.0,0.0,0.0,0.0,0.0,0.0,0.0,0.0,0.0,0.0,0.0,0.0,0.0,0.0,0.0,0.0,0.0,0.0,0.0,0.0,0.0,0.0,0.0,0.0,0.0,0.0,0.0,0.0,0.0,0.0,0.0,0.0,0.0,0.0,0.0,0.0,0.0,0.0,0.0,0.0,0.0,0.0,0.0,0.0,0.0,0.0,0.0,0.0,0.0,0.0,0.0,0.0,0.0,0.0,0.0,0.0,0.0,0.0,0.0,0.0,0.0,0.0,0.0,0.0,0.0,0.0,0.0,0.0,0.0,0.0,0.0,0.0,0.0,0.0,0.0,0.0,0.0,0.0,0.0,0.0,0.0,0.0,0.0,0.0,0.0,0.0,0.0,0.0,0.0,0.0,0.0,0.0,0.0,0.0,0.0,0.0,0.0,0.0,0.0,0.0,0.0,0.0,0.0,0.0,0.0,0.0,0.0,0.0,0.0,0.0,0.0,0.0,0.0,0.0,0.0,0.0,0.0,0.0,0.0,0.0,0.0,0.0,0.0,0.0,0.0,0.0,0.0,0.0,0.0,0.0,0.0,0.0,0.0,0.0,0.0,0.0,0.0,0.0,0.0,0.0,0.0,0.0,0.0,0.0,0.0,0.0,0.0,0.0,0.0,0.0,0.0,0.0,0.0,0.0,0.0,0.0,0.0,0.0,0.0,0.0,0.0,0.0,0.0,0.0,0.0,0.0,0.0,0.0,0.0,0.0,0.0,0.0,0.0,0.0,0.0,0.0,0.0,0.0,0.0,0.0,0.0,0.0,0.0,0.0,0.0,0.0,0.0,0.0,0.0,0.0,0.0,0.0,0.0,0.0,0.0,0.0,0.0,0.0,0.0,0.0,0.0,0.0,0.0,0.0,0.0,0.0,0.0,0.0,0.0,0.0,0.0,0.0,0.0,0.0,0.0,0.0,0.0,0.0,0.0,0.0,0.0,0.0,0.0,0.0,0.0,0.0,0.0,0.0,0.0,0.0,0.0,0.0,0.0,0.0,0.0,0.0,0.0,0.0,0.0,0.0,0.0,0.0,0.0,0.0,0.0,0.0,0.0,0.0,0.0,0.0,0.0,0.0,0.0,0.0,0.0,0.0,0.0,0.0,0.0,0.0,0.0,0.0,0.0,0.0,0.0,0.0,0.0,0.0,0.0,0.0,0.0,0.0,0.0,0.0,0.0,0.0,0.0,0.0,0.0,0.0,0.0,0.0,0.0,0.0,0.0,0.0,0.0,0.0,0.0,0.0,0.0,0.0,0.0,0.0,0.0,0.0,0.0,0.0,0.0,0.0,0.0,0.0,0.0,0.0,0.0,0.0,0.0,0.0,0.0,0.0,0.0,0.0,0.0,0.0,0.0,0.0,0.0,0.0,0.0,0.0,0.0,0.0,0.0,0.0,0.0,0.0,0.0,0.0,0.0,0.0,0.0,0.0,0.0,0.0,0.0,0.0,0.0,0.0,0.0,0.0,0.0,0.0,0.0,0.0,0.0,0.0,0.0,0.0,0.0,0.0,0.0,0.0,0.0,0.0,0.0,0.0,0.0,0.0,0.0,0.0,0.0,0.0,0.0,0.0,0.0,0.0,0.0,0.0,0.0,0.0,0.0,0.0,0.0,0.0,0.8223,0.0,0.0,0.0,0.0,0.0,0.0,0.0,0.0,0.0,0.0,0.0,0.0,0.0,0.0,0.0,0.0,0.0,0.0,0.0,0.0,0.0,0.0,0.0,0.0,0.0,0.0,0.0,0.0,0.0,0.0,0.0,0.0,0.0,0.0,0.0,0.0,0.0,0.0,0.0,0.0,0.0,0.0,0.0,0.0,0.0,0.0,0.0,0.0,0.0,0.0,0.0,0.0,0.0,0.0,0.0,0.0,0.0,0.0,0.0,0.0,0.0,0.0,0.0,0.0,0.0,0.0,0.0,0.0,0.0,0.0,0.0,0.0,0.0,0.0,0.0,0.0,0.0,0.0,0.0,0.0,0.0,0.0,0.0,0.0,0.0,0.0,0.0,0.0,0.0,0.0,0.0,0.0,0.0,0.0,0.0,0.0,0.0,0.0,0.0,0.0,0.0,0.0,0.0,0.0,0.0,0.0,0.0,0.0,0.0,0.0,0.9085,0.8996,0.8872,0.8529,0.7926,0.0,0.0,0.0,0.0,0.0,0.0,0.0,0.0,0.0,0.0,0.0,0.0,0.0,0.0,0.0,0.0,0.0,0.0,0.0,0.0,0.0,0.0,0.0,0.0,0.0,0.0,0.0,0.0,0.0,0.0,0.0,0.0,0.0,0.0,0.0,0.0,0.0,0.0,0.0,0.0,0.0,0.0,0.0,0.0,0.0,0.0,0.0,0.0,0.0,0.0,0.0,0.0,0.0,0.0,0.0,0.0,0.0,0.0,0.0,0.0,0.0,0.0,0.0,0.0,0.0,0.0,0.0,0.0,0.0,0.0,0.0,0.0,0.0,0.0,0.0,0.0,0.0,0.0,0.0,0.0,0.0,0.0,0.0,0.0,0.0,0.0,0.0,0.0,0.0,0.0,0.0,0.0,0.0,0.0,0.0,0.0,0.0,0.0,0.0,0.0,0.0,0.0,0.0,0.0,0.0,0.0,0.0,0.0,0.0,0.0,0.0,0.0,0.9195,0.8658,0.78,0.0,0.0,0.0,0.0,0.0,0.0,0.0,0.0,0.0,0.0,0.0,0.0,0.0,0.0,0.0,0.0,0.0,0.0,0.0,0.0,0.0,0.0,0.0,0.0,0.0,0.0,0.0,0.0,0.0,0.0,0.0,0.0,0.0,0.0,0.0,0.0,0.0,0.0,0.0,0.0,0.0,0.0,0.0,0.0,0.0,0.0,0.0,0.0,0.0,0.0,0.0,0.0,0.0,0.0,0.0,0.0,0.0,0.0,0.0,0.0,0.0,0.0,0.0,0.0,0.0,0.0,0.0,0.0,0.0,0.0,0.0,0.0,0.0,0.0,0.0,0.0,0.0,0.0,0.0,0.0,0.0,0.0,0.0,0.0,0.0,0.0,0.0,0.0,0.0,0.0,0.0,0.0,0.0,0.0,0.0,0.0,0.0,0.0,0.0,0.0,0.0,0.0,0.0,0.0,0.0,0.0,0.0,0.0,0.0,0.0,0.9728,1.0852,1.0231,0.0,0.8067,0.0,0.0,0.0,0.0,0.0,0.0,0.0,0.0,0.0,0.0,0.0,0.0,0.0,0.0,0.0,0.0,0.0,0.0,0.0,0.0,0.0,0.0,0.0,0.0,0.0,0.0,0.0,0.0,0.0,0.0,0.0,0.0,0.0,0.0,0.0,0.0,0.0,0.0,0.0,0.0,0.0,0.0,0.0,0.0,0.0,0.0,0.0,0.0,0.0,0.0,0.0,0.0,0.0,0.0,0.0,0.0,0.0,0.0,0.0,0.0,0.0,0.0,0.0,0.0,0.0,0.0,0.0,0.0,0.0,0.0,0.0,0.0,0.0,0.0,0.0,0.0,0.0,0.0,0.0,0.0,0.0,0.0,0.0,0.0,0.0,0.0,0.0,0.0,0.0,0.0,0.0,0.0,0.0,0.0,0.0,0.0,0.0,0.0,0.0,0.0,0.0,0.0,0.0,0.0,0.0,0.0,0.0,0.0,0.0,0.0,1.0667,1.0866,1.0099,0.9081,0.0,0.0,0.0,0.0,0.0,0.0,0.0,0.0,0.0,0.0,0.0,0.0,0.0,0.0,0.0,0.0,0.0,0.0,0.0,0.0,0.0,0.0,0.0,0.0,0.0,0.0,0.0,0.0,0.0,0.0,0.0,0.0,0.0,0.0,0.0,0.0,0.0,0.0,0.0,0.0,0.0,0.0,0.0,0.0,0.0,0.0,0.0,0.0,0.0,0.0,0.0,0.0,0.0,0.0,0.0,0.0,0.0,0.0,0.0,0.0,0.0,0.0,0.0,0.0,0.0,0.0,0.0,0.0,0.0,0.0,0.0,0.0,0.0,0.0,0.0,0.0,0.0,0.0,0.0,0.0,0.0,0.0,0.0,0.0,0.0,0.0,0.0,0.0,0.0,0.0,0.0,0.0,0.0,0.0,0.0,0.0,0.0,0.0,0.0,0.0,0.0,0.0,0.0,0.0,0.0,0.0,0.0,0.0,0.0,0.0,1.0914,1.1056,1.0723,0.9933,0.8897,0.7586,0.0,0.0,0.0,0.0,0.0,0.0,0.0,0.0,0.0,0.0,0.0,0.0,0.0,0.0,0.0,0.0,0.0,0.0,0.0,0.0,0.0,0.0,0.0,0.0,0.0,0.0,0.0,0.0,0.0,0.0,0.0,0.0,0.0,0.0,0.0,0.0,0.0,0.0,0.0,0.0,0.0,0.0,0.0,0.0,0.0,0.0,0.0,0.0,0.0,0.0,0.0,0.0,0.0,0.0,0.0,0.0,0.0,0.0,0.0,0.0,0.0,0.0,0.0,0.0,0.0,0.0,0.0,0.0,0.0,0.0,0.0,0.0,0.0,0.0,0.0,0.0,0.0,0.0,0.0,0.0,0.0,0.0,0.0,0.0,0.0,0.0,0.0,0.0,0.0,0.0,0.0,0.0,0.0,0.0,0.0,0.0,0.0,0.0,0.0,0.0,0.0,0.0,0.0,0.0,0.0,0.0,0.0,0.0,1.2623,1.1243,1.0562,1.0786,1.0024,0.9002,0.0,0.0,0.0,0.0,0.0,0.0,0.0,0.0,0.0,0.0,0.0,0.0,0.0,0.0,0.0,0.0,0.0,0.0,0.0,0.0,0.0,0.0,0.0,0.0,0.0,0.0,0.0,0.0,0.0,0.0,0.0,0.0,0.0,0.0,0.0,0.0,0.0,0.0,0.0,0.0,0.0,0.0,0.0,0.0,0.0,0.0,0.0,0.0,0.0,0.0,0.0,0.0,0.0,0.0,0.0,0.0,0.0,0.0,0.0,0.0,0.0,0.0,0.0,0.0,0.0,0.0,0.0,0.0,0.0,0.0,0.0,0.0,0.0,0.0,0.0,0.0,0.0,0.0,0.0,0.0,0.0,0.0,0.0,0.0,0.0,0.0,0.0,0.0,0.0,0.0,0.0,0.0,0.0,0.0,0.0,0.0,0.0,0.0,0.0,0.0,0.0,0.0,0.0,0.0,0.0,0.0,0.0,0.0,0.0,1.0662,1.0576,1.0848,1.1434,1.0233,0.9018,0.0,0.0,0.0,0.0,0.0,0.0,0.0,0.0,0.0,0.0,0.0,0.0,0.0,0.0,0.0,0.0,0.0,0.0,0.0,0.0,0.0,0.0,0.0,0.0,0.0,0.0,0.0,0.0,0.0,0.0,0.0,0.0,0.0,0.0,0.0,0.0,0.0,0.0,0.0,0.0,0.0,0.0,0.0,0.0,0.0,0.0,0.0,0.0,0.0,0.0,0.0,0.0,0.0,0.0,0.0,0.0,0.0,0.0,0.0,0.0,0.0,0.0,0.0,0.0,0.0,0.0,0.0,0.0,0.0,0.0,0.0,0.0,0.0,0.0,0.0,0.0,0.0,0.0,0.0,0.0,0.0,0.0,0.0,0.0,0.0,0.0,0.0,0.0,0.0,0.0,0.0,0.0,0.0,0.0,0.0,0.0,0.0,0.0,0.0,0.0,0.0,0.0,0.0,0.0,0.0,0.0,0.0,0.0,0.0,0.9953,0.0,1.1082,1.1154,0.9991,0.8707,0.0,0.0,0.0,0.0,0.0,0.0,0.0,0.0,0.0,0.0,0.0,0.0,0.0,0.0,0.0,0.0,0.0,0.0,0.0,0.0,0.0,0.0,0.0,0.0,0.0,0.0,0.0,0.0,0.0,0.0,0.0,0.0,0.0,0.0,0.0,0.0,0.0,0.0,0.0,0.0,0.0,0.0,0.0,0.0,0.0,0.0,0.0,0.0,0.0,0.0,0.0,0.0,0.0,0.0,0.0,0.0,0.0,0.0,0.0,0.0,0.0,0.0,0.0,0.0,0.0,0.0,0.0,0.0,0.0,0.0,0.0,0.0,0.0,0.0,0.0,0.0,0.0,0.0,0.0,0.0,0.0,0.0,0.0,0.0,0.0,0.0,0.0,0.0,0.0,0.0,0.0,0.0,0.0,0.0,0.0,0.0,0.0,0.0,0.0,0.0,0.0,0.0,0.0,0.0,0.0,0.0,0.0,0.0,1.009,1.1022,1.1552,1.1227,0.9878,0.9294,0.8073,0.0,0.0,0.0,0.0,0.0,0.0,0.0,0.0,0.0,0.0,0.0,0.0,0.0,0.0,0.0,0.0,0.0,0.0,0.0,0.0,0.0,0.0,0.0,0.0,0.0,0.0,0.0,0.0,0.0,0.0,0.0,0.0,0.0,0.0,0.0,0.0,0.0,0.0,0.0,0.0,0.0,0.0,0.0,0.0,0.0,0.0,0.0,0.0,0.0,0.0,0.0,0.0,0.0,0.0,0.0,0.0,0.0,0.0,0.0,0.0,0.0,0.0,0.0,0.0,0.0,0.0,0.0,0.0,0.0,0.0,0.0,0.0,0.0,0.0,0.0,0.0,0.0,0.0,0.0,0.0,0.0,0.0,0.0,0.0,0.0,0.0,0.0,0.0,0.0,0.0,0.0,0.0,0.0,0.0,0.0,0.0,0.0,0.0,0.0,0.0,0.0,0.0,0.0,0.0,0.0,0.0,0.0,0.0,0.0,1.0239,1.0822,1.1182,1.117,0.9097,0.807,0.0,0.0,0.0,0.0,0.0,0.0,0.0,0.0,0.0,0.0,0.0,0.0,0.0,0.0,0.0,0.0,0.0,0.0,0.0,0.0,0.0,0.0,0.0,0.0,0.0,0.0,0.0,0.0,0.0,0.0,0.0,0.0,0.0,0.0,0.0,0.0,0.0,0.0,0.0,0.0,0.0,0.0,0.0,0.0,0.0,0.0,0.0,0.0,0.0,0.0,0.0,0.0,0.0,0.0,0.0,0.0,0.0,0.0,0.0,0.0,0.0,0.0,0.0,0.0,0.0,0.0,0.0,0.0,0.0,0.0,0.0,0.0,0.0,0.0,0.0,0.0,0.0,0.0,0.0,0.0,0.0,0.0,0.0,0.0,0.0,0.0,0.0,0.0,0.0,0.0,0.0,0.0,0.0,0.0,0.0,0.0,0.0,0.0,0.0,0.0,0.0,0.0,0.0,0.0,0.0,0.0,0.0,0.0,0.0,1.0863,1.1693,1.2141,1.2084,0.9808,0.8614,0.8623,0.0,0.0,0.0,0.0,0.0,0.0,0.0,0.0,0.0,0.0,0.0,0.0,0.0,0.0,0.0,0.0,0.0,0.0,0.0,0.0,0.0,0.0,0.0,0.0,0.0,0.0,0.0,0.0,0.0,0.0,0.0,0.0,0.0,0.0,0.0,0.0,0.0,0.0,0.0,0.0,0.0,0.0,0.0,0.0,0.0,0.0,0.0,0.0,0.0,0.0,0.0,0.0,0.0,0.0,0.0,0.0,0.0,0.0,0.0,0.0,0.0,0.0,0.0,0.0,0.0,0.0,0.0,0.0,0.0,0.0,0.0,0.0,0.0,0.0,0.0,0.0,0.0,0.0,0.0,0.0,0.0,0.0,0.0,0.0,0.0,0.0,0.0,0.0,0.0,0.0,0.0,0.0,0.0,0.0,0.0,0.0,0.0,0.0,0.0,0.0,0.0,0.0,0.0,0.0,0.0,0.0,0.0,0.0,1.2474,1.3878,1.3955,1.2634,1.1137,0.9575,0.0,0.0,0.0,0.0,0.0,0.0,0.0,0.0,0.0,0.0,0.0,0.0,0.0,0.0,0.0,0.0,0.0,0.0,0.0,0.0,0.0,0.0,0.0,0.0,0.0,0.0,0.0,0.0,0.0,0.0,0.0,0.0,0.0,0.0,0.0,0.0,0.0,0.0,0.0,0.0,0.0,0.0,0.0,0.0,0.0,0.0,0.0,0.0,0.0,0.0,0.0,0.0,0.0,0.0,0.0,0.0,0.0,0.0,0.0,0.0,0.0,0.0,0.0,0.0,0.0,0.0,0.0,0.0,0.0,0.0,0.0,0.0,0.0,0.0,0.0,0.0,0.0,0.0,0.0,0.0,0.0,0.0,0.0,0.0,0.0,0.0,0.0,0.0,0.0,0.0,0.0,0.0,0.0,0.0,0.0,0.0,0.0,0.0,0.0,0.0,0.0,0.0,0.0,0.0,0.0,0.0,0.0,0.0,0.0,1.3403,1.507,1.5537,1.4594,1.1888,1.0267,0.0,0.0,0.0,0.0,0.0,0.0,0.0,0.0,0.0,0.0,0.0,0.0,0.0,0.0,0.0,0.0,0.0,0.0,0.0,0.0,0.0,0.0,0.0,0.0,0.0,0.0,0.0,0.0,0.0,0.0,0.0,0.0,0.0,0.0,0.0,0.0,0.0,0.0,0.0,0.0,0.0,0.0,0.0,0.0,0.0,0.0,0.0,0.0,0.0,0.0,0.0,0.0,0.0,0.0,0.0,0.0,0.0,0.0,0.0,0.0,0.0,0.0,0.0,0.0,0.0,0.0,0.0,0.0,0.0,0.0,0.0,0.0,0.0,0.0,0.0,0.0,0.0,0.0,0.0,0.0,0.0,0.0,0.0,0.0,0.0,0.0,0.0,0.0,0.0,0.0,0.0,0.0,0.0,0.0,0.0,0.0,0.0,0.0,0.0,0.0,0.0,0.0,0.0,0.0,0.0,0.0,0.0,0.0,1.3435,1.4325,1.5956,1.6366,1.5489,1.2927,1.1161,0.0,0.0,0.0,0.0,0.0,0.0,0.0,0.0,0.0,0.0,0.0,0.0,0.0,0.0,0.0,0.0,0.0,0.0,0.0,0.0,0.0,0.0,0.0,0.0,0.0,0.0,0.0,0.0,0.0,0.0,0.0,0.0,0.0,0.0,0.0,0.0,0.0,0.0,0.0,0.0,0.0,0.0,0.0,0.0,0.0,0.0,0.0,0.0,0.0,0.0,0.0,0.0,0.0,0.0,0.0,0.0,0.0,0.0,0.0,0.0,0.0,0.0,0.0,0.0,0.0,0.0,0.0,0.0,0.0,0.0,0.0,0.0,0.0,0.0,0.0,0.0,0.0,0.0,0.0,0.0,0.0,0.0,0.0,0.0,0.0,0.0,0.0,0.0,0.0,0.0,0.0,0.0,0.0,0.0,0.0,0.0,0.0,0.0,0.0,0.0,0.0,0.0,0.0,0.0,0.0,0.0,0.0,0.0,1.4013,1.5232,1.6477,1.6646,1.5584,1.4014,1.2132,0.0,0.0,0.0,0.0,0.0,0.0,0.0,0.0,0.0,0.0,0.0,0.0,0.0,0.0,0.0,0.0,0.0,0.0,0.0,0.0,0.0,0.0,0.0,0.0,0.0,0.0,0.0,0.0,0.0,0.0,0.0,0.0,0.0,0.0,0.0,0.0,0.0,0.0,0.0,0.0,0.0,0.0,0.0,0.0,0.0,0.0,0.0,0.0,0.0,0.0,0.0,0.0,0.0,0.0,0.0,0.0,0.0,0.0,0.0,0.0,0.0,0.0,0.0,0.0,0.0,0.0,0.0,0.0,0.0,0.0,0.0,0.0,0.0,0.0,0.0,0.0,0.0,0.0,0.0,0.0,0.0,0.0,0.0,0.0,0.0,0.0,0.0,0.0,0.0,0.0,0.0,0.0,0.0,0.0,0.0,0.0,0.0,0.0,0.0,0.0,0.0,0.0,0.0,0.0,0.0,0.0,0.0,0.0,1.426,1.5473,1.6244,1.6249,1.5466,1.4224,1.2596,0.0,0.0,0.0,0.0,0.0,0.0,0.0,0.0,0.0,0.0,0.0,0.0,0.0,0.0,0.0,0.0,0.0,0.0,0.0,0.0,0.0,0.0,0.0,0.0,0.0,0.0,0.0,0.0,0.0,0.0,0.0,0.0,0.0,0.0,0.0,0.0,0.0,0.0,0.0,0.0,0.0,0.0,0.0,0.0,0.0,0.0,0.0,0.0,1.0055,0.0,0.0,0.0,0.0,0.0,0.0,0.0,0.0,0.0,0.0,0.0,0.0,0.0,0.0,0.0,0.0,0.0,0.0,0.0,0.0,0.0,0.0,0.0,0.0,0.0,0.0,0.0,0.0,0.0,0.0,0.0,0.0,0.0,0.0,0.0,0.0,0.0,0.0,0.0,0.0,0.0,0.0,0.0,0.0,0.0,0.0,0.0,0.0,0.0,0.0,0.0,0.0,0.0,0.0,0.0,0.0,0.0,0.0,0.0,1.4557,1.5816,1.6195,1.5921,1.5005,1.4337,1.2958,0.0,0.0,0.0,0.0,0.0,0.0,0.0,0.0,0.0,0.0,0.0,0.0,0.0,0.0,0.0,0.0,0.0,0.0,0.0,0.0,0.0,0.0,0.0,0.0,0.0,0.0,0.0,0.0,0.0,0.0,0.0,0.0,0.0,0.0,0.0,0.0,0.0,0.0,0.0,0.0,0.0,0.0,0.0,0.0,0.0,0.0,0.0,0.0,0.0,0.0,0.0,0.0,0.0,0.0,0.0,0.0,0.0,0.0,0.0,0.0,0.0,0.0,0.0,0.0,0.0,0.0,0.0,0.0,0.0,0.0,0.0,0.0,0.0,0.0,0.0,0.0,0.0,0.0,0.0,0.0,0.0,0.0,0.0,0.0,0.0,0.0,0.0,0.0,0.0,0.0,0.0,0.0,0.0,0.0,0.0,0.0,0.0,0.0,0.0,0.0,0.0,0.0,0.0,0.0,0.0,0.0,0.0,1.3576,1.4733,1.616,1.6122,1.5568,1.4538,1.4305,1.313,1.0875,0.0,0.0,0.0,0.0,0.0,0.0,0.0,0.0,0.0,0.0,0.0,0.0,0.0,0.0,0.0,0.0,0.0,0.0,0.0,0.0,0.0,0.0,0.0,0.0,0.0,0.0,0.0,0.0,0.0,0.0,0.0,0.0,0.0,0.0,0.0,0.0,0.0,0.0,0.9402,1.0786,0.0,0.0,0.0,0.0,0.0,0.0,0.0,0.0,1.1239,0.0,0.0,0.0,0.0,0.0,0.0,0.0,0.0,0.0,0.0,0.0,0.0,0.0,0.0,0.0,0.0,0.0,0.0,0.0,0.0,0.0,0.0,0.0,0.0,0.0,0.0,0.0,0.0,0.0,0.0,0.0,0.0,0.0,0.0,0.0,0.0,0.0,0.0,0.0,0.0,0.0,0.0,0.0,0.0,0.0,0.0,0.0,0.0,0.0,0.0,0.0,0.0,0.0,0.0,0.0,0.0,1.4105,1.3535,1.425,1.637,1.5839,1.5197,1.4537,1.399,1.2776,1.0819,0.0,0.0,0.0,0.0,0.0,0.0,0.0,0.0,0.0,0.0,0.0,0.0,0.0,0.0,0.0,0.0,0.0,0.0,0.0,0.0,0.0,0.0,0.0,0.0,0.0,0.0,0.0,0.0,0.0,0.0,0.0,0.0,0.0,0.0,0.0,0.0,0.0,0.0,0.0,1.3735,1.4776,0.0,0.0,0.0,0.0,0.0,0.0,0.0,0.0,1.0538,0.0,0.0,0.0,0.0,0.0,0.0,0.0,0.0,0.0,0.0,0.0,0.0,0.0,0.0,0.0,0.0,0.0,0.0,0.0,0.0,0.0,0.0,0.0,0.0,0.0,0.0,0.0,0.0,0.0,0.0,0.0,0.0,0.0,0.0,0.0,0.0,0.0,0.0,0.0,0.0,0.0,0.0,0.0,0.0,0.0,0.0,0.0,0.0,0.0,0.0,0.0,0.0,0.0,0.0,0.0,1.3262,1.3907,1.4754,1.5869,1.5545,1.4926,1.4051,1.3317,1.2158,0.0,0.0,0.0,0.0,0.0,0.0,0.0,0.0,0.0,0.0,0.0,0.0,0.0,0.0,0.0,0.0,0.0,0.0,0.0,0.0,0.0,0.0,0.0,0.0,0.0,0.0,0.0,0.0,0.0,0.0,0.0,0.0,0.0,0.0,0.0,0.0,0.0,0.0,0.0,0.0,1.4177,1.4829,1.543,0.0,0.0,0.0,0.0,0.0,0.0,1.2026,1.0933,0.0,0.0,0.0,0.0,0.0,0.0,0.0,0.0,0.0,0.0,0.0,0.0,0.0,0.0,0.0,0.0,0.0,0.0,0.0,0.0,0.0,0.0,0.0,0.0,0.0,0.0,0.0,0.0,0.0,0.0,0.0,0.0,0.0,0.0,0.0,0.0,0.0,0.0,0.0,0.0,0.0,0.0,0.0,0.0,0.0,0.0,0.0,0.0,0.0,0.0,0.0,0.0,0.0,0.0,0.0,1.2279,1.3976,1.5049,1.5352,1.522,1.464,1.3612,1.2747,1.1601,0.0,0.0,0.0,0.0,0.0,0.0,0.0,0.0,0.0,0.0,0.0,0.0,0.0,0.0,0.0,0.0,0.0,0.0,0.0,0.0,0.0,0.0,0.0,0.0,0.0,0.0,0.0,0.0,0.0,0.0,0.0,0.0,0.0,0.0,0.0,0.0,0.0,0.0,0.0,0.0,0.0,1.5124,1.5716,1.5411,0.0,0.0,0.0,0.0,1.3983,1.2835,0.0,0.0,0.0,0.0,0.0,0.0,0.0,0.0,0.0,0.0,0.0,0.0,0.0,0.0,0.0,0.0,0.0,0.0,0.0,0.0,0.0,0.0,0.0,0.0,0.0,0.0,0.0,0.0,0.0,0.0,0.0,0.0,0.0,0.0,0.0,0.0,0.0,0.0,0.0,0.0,0.0,0.0,0.0,0.0,0.0,0.0,0.0,0.0,0.0,0.0,0.0,0.0,0.0,0.0,0.0,0.0,1.2076,1.294,1.3981,1.5216,1.4846,1.4283,1.361,1.2707,1.1419,0.0,0.0,0.0,0.0,0.0,0.0,0.0,0.0,0.0,0.0,0.0,0.0,0.0,0.0,0.0,0.0,0.0,0.0,0.0,0.0,0.0,0.0,0.0,0.0,0.0,0.0,0.0,0.0,0.0,0.0,0.0,0.0,0.0,0.0,0.0,0.0,0.0,0.0,0.0,0.0,0.0,1.8124,1.6693,1.6132,1.562,0.0,0.0,1.4651,1.5439,1.4464,0.0,0.0,0.0,0.0,0.0,0.0,0.0,0.0,0.0,0.0,0.0,0.0,0.0,0.0,0.0,0.0,0.0,0.0,0.0,0.0,0.0,0.0,0.0,0.0,0.0,0.0,0.0,0.0,0.0,0.0,0.0,0.0,0.0,0.0,0.0,0.0,0.0,0.0,0.0,0.0,0.0,0.0,0.0,0.0,0.0,0.0,0.0,0.0,0.0,0.0,0.0,0.0,0.0,0.0,0.0,1.0702,1.2065,1.3021,1.3929,1.479,1.4294,1.373,1.3222,1.2064,1.0888,0.0,0.0,0.0,0.0,0.0,0.0,0.0,0.0,0.0,0.0,0.0,0.0,0.0,0.0,0.0,0.0,0.0,0.0,0.0,0.0,0.0,0.0,0.0,0.0,0.0,0.0,0.0,0.0,0.0,0.0,0.0,0.0,0.0,0.0,0.0,0.0,0.0,0.0,0.0,0.0,0.0,0.0,1.7315,1.6665,0.0,0.0,0.0,1.4946,1.4758,0.0,0.0,0.0,0.0,0.0,0.0,0.0,0.0,0.0,0.0,0.0,0.0,0.0,0.0,0.0,0.0,0.0,0.0,0.0,0.0,0.0,0.0,0.0,0.0,0.0,0.0,0.0,0.0,0.0,0.0,0.0,0.0,0.0,0.0,0.0,0.0,0.0,0.0,0.0,0.0,0.0,0.0,0.0,0.0,0.0,0.0,0.0,0.0,0.0,0.0,0.0,0.0,0.0,0.0,0.0,0.0,0.0,1.184,1.3098,1.3913,1.4251,1.3825,1.3392,1.2898,1.1721,0.0,0.0,0.0,0.0,0.0,0.0,0.0,0.0,0.0,0.0,0.0,0.0,0.0,0.0,0.0,0.0,0.0,0.0,0.0,0.0,0.0,0.0,0.0,0.0,0.0,0.0,0.0,0.8654,0.0,0.0,0.0,0.0,0.0,0.0,0.0,0.0,0.0,0.0,0.0,0.0,0.0,0.0,1.7029,1.769,1.6982,1.6284,0.0,0.0,1.5086,1.4187,1.3924,1.3277,0.0,0.0,0.0,0.0,0.0,0.0,0.0,0.0,0.0,0.0,0.0,0.0,0.0,0.0,0.0,0.0,0.0,0.0,0.0,0.0,0.0,0.0,0.0,0.0,0.0,0.0,0.0,0.0,0.0,0.0,0.0,0.0,0.0,0.0,0.0,0.0,0.0,0.0,0.0,0.0,0.0,0.0,0.0,0.0,0.0,0.0,0.0,0.0,0.0,0.0,0.0,0.0,0.0,0.0,0.0,1.1203,1.2772,1.3626,1.3652,1.3622,1.3392,1.2898,1.2015,1.0884,0.0,0.0,0.0,0.0,0.0,0.0,0.0,0.0,0.0,0.0,0.0,0.0,0.0,0.0,0.0,0.0,0.0,0.0,0.0,0.0,0.0,0.0,0.0,0.0,0.0,0.0,0.0,0.0,0.0,0.0,0.0,0.0,0.0,0.0,0.0,0.0,0.0,0.0,0.0,0.0,0.0,1.7646,1.7703,1.6961,1.6385,0.0,0.0,1.5174,1.4552,1.4426,1.3784,1.1796,0.0,0.0,0.0,0.0,0.0,0.0,0.0,0.0,0.0,0.0,0.0,0.0,0.0,0.0,0.0,0.0,0.0,0.0,0.0,0.0,0.0,0.0,0.0,0.0,0.0,0.0,0.0,0.0,0.0,0.0,0.0,0.0,0.0,0.0,0.0,0.0,0.0,0.0,0.0,0.0,0.0,0.0,0.0,0.0,0.0,0.0,0.0,0.0,0.0,0.0,0.0,0.0,0.0,1.063,1.0934,1.2419,1.3314,1.3569,1.3332,1.3089,1.2915,1.2098,1.1104,0.0,0.0,0.0,0.0,0.0,0.0,0.0,0.0,0.0,0.0,0.0,0.0,0.0,0.0,0.0,0.0,0.0,0.0,0.0,0.0,0.0,0.0,0.0,0.0,0.0,0.0,0.0,0.0,0.9488,0.9776,0.9329,0.0,0.0,0.0,0.0,0.0,0.0,0.0,0.0,0.0,0.0,1.8038,1.8117,1.7138,0.0,0.0,1.5412,1.4586,1.4033,1.3695,1.3047,1.1671,1.1275,0.0,0.0,0.0,0.0,0.0,0.0,0.0,0.0,0.0,0.0,0.0,0.0,0.0,0.0,0.0,0.0,0.0,0.0,0.0,0.0,0.0,0.0,0.0,0.0,0.0,0.0,0.0,0.0,0.0,0.0,0.0,0.0,0.0,0.0,0.0,0.0,0.0,0.0,0.0,0.0,0.0,0.0,0.0,0.0,0.0,0.0,0.0,0.0,0.0,0.0,0.0,0.0,1.0456,1.0555,1.2088,1.3042,1.3374,1.3077,1.2915,1.2895,1.2214,1.1383,0.0,0.0,0.0,0.0,0.0,0.0,0.0,0.0,0.0,0.0,0.0,0.0,0.0,0.0,0.0,0.0,0.0,0.0,0.0,0.0,0.0,0.0,0.0,0.0,0.0,0.0,0.0,0.0,1.0085,1.012,0.8926,0.0,0.0,0.0,0.0,0.0,0.0,0.0,0.0,0.0,0.0,1.7937,1.8155,1.699,1.6056,1.5903,1.4907,1.3976,1.3459,1.3091,1.2565,1.1618,0.0,0.0,0.0,0.0,0.0,0.0,0.0,0.0,0.0,0.0,0.0,0.0,0.0,0.0,0.0,0.0,0.0,0.0,0.0,0.0,0.0,0.0,0.0,0.0,0.0,0.0,0.0,0.0,0.0,0.0,0.7616,0.0,0.0,0.0,0.0,0.0,0.0,0.0,0.0,0.0,0.0,0.0,0.0,0.0,0.0,0.0,0.0,0.0,0.0,0.0,0.0,0.0,0.0,1.015,1.0045,1.187,1.2833,1.2914,1.2915,1.2915,1.2905,1.243,1.1734,1.0813,0.0,0.0,0.0,0.0,0.0,0.0,0.0,0.0,0.0,0.0,0.0,0.0,0.0,0.0,0.0,0.0,0.0,0.0,0.0,0.0,0.0,0.0,0.0,0.0,0.0,0.0,1.0598,1.0362,0.9506,0.0,0.0,0.0,0.0,0.0,0.0,0.0,0.0,0.0,0.0,1.7004,1.7226,1.7733,1.6449,1.5429,1.5417,1.4381,1.345,1.3002,1.2895,1.2614,0.0,0.0,0.0,0.0,0.0,0.0,0.0,0.0,0.0,0.0,0.0,0.0,0.0,0.0,0.0,0.0,0.0,0.0,0.0,0.0,0.0,0.0,0.0,0.0,0.0,0.0,0.0,1.0328,0.9551,0.0,0.0,0.0,0.0,0.0,0.0,0.0,0.0,0.0,0.0,0.0,1.3469,1.4254,0.0,0.0,0.0,0.0,0.0,0.0,0.0,0.0,0.0,0.0,0.0,0.0,1.0145,1.0392,1.1942,1.2829,1.2898,1.2915,1.2915,1.2917,1.2541,1.1884,1.0899,0.0,0.0,0.0,0.0,0.0,0.0,0.0,0.0,0.0,0.0,0.0,0.0,0.0,0.0,0.0,0.0,0.0,0.0,0.0,0.0,0.0,0.0,0.0,0.0,0.0,0.9581,0.0,0.0,0.0,0.0,0.0,0.0,0.0,0.0,0.0,0.0,0.0,1.6716,1.7306,1.7481,1.746,1.7248,1.6125,1.5199,0.0,0.0,0.0,0.0,0.0,0.0,0.0,0.0,0.0,0.0,0.0,0.0,0.0,0.0,1.4229,1.3045,1.2229,1.1594,1.1291,0.0,0.0,0.0,0.0,0.0,0.0,0.0,0.0,0.0,0.0,0.0,0.0,0.0,0.0,1.2188,0.0,1.1436,0.0,0.0,0.0,0.0,0.0,0.0,0.0,0.0,1.429,1.4941,1.4987,1.5749,1.5704,0.0,1.5509,1.427,0.0,0.0,0.0,0.0,0.0,0.0,0.0,0.0,1.044,1.0825,1.211,1.284,1.2898,1.2915,1.2915,1.2883,1.2578,1.2068,1.1347,1.1138,1.0452,0.0,0.0,0.0,0.0,0.0,0.0,0.0,0.0,0.0,0.0,0.0,0.0,0.0,0.0,0.0,0.0,0.0,0.0,0.0,0.0,0.0,0.0,0.0,1.0424,0.0,0.0,0.0,0.0,0.0,0.0,0.0,0.0,0.0,1.4368,1.6321,1.773,1.7741,1.7629,1.7355,1.6777,0.0,0.0,0.0,0.0,0.0,0.0,0.0,1.2854,1.2866,1.2866,1.2941,1.3211,1.4209,1.5063,1.5342,0.0,0.0,1.4399,1.3558,1.296,1.2654,1.2966,1.3172,1.2735,1.3203,1.357,0.0,0.0,0.0,0.0,0.0,0.0,0.0,0.0,1.3566,1.3287,0.0,1.322,0.0,0.0,0.0,0.0,0.0,1.4077,0.0,0.0,1.6195,1.6869,1.685,1.6869,1.6925,1.701,1.7616,1.6701,1.4327,1.3059,0.0,0.0,0.0,0.0,0.0,0.0,1.1001,1.1331,1.2296,1.2849,1.291,1.2915,1.2915,1.2883,1.2586,1.2324,1.2136,1.1887,1.1416,1.0715,1.0208,0.0,0.0,0.0,0.0,0.0,0.0,0.0,0.0,0.0,0.0,0.0,0.0,0.0,0.0,0.0,0.0,0.0,0.0,0.0,0.0,1.2297,0.0,0.0,0.0,0.0,0.0,0.0,0.0,0.0,0.0,0.0,1.5716,1.7516,1.8654,1.8057,0.0,0.0,0.0,0.0,1.436,1.4214,1.4121,1.4081,1.4081,1.4071,1.4071,1.4071,0.0,0.0,1.4147,1.4576,1.4909,1.4854,1.5372,1.5944,1.6398,1.568,1.5135,1.5086,1.5042,1.5139,1.5158,1.5239,1.5542,1.4703,0.0,0.0,0.0,0.0,1.4516,1.5225,1.5927,1.6299,1.5677,1.4352,1.4476,0.0,0.0,0.0,0.0,0.0,0.0,1.4732,1.5601,1.6146,1.6492,1.662,1.6968,1.6945,1.6685,1.7572,1.7622,1.6887,1.5883,1.3822,1.0868,0.0,0.0,0.0,0.0,1.1709,1.182,1.2521,1.2886,1.2905,1.2915,1.2915,1.2915,1.2812,1.2741,1.2752,1.2722,1.2112,1.0906,1.1064,0.0,0.0,0.0,0.0,0.0,0.0,0.0,0.0,0.0,0.0,0.0,0.0,0.0,0.0,0.0,0.0,0.0,0.0,0.0,1.0484,1.1211,1.1708,0.0,0.0,0.0,0.0,0.0,0.0,0.0,0.0,0.0,1.6524,1.7462,1.8093,0.0,0.0,1.6481,1.556,1.5052,1.4565,1.4067,1.3977,0.0,0.0,1.3957,1.3984,1.4077,1.4371,1.469,1.4988,1.5148,1.524,1.5217,1.5373,1.5566,1.5704,1.5785,1.5595,1.5245,1.5129,1.4962,1.4547,1.4803,1.5023,1.6114,1.5612,1.5173,1.5354,1.598,1.6543,1.72,1.7854,1.8183,1.762,1.6458,1.6682,1.5882,1.4361,1.4121,0.0,0.0,0.0,1.5559,1.6174,1.6187,1.6246,1.6296,1.6398,1.6312,1.6042,1.6482,1.6689,1.6678,1.6118,1.4399,1.1672,0.0,0.0,1.0957,1.1651,1.2142,1.2327,1.2698,1.2915,1.2915,1.2915,1.2915,1.2915,1.2915,1.2912,1.2974,1.3022,1.2595,1.1587,1.1804,1.0963,0.0,0.0,0.0,0.0,0.0,0.0,0.0,0.0,0.0,0.0,0.0,0.7665,0.6667,0.0,0.0,0.0,0.9638,1.0303,1.1593,1.2231,0.0,0.0,0.0,0.0,0.0,0.0,0.0,1.5979,1.6867,1.7423,1.7394,1.7553,1.7663,1.7617,1.6853,1.604,1.5328,0.0,1.4507,1.4112,1.4224,1.4329,1.4329,1.4343,1.4371,1.444,1.4737,1.4988,1.5187,1.5274,1.5298,1.5245,1.5245,1.5254,1.5254,1.5439,1.5534,1.5202,1.5154,1.5003,1.4603,1.4807,1.4937,1.6613,1.6785,1.7046,1.7384,1.7847,1.8092,1.8512,1.9099,1.9152,1.8935,1.8572,1.9124,1.8451,1.6895,1.6748,0.0,1.7283,1.703,1.6751,1.6546,1.6305,1.6114,1.5941,1.556,1.5349,1.5291,1.4975,1.4787,1.4788,1.4777,1.4172,1.3102,1.3253,1.3,1.2316,1.2236,1.2421,1.2795,1.2879,1.2915,1.2915,1.2915,1.2915,1.2915,1.2915,1.2886,1.2849,1.2914,1.2778,1.2415,1.2318,1.1645,1.0282,0.0,0.0,0.0,0.0,0.0,0.0,0.0,0.0,0.0,0.0,0.0,0.0,0.0,0.0,0.0,1.1744,0.0,1.3709,1.4463,0.0,0.0,0.0,1.5094,1.5634,1.6314,1.7092,1.8056,0.0,0.0,1.8165,1.7619,1.7198,1.7254,1.6372,1.5622,1.533,1.4702,1.4265,1.4213,1.4599,1.4878,1.4856,1.4919,1.4939,1.4953,1.5103,1.5123,1.5044,1.5112,1.5112,1.5039,1.5009,1.5024,1.5024,1.5011,1.5015,1.5152,1.5201,1.5201,1.5187,1.5255,1.5347,1.6139,1.6618,1.7232,1.7095,1.654,1.6973,1.7272,1.7485,1.7908,1.8044,1.8,1.8143,1.7721,1.6908,1.7172,1.6953,1.6335,1.6261,1.6217,1.6143,1.6079,1.5836,1.5479,1.5716,1.5636,1.532,1.5576,1.5507,1.5175,1.5152,1.4687,1.3808,1.3691,1.3171,1.2215,1.2885,1.3128,1.2881,1.2883,1.2915,1.2915,1.2915,1.2915,1.2915,1.2915,1.2725,1.2369,1.2464,1.2225,1.1572,1.1858,1.153,1.0412,0.965,0.0,0.0,0.0,0.0,0.0,0.0,0.0,0.0,0.0,1.0524,0.8224,0.0,1.1413,0.0,1.2784,1.3697,1.4401,1.4204,0.0,0.0,1.5823,1.5957,1.7107,1.7541,1.7777,1.7893,1.7892,1.7783,1.7561,1.6781,1.5984,1.5386,1.5601,1.5478,1.4505,1.4201,1.4019,1.3895,1.3975,1.4186,1.4671,1.4911,1.5009,1.5009,1.5029,1.5029,1.5024,1.5015,1.5053,1.5009,1.5009,1.5009,1.5009,1.4872,1.4843,1.5015,1.5117,1.522,1.5318,1.5376,1.542,1.5301,1.5626,1.5876,1.5799,1.5603,1.6629,1.7097,1.7159,1.7448,1.7584,1.7639,1.7667,1.7526,1.723,1.7428,1.7053,1.6258,1.6311,1.6125,1.5749,1.5827,1.5675,1.5352,1.5429,1.5336,1.5082,1.5117,1.5017,1.4788,1.4755,1.4537,1.4039,1.3795,1.334,1.2756,1.3097,1.3152,1.2915,1.2915,1.2915,1.2915,1.2915,1.2915,1.2915,1.2915,1.2676,1.2223,1.2274,1.1962,1.1256,1.1442,1.1336,1.0778,1.0126,0.9646,0.0,0.0,0.0,0.0,0.0,0.0,0.0,0.0,0.0,0.0,0.0,1.2322,1.2678,1.3629,1.4494,1.5093,1.5277,1.5821,1.6967,1.7074,1.7336,1.802,1.8205,1.8199,1.7869,1.7736,1.7392,1.6749,1.6146,1.5381,1.4358,1.456,1.4457,1.3606,1.3584,1.3734,1.3631,1.3866,1.4175,1.4571,1.4704,1.4788,1.4773,1.4823,1.4852,1.4793,1.4838,1.4852,1.4803,1.4773,1.4788,1.4749,1.4419,1.4306,1.4715,1.4745,1.4834,1.5225,1.5352,1.542,1.4362,1.4394,1.4071,1.4247,1.485,1.6275,1.702,1.7265,1.7254,1.7254,1.7257,1.7371,1.7346,1.7197,1.7197,1.6803,1.613,1.6301,1.5983,1.5308,1.5386,1.5405,1.5376,1.4968,1.4793,1.4844,1.4445,1.4254,1.4202,1.4192,1.4176,1.4071,1.3708,1.348,1.3474,1.3108,1.2915,1.2915,1.2915,1.2915,1.2915,1.2915,1.2915,1.2915,1.2915,1.2668,1.2156,1.2163,1.1883,1.1235,1.12,1.1237,1.1292,1.0677,1.0454,0.0,0.9729,0.0,0.0,0.0,0.0,0.0,0.0,0.0,0.0,1.3044,1.3368,1.3417,1.451,1.5402,1.5879,1.6882,1.7443,1.7363,1.821,1.8677,1.84,1.8544,1.8465,1.7885,1.7474,1.6876,1.6026,1.5569,1.486,1.3756,1.3351,1.3054,1.2573,1.2933,1.3381,1.3465,1.4055,1.4461,1.45,1.4515,1.4515,1.453,1.4616,1.4621,1.4551,1.4601,1.4636,1.4536,1.453,1.4515,1.45,1.404,1.3941,1.4627,1.4499,1.4454,1.5034,1.5303,1.5396,1.3677,1.3983,1.3654,1.3672,1.393,1.3965,1.4958,1.65,1.6514,1.6504,1.6511,1.6539,1.5979,1.5041,1.4998,1.4665,1.4079,1.41,1.4317,1.4671,1.4157,1.4445,1.5337,1.4813,1.4814,1.5278,1.5191,1.4986,1.4668,1.4682,1.4459,1.4104,1.3685,1.348,1.3474,0.0,0.0,0.0,1.2915,1.2915,1.2915,1.2915,1.2915,1.2915,1.2915,0.0,1.1781,1.2041,1.1861,1.1193,1.1519,0.0,0.0,0.0,0.0,0.0,0.0,0.0,0.0,0.0,0.0,0.0,1.2701,1.2818,1.343,1.456,1.5079,1.4676,1.6005,1.6959,1.7073,1.7652,1.8038,1.8043,1.8497,1.8606,1.818,1.8672,1.8672,1.7558,1.7077,1.6525,1.5723,1.4649,1.3644,1.2894,1.222,1.1864,1.1756,1.232,1.2887,1.3435,1.4094,1.4485,1.45,1.45,1.45,1.4515,1.453,1.4521,1.4515,1.4515,1.4536,1.45,1.45,1.45,1.4485,1.4372,1.4378,1.4852,1.4843,1.4897,1.5156,1.5298,1.542,1.2962,0.0,1.2347,1.2391,0.0,1.2289,1.308,1.4689,1.4845,1.4933,1.4924,1.4929,1.4556,1.3965,1.3957,1.3786,1.3496,1.3496,1.3677,1.3977,1.3653,1.3833,1.4436,1.4148,1.435,1.4942,1.4957,1.5013,1.5098,1.5112,1.4966,1.4752,1.4346,1.4033,1.3773,1.3216,1.2915,1.2915,1.2915,1.2771,1.2517,1.2505,1.2372,1.2079,0.0,0.0,0.0,0.0,0.0,0.0,0.0,0.0,0.0,0.0,0.0,1.1879,1.1834,1.1911,1.2226,1.2589,1.3189,1.4065,1.4137,1.4291,1.4665,1.5585,1.6023,1.5753,1.6733,1.7398,1.7423,1.8129,1.8493,1.8279,1.8777,1.8968,1.8437,1.8495,1.8219,1.7194,1.65,1.5876,1.5138,1.4186,1.3252,1.2588,1.1919,1.1608,1.1957,1.2274,1.2826,1.3821,1.4228,1.4485,1.45,1.45,1.45,1.45,1.45,1.45,1.45,1.45,1.45,1.45,1.45,1.4417,1.407,1.4055,1.416,1.4339,1.4493,1.4617,1.4715,1.4848,1.4957,1.2016,1.1335,1.0808,1.0859,1.1255,1.0792,1.1238,1.2351,0.0,0.0,0.0,1.3245,1.3184,1.3117,1.3093,1.3108,1.3162,1.3123,1.3199,1.3312,1.3223,1.3275,1.3496,1.3366,1.3743,1.4484,1.4499,1.4824,1.5396,1.542,1.542,1.5381,1.499,1.4521,1.3977,1.3262,1.2881,1.2869,1.2796,1.2554,1.2113,1.198,1.1706,1.12,1.1673,1.1774,1.1433,1.191,1.2058,1.1807,1.1512,1.1761,1.2595,1.2329,1.2459,1.3156,1.3674,1.4006,1.4109,1.4542,1.4849,1.5008,1.5066,1.5236,1.5568,1.6065,1.6369,1.6369,1.7092,1.755,1.7562,1.8506,1.8958,1.8543,1.9145,1.9341,1.8665,1.8292,1.7731,1.6715,1.5995,1.5274,1.4443,1.3707,1.307,1.2428,1.1833,1.1818,1.2497,1.2841,1.3306,1.4228,1.447,1.45,1.45,1.45,1.45,1.45,1.45,1.45,1.45,1.45,1.45,1.45,1.45,1.4297,1.3821,1.3707,1.3728,1.3857,1.4013,1.4183,1.4198,1.4267,1.4306,1.0421,1.0101,0.9644,0.9556,0.969,0.9232,0.9244,0.9764,1.2051,1.2741,1.2212,1.2212,1.1981,1.1608,1.149,1.1584,1.184,1.1686,1.1973,0.0,1.2104,1.2459,1.3442,1.2917,1.3289,1.444,1.4499,1.4809,1.5337,1.5396,1.542,1.5347,1.499,1.4398,1.3623,1.3128,1.2832,1.2722,1.2382,1.2175,1.2101,1.1594,1.1297,1.12,1.1263,1.136,1.1395,1.1849,1.2114,1.2133,1.2559,1.2762,1.2625,1.267,1.2628,1.2499,1.2794,1.3211,1.375,1.415,1.4595,1.5025,1.5096,1.513,1.5184,1.562,1.591,1.5958,1.721,1.8078,1.8142,1.902,1.9623,1.9547,1.957,1.932,1.8594,1.8226,1.7534,1.6226,1.5781,1.5065,1.3953,1.313,1.2474,1.1849,1.1639,1.1934,1.2986,1.3851,1.4243,1.4455,1.45,1.45,1.45,1.45,1.45,1.45,1.45,1.45,1.45,1.45,1.45,1.45,1.45,1.4417,1.4258,1.3866,1.3842,1.4216,1.4163,1.4019,1.4034,1.3795,1.3556,0.9733,0.9208,0.8826,0.8662,0.8634,0.8584,0.8646,0.8833,1.0012,1.0501,1.0375,1.0375,1.0325,1.0237,1.0525,1.0793,1.1005,1.1326,1.1654,1.1981,1.1732,1.1813,1.2161,1.2074,1.2402,1.3131,1.3324,1.3734,1.4356,1.4721,1.4927,1.4899,1.4834,1.4477,1.3831,1.3352,1.2825,1.2243,1.2021,1.1806,1.1565,1.0973,1.0566,1.0349,1.0604,1.0793,1.0863,1.1658,1.2116,1.2148,1.2689,1.296,1.288,1.2943,1.2937,1.2919,1.3317,1.3716,1.4046,1.426,1.4462,1.4697,1.4455,1.442,1.4697,1.5164,1.5523,1.5802,1.7031,1.7918,1.8193,1.9158,1.9811,1.9811,1.9617,1.9225,1.8565,1.7756,1.6964,1.6022,1.5352,1.476,1.4145,1.3145,1.2435,1.2074,1.1787,1.1934,1.2856,1.3541,1.41,1.4426,1.45,1.45,1.45,1.45,1.45,1.45,1.45,1.45,1.45,1.45,1.45,1.45,1.45,1.4342,1.4094,1.3791,1.3737,1.3608,1.3644,1.3448,1.3183,1.2588,1.2205,0.8994,0.8419,0.8093,0.7868,0.7731,0.7923,0.8037,0.8037,0.8037,0.8161,0.8431,0.8721,0.9004,0.9228,0.9878,1.0291,1.0541,1.1216,1.1544,1.1591,1.1591,1.1459,1.1254,1.1481,1.1722,1.2017,1.2338,1.2767,1.3303,1.3954,1.4222,1.4181,1.4307,1.4103,1.3613,1.3133,1.2456,1.1635,1.1421,1.1187,1.0854,1.029,0.984,0.9614,0.9945,1.0236,1.0421,1.1255,1.1831,1.2101,1.2505,1.2822,1.3063,1.3087,1.3174,1.3374,1.3766,1.407,1.421,1.421,1.421,1.4163,1.3822,1.3763,1.4141,1.4513,1.5028,1.5663,1.6892,1.781,1.8102,1.8958,1.9605,1.954,1.9239,1.867,1.8027,1.7107,1.6287,1.5676,1.4961,1.4461,1.4109,1.3245,1.2543,1.2405,1.1926,1.1888,1.2749,1.3329,1.3731,1.4267,1.45,1.45,1.45,1.45,1.45,1.45,1.45,1.45,1.45,1.45,1.45,1.45,1.45,1.4357,1.3875,1.3496,1.3381,1.3236,1.3009,1.2619,1.2358,1.1818,1.1273,0.7695,0.7585,0.7414,0.7099,0.6846,0.6701,0.6655,0.6646,0.6613,0.6613,0.6855,0.7967,0.8581,0.8833,0.9496,0.9974,1.0338,1.1014,1.142,1.1591,1.1591,1.1585,1.1518,1.1585,1.1737,1.1979,1.2291,1.2438,1.2595,1.3253,1.3435,1.3162,1.3093,1.2791,1.2179,1.1842,1.1423,1.0888,1.029,1.0033,1.0072,0.9562,0.9322,0.9413,0.9465,0.9777,1.0326,1.0506,1.104,1.1989,1.215,1.2458,1.3002,1.3087,1.3138,1.3218,1.3386,1.3527,1.3658,1.368,1.3634,1.3505,1.3575,1.3586,1.3564,1.3681,1.4164,1.52,1.6938,1.7772,1.7678,1.8428,1.8894,1.8761,1.8238,1.7493,1.6754,1.6183,1.5676,1.4898,1.4651,1.4273,1.3707,1.2978,1.2543,1.2497,1.2012,1.2197,1.361,1.3685,1.3746,1.4297,1.45,1.45,1.45,1.45,1.45,1.45,1.4485,1.4417,1.4372,1.4387,1.447,1.4297,1.45,1.4426,1.4154,1.3563,1.2917,1.307,1.2634,1.1927,1.1973,1.188,1.1723,0.7442,0.7313,0.7157,0.6859,0.6554,0.6549,0.6522,0.6408,0.6404,0.6404,0.6482,0.7146,0.7521,0.7684,0.8291,0.901,0.9853,1.0433,1.1045,1.156,1.1591,1.1496,1.1313,1.129,1.1264,1.117,1.132,1.1489,1.1776,1.2515,1.2839,1.2731,1.2791,1.2484,1.1809,1.152,1.0996,1.0216,0.986,0.9562,0.9309,0.9166,0.9153,0.927,0.927,0.9426,0.979,1.0092,1.0694,1.1519,1.1906,1.236,1.2942,1.2978,1.3039,1.3128,1.331,1.3421,1.3491,1.3479,1.3503,1.3525,1.3503,1.3621,1.3953,1.4035,1.4268,1.474,1.5762,1.643,1.6585,1.716,1.7585,1.7683,1.7314,1.6789,1.6366,1.5968,1.5459,1.4809,1.4586,1.4243,1.3586,1.2909,1.2543,1.2481,1.222,1.2673,1.3715,1.3662,1.3821,1.4327,1.45,1.45,1.45,1.45,1.4485,1.4441,1.4154,1.3905,1.3905,1.3791,1.3761,1.3905,1.4267,1.4485,1.447,1.3806,1.3145,1.2986,1.2097,1.1226,1.1273,1.16,1.1733,0.743,0.7258,0.7116,0.6897,0.6634,0.6729,0.6664,0.6505,0.6477,0.6452,0.6416,0.656,0.6712,0.6954,0.7744,0.864,0.948,1.0291,1.0998,1.1545,1.1526,1.1327,1.1092,1.099,1.0784,1.055,1.0689,1.0916,1.1248,1.1669,1.1997,1.2045,1.2204,1.1931,1.1298,1.0956,1.0434,0.9747,0.9502,0.9185,0.8883,0.8877,0.9021,0.9133,0.9146,0.9211,0.9348,0.9769,1.0256,1.0909,1.1385,1.1955,1.2627,1.2688,1.2808,1.3085,1.3236,1.3312,1.335,1.3338,1.3386,1.3479,1.3397,1.3563,1.3953,1.4106,1.4117,1.4139,1.4487,1.4956,1.5591,1.6034,1.6375,1.6579,1.6179,1.5833,1.5638,1.5387,1.5032,1.4688,1.4541,1.4252,1.3595,1.2948,1.2558,1.2741,1.2802,1.3,1.3586,1.3797,1.3926,1.4198,1.4342,1.45,1.45,1.45,1.447,1.4169,1.3776,1.3496,1.3344,1.3161,1.3267,1.37,1.4154,1.4396,1.4357,1.389,1.2963,1.2297,1.1514,1.0958,1.1304,1.1686,1.2197,0.7495,0.7439,0.7285,0.7143,0.7135,0.7027,0.6864,0.6701,0.6676,0.6583,0.6424,0.6416,0.6531,0.6818,0.8334,0.9212,0.9516,1.0739,1.1435,1.1562,1.1298,1.1129,1.1085,1.077,1.0477,1.0309,1.074,1.1188,1.1467,1.1019,1.0748,1.09,1.1025,1.0747,1.0236,0.9862,0.9542,0.9391,0.9065,0.8831,0.8811,0.8791,0.887,0.9008,0.9002,0.9074,0.9211,0.9348,0.9705,1.0236,1.0451,1.1006,1.2014,1.2175,1.248,1.3012,1.3111,1.315,1.3194,1.323,1.323,1.3218,1.323,1.323,1.3362,1.3457,1.3505,1.3467,1.3568,1.4007,1.4816,1.5269,1.5455,1.5229,1.4695,1.4389,1.4265,1.4336,1.4305,1.4407,1.4359,1.407,1.3526,1.2894,1.2863,1.3206,1.3427,1.3662,1.4169,1.4387,1.4198,1.3881,1.4055,1.447,1.447,1.4327,1.41,1.3776,1.348,1.3184,1.2993,1.2872,1.31,1.342,1.3761,1.398,1.4109,1.3541,1.2428,1.1702,1.1264,1.1021,1.1764,1.2366,1.2894,0.692,0.7313,0.7215,0.7159,0.7076,0.7102,0.7043,0.6872,0.6741,0.6652,0.6604,0.6581,0.6646,0.6773,0.8015,0.8865,0.9334,0.9898,1.0654,1.1483,1.1467,1.1415,1.1379,1.107,1.0865,1.077,1.077,1.085,1.096,1.0987,1.0847,1.0528,1.0536,1.0278,0.9728,0.9424,0.9207,0.9025,0.8858,0.8791,0.8791,0.8791,0.8837,0.8857,0.887,0.8943,0.9061,0.9119,0.9458,1.0159,1.0251,1.0825,1.1968,1.2421,1.2713,1.2942,1.3039,1.3099,1.3128,1.3128,1.3142,1.3194,1.3166,1.3154,1.3194,1.3232,1.3266,1.3278,1.3278,1.3499,1.3658,1.3949,1.4055,1.4032,1.3743,1.3577,1.3717,1.3858,1.4004,1.4025,1.3652,1.3236,1.3381,1.2909,1.2787,1.3381,1.3851,1.4184,1.4372,1.4485,1.4228,1.37,1.3685,1.3692,1.323,1.3625,1.3685,1.3329,1.2971,1.2359,1.2004,1.1678,1.1763,1.2328,1.2857,1.3329,1.3359,1.3275,1.2174,1.2151,1.1647,1.1663,1.2458,1.3031,1.356,0.678,0.717,0.7266,0.7236,0.7165,0.7257,0.7208,0.7065,0.6868,0.6758,0.6707,0.6622,0.6593,0.6724,0.7391,0.8096,0.8844,0.9388,1.037,1.1514,1.1481,1.1437,1.1379,1.11,1.0946,1.0902,1.0646,1.0596,1.0821,1.0995,1.0845,1.0501,1.0329,1.0075,0.9676,0.9293,0.9011,0.8978,0.8871,0.8791,0.8791,0.8791,0.8791,0.8791,0.8791,0.8857,0.8929,0.8982,0.9243,0.9775,0.9917,1.0431,1.1447,1.2249,1.2639,1.2664,1.2893,1.3036,1.3036,1.3039,1.3077,1.3142,1.3101,1.3065,1.3154,1.3178,1.3178,1.3178,1.3166,1.314,1.3099,1.3058,1.3023,1.3139,1.2976,1.2942,1.3222,1.3511,1.3697,1.3669,1.3079,1.2908,1.326,1.2848,1.3009,1.3685,1.4243,1.4431,1.4228,1.4154,1.383,1.3086,1.3024,1.2841,1.2474,1.2574,1.2812,1.2543,1.2374,1.1717,1.124,1.0846,1.083,1.1334,1.1818,1.2328,1.2581,1.2627,1.2688,1.2734,1.2535,1.2343,1.3039,1.3674,1.4139,0.7187,0.7214,0.7422,0.7439,0.7415,0.7443,0.7374,0.7193,0.7039,0.6878,0.6735,0.6518,0.6437,0.6486,0.6757,0.7158,0.8027,0.9432,1.0541,1.129,1.1168,1.1082,1.1068,1.0872,1.0762,1.0733,1.0473,1.0687,1.1226,1.09,1.0702,1.0676,1.0227,1.0082,1.0242,0.9389,0.9032,0.918,0.8971,0.8798,0.8791,0.8791,0.8791,0.8791,0.8791,0.8824,0.8824,0.8929,0.9074,0.925,0.9387,0.9725,1.0557,1.1506,1.2092,1.2237,1.2603,1.2856,1.2915,1.2917,1.2988,1.3051,1.2978,1.2966,1.3063,1.3087,1.3087,1.3087,1.3099,1.3097,1.3061,1.2881,1.2708,1.2526,1.2494,1.2516,1.2759,1.3089,1.3383,1.3475,1.3046,1.2848,1.3161,1.2933,1.2993,1.3911,1.4303,1.4198,1.3761,1.3662,1.2979,1.2128,1.2089,1.2212,1.1833,1.1514,1.1654,1.1701,1.1608,1.1272,1.1012,1.0672,1.076,1.1178,1.1554,1.2035,1.205,1.2151,1.2612,1.2704,1.2704,1.3047,1.3743,1.435,1.4623,0.7055,0.708,0.7232,0.7305,0.7303,0.7431,0.7447,0.7366,0.7122,0.6955,0.6853,0.655,0.6404,0.6453,0.6609,0.7064,0.7756,0.8581,0.932,0.998,1.0381,1.0605,1.0722,1.1083,1.1298,1.126,1.1086,1.1157,1.1339,1.1001,1.0866,1.097,1.0486,1.018,1.0137,0.9548,0.9221,0.9092,0.8911,0.8791,0.8791,0.8798,0.8798,0.8791,0.8791,0.8831,0.8936,0.8897,0.8969,0.9178,0.925,0.9616,1.0365,1.1091,1.1656,1.2051,1.2237,1.2541,1.2856,1.2915,1.2917,1.2954,1.2917,1.2908,1.2964,1.2954,1.2966,1.2954,1.2976,1.2954,1.2939,1.2808,1.2668,1.2517,1.2382,1.2417,1.2755,1.3291,1.3811,1.4049,1.3601,1.3351,1.3306,1.2902,1.2826,1.3595,1.3806,1.3662,1.3511,1.3344,1.2971,1.1864,1.188,1.1647,1.128,1.1068,1.113,1.1209,1.1138,1.1083,1.0823,1.0681,1.0776,1.0942,1.1327,1.1616,1.1616,1.1934,1.2489,1.297,1.3228,1.3803,1.4523,1.4902,1.5084,0.689,0.691,0.7104,0.7206,0.723,0.743,0.7499,0.7462,0.7198,0.7039,0.6939,0.6652,0.6481,0.6449,0.6531,0.6855,0.7305,0.7549,0.7918,0.856,0.9592,1.0044,1.0209,1.0848,1.1373,1.1552,1.1381,1.135,1.1451,1.1122,1.1028,1.1104,1.069,1.0332,1.0142,0.9687,0.9309,0.9103,0.8998,0.8944,0.8971,0.9126,0.9186,0.9146,0.9126,0.9146,0.9146,0.9017,0.9048,0.923,0.9302,0.9614,1.01,1.0613,1.1082,1.1435,1.1881,1.2249,1.2588,1.2783,1.2915,1.2915,1.2915,1.2915,1.2915,1.2915,1.2915,1.2915,1.2915,1.2949,1.3064,1.2944,1.2877,1.2973,1.2541,1.2516,1.289,1.3507,1.3876,1.3915,1.348,1.323,1.3009,1.2589,1.2443,1.2971,1.3139,1.2948,1.2872,1.2727,1.2066,1.153,1.1256,1.0996,1.0728,1.0656,1.0672,1.0735,1.0767,1.0807,1.0728,1.0649,1.0681,1.0713,1.0989,1.1663,1.1787,1.2289,1.2811,1.3243,1.381,1.4425,1.5015,1.5123,1.5274,0.6689,0.673,0.7023,0.7153,0.7173,0.737,0.7467,0.7446,0.7261,0.709,0.6954,0.6721,0.6545,0.6428,0.642,0.6548,0.6691,0.6823,0.6937,0.7456,0.849,0.9358,0.9837,1.0516,1.1099,1.1498,1.1404,1.1334,1.1373,1.1169,1.1115,1.1077,1.072,1.0503,1.0265,0.9799,0.9466,0.9341,0.9282,0.9259,0.9258,0.962,0.9806,0.9706,0.9701,0.9646,0.9529,0.943,0.9361,0.9414,0.9504,0.9601,0.9705,1.0087,1.0382,1.0549,1.1444,1.1915,1.2184,1.2529,1.2832,1.2881,1.2915,1.2915,1.2915,1.2983,1.3023,1.3023,1.2981,1.3137,1.3399,1.3186,1.3207,1.3452,1.2957,1.2839,1.3259,1.3699,1.3923,1.3635,1.3024,1.2604,1.2696,1.2097,1.1996,1.2358,1.2527,1.2212,1.1942,1.1779,1.1303,1.0996,1.0814,1.0735,1.0586,1.0586,1.0624,1.0624,1.0624,1.0649,1.0681,1.0634,1.0634,1.0649,1.076,1.1452,1.2097,1.2535,1.3221,1.3914,1.4469,1.502,1.5235,1.5298,1.5347,0.6489,0.6509,0.6737,0.6834,0.6883,0.7141,0.7274,0.7269,0.7125,0.7041,0.6944,0.664,0.6464,0.6404,0.6404,0.6437,0.6515,0.6642,0.6724,0.6839,0.7407,0.8812,1.0107,1.0942,1.1365,1.156,1.142,1.1373,1.1482,1.124,1.1111,1.1088,1.0672,1.0472,1.0415,1.0044,0.9855,0.9834,0.9769,0.9702,0.973,0.9841,0.9962,1.0063,1.0079,1.0101,1.0123,1.0207,0.9939,0.9436,0.953,0.9614,0.9649,0.9779,1.0019,1.037,1.0702,1.1284,1.194,1.2249,1.2505,1.2856,1.2915,1.2915,1.2913,1.3186,1.3311,1.334,1.3362,1.3506,1.3717,1.3298,1.3049,1.3114,1.3296,1.3502,1.3718,1.4084,1.4292,1.4166,1.3601,1.326,1.291,1.2282,1.1756,1.2158,1.2043,1.1732,1.1452,1.1381,1.113,1.0823,1.0649,1.0618,1.0586,1.0586,1.0586,1.0586,1.0609,1.0609,1.0618,1.0602,1.0665,1.0728,1.0744,1.1233,1.1996,1.2619,1.35,1.4386,1.4868,1.5245,1.5254,1.5298,1.5362,0.6404,0.642,0.6619,0.6709,0.6742,0.7007,0.711,0.7108,0.7041,0.6956,0.6841,0.6631,0.6485,0.6404,0.6404,0.6469,0.6527,0.6659,0.6708,0.6818,0.7337,0.8522,0.9837,1.0573,1.1021,1.1591,1.1482,1.141,1.1391,1.1332,1.1189,1.0967,1.0871,1.0762,1.0573,1.0365,1.0144,1.012,1.0101,1.0096,1.0111,1.0375,1.0512,1.0581,1.0578,1.0581,1.0523,1.0537,1.0355,1.0009,0.9977,0.9972,0.9833,0.9806,0.9905,1.0105,1.0459,1.1074,1.1644,1.2113,1.2566,1.2832,1.2915,1.2991,1.3135,1.3389,1.3522,1.3727,1.3747,1.3945,1.415,1.3825,1.3516,1.3463,1.382,1.408,1.3933,1.4255,1.4464,1.4342,1.3926,1.3351,1.3139,1.2143,1.1709,1.1585,1.1343,1.1178,1.1068,1.1115,1.1146,1.0926,1.0728,1.0728,1.0681,1.0665,1.0618,1.0618,1.0618,1.0618,1.0634,1.0665,1.0911,1.0989,1.0879,1.1186,1.2235,1.3083,1.3696,1.4451,1.4996,1.5264,1.523,1.5181,1.5274,0.6317,0.6416,0.6599,0.6677,0.6706,0.6882,0.6959,0.6977,0.6965,0.6865,0.6712,0.6681,0.653,0.6408,0.6404,0.6482,0.6638,0.6626,0.6691,0.69,0.7435,0.8398,0.947,0.9869,1.0589,1.1451,1.1591,1.1452,1.1349,1.1444,1.1209,1.0924,1.1187,1.1143,1.0785,1.0629,1.0481,1.0388,1.0451,1.051,1.059,1.0912,1.1097,1.1113,1.1109,1.1011,1.0836,1.0762,1.0704,1.0711,1.0653,1.0368,1.0133,1.0103,1.0022,0.9954,1.0549,1.107,1.1439,1.2261,1.2808,1.2878,1.2915,1.3079,1.3379,1.3561,1.3776,1.4143,1.4172,1.4214,1.4265,1.4435,1.4244,1.3917,1.419,1.4227,1.4121,1.4271,1.45,1.4455,1.3905,1.3245,1.2581,1.1926,1.1334,1.1139,1.0996,1.1178,1.124,1.1389,1.1374,1.1249,1.1068,1.0895,1.0839,1.0767,1.0681,1.0649,1.0649,1.0665,1.0728,1.0863,1.1217,1.1398,1.16,1.222,1.3213,1.3861,1.401,1.4198,1.454,1.4859,1.5074,1.5025,1.5045,0.593,0.6408,0.6444,0.646,0.6501,0.6668,0.6762,0.6771,0.6771,0.6743,0.6669,0.6538,0.6444,0.6404,0.6404,0.6432,0.6482,0.6486,0.6552,0.6741,0.6942,0.7999,0.9186,0.9869,1.0715,1.1435,1.1591,1.154,1.1474,1.1291,1.1136,1.1034,1.0931,1.0887,1.0989,1.0847,1.0869,1.0983,1.0966,1.0973,1.1035,1.1199,1.1373,1.1444,1.1464,1.1459,1.1423,1.1386,1.1401,1.1276,1.0902,1.0521,1.025,1.0155,1.017,1.0283,1.0445,1.1006,1.1744,1.2163,1.2468,1.2856,1.2952,1.3059,1.3477,1.3835,1.4153,1.4504,1.4556,1.4308,1.3945,1.4092,1.4122,1.4022,1.4039,1.419,1.4317,1.4451,1.4491,1.4372,1.395,1.3267,1.2604,1.1996,1.1405,1.0854,1.0917,1.124,1.1483,1.1694,1.1709,1.1678,1.1694,1.1569,1.1343,1.1209,1.0996,1.0839,1.0791,1.076,1.0823,1.1217,1.1624,1.2066,1.2466,1.3167,1.3719,1.3599,1.3554,1.381,1.4028,1.4177,1.435,1.4499,1.4809,0.5593,0.5963,0.6268,0.6404,0.642,0.6505,0.6558,0.6554,0.6571,0.6571,0.6555,0.6436,0.6408,0.6404,0.6404,0.6404,0.6404,0.6404,0.6453,0.6597,0.6843,0.7744,0.8956,0.9799,1.0525,1.1412,1.1591,1.1525,1.1379,1.1342,1.1188,1.0931,1.096,1.11,1.1106,1.1049,1.1116,1.123,1.1225,1.1225,1.1303,1.1397,1.1466,1.1576,1.1591,1.1591,1.1585,1.1592,1.1584,1.1503,1.1254,1.0924,1.0638,1.0572,1.0616,1.0635,1.092,1.1285,1.195,1.2335,1.2615,1.2866,1.3059,1.3376,1.3769,1.4176,1.4564,1.4857,1.4859,1.4578,1.3914,1.4084,1.4156,1.3999,1.4095,1.4268,1.4445,1.45,1.45,1.4441,1.4198,1.3685,1.3063,1.2351,1.2012,1.1655,1.1249,1.153,1.1981,1.2182,1.2259,1.2289,1.2358,1.2266,1.1965,1.1709,1.1381,1.1178,1.0996,1.0949,1.0942,1.1507,1.2128,1.2451,1.2696,1.3115,1.3532,1.3336,1.323,1.3532,1.3653,1.3541,1.3677,1.4148,1.4469,0.5295,0.5461,0.6115,0.6404,0.6404,0.6408,0.6416,0.6408,0.6404,0.6424,0.6408,0.6404,0.6404,0.6404,0.6404,0.6404,0.6404,0.6404,0.6437,0.6469,0.6766,0.7619,0.864,0.9234,0.9932,1.1193,1.1513,1.1437,1.1379,1.1364,1.1202,1.0872,1.1157,1.1266,1.1162,1.12,1.1281,1.1365,1.131,1.1318,1.1381,1.1506,1.1576,1.1591,1.1591,1.1591,1.1591,1.1591,1.1591,1.1591,1.1591,1.1445,1.1261,1.1108,1.1133,1.1016,1.1394,1.1809,1.2258,1.2624,1.2878,1.2913,1.3201,1.3567,1.3945,1.4252,1.4597,1.4916,1.4998,1.4892,1.4358,1.4391,1.4355,1.4206,1.4352,1.4464,1.45,1.45,1.45,1.4485,1.4357,1.401,1.3526,1.2917,1.2711,1.2458,1.2043,1.1911,1.2397,1.2803,1.2995,1.3123,1.326,1.307,1.2765,1.2004,1.1709,1.1499,1.1272,1.113,1.1099,1.1514,1.2035,1.2466,1.2795,1.3154,1.323,1.3009,1.3024,1.329,1.3117,1.2796,1.3177,1.3833,1.4088,0.4848,0.5461,0.6115,0.6404,0.6404,0.6404,0.64,0.6404,0.6391,0.64,0.6391,0.64,0.6391,0.6395,0.6404,0.6404,0.6404,0.6404,0.64,0.6486,0.6766,0.7461,0.8194,0.8646,0.9224,0.9974,1.0872,1.1447,1.1376,1.129,1.1244,1.1143,1.107,1.1078,1.1228,1.121,1.1326,1.1482,1.1404,1.1397,1.1513,1.156,1.1591,1.1591,1.1576,1.156,1.1576,1.1591,1.1591,1.1591,1.1591,1.1555,1.1452,1.1254,1.1278,1.1494,1.1658,1.2018,1.2557,1.2793,1.2903,1.2937,1.3113,1.331,1.3596,1.3874,1.4375,1.4694,1.4964,1.4977,1.487,1.4708,1.4658,1.4567,1.4483,1.45,1.45,1.45,1.45,1.45,1.4431,1.4333,1.3836,1.3427,1.3176,1.3024,1.2841,1.2819,1.3193,1.3657,1.4039,1.4156,1.4243,1.3941,1.3593,1.2619,1.1973,1.1787,1.1554,1.1287,1.131,1.1482,1.1848,1.2205,1.2604,1.2956,1.2887,1.2665,1.2458,1.2444,1.222,1.2011,1.2536,1.3123,1.3647,0.45,0.4934,0.5951,0.6404,0.6404,0.6404,0.6343,0.6298,0.629,0.6241,0.6193,0.6249,0.6294,0.6302,0.6371,0.6404,0.6404,0.6404,0.6449,0.6576,0.6827,0.733,0.8015,0.8355,0.8887,0.9614,1.051,1.1021,1.1076,1.1298,1.1345,1.1388,1.1277,1.1306,1.1407,1.1428,1.1435,1.156,1.1498,1.1482,1.1591,1.1591,1.1599,1.1576,1.1482,1.1451,1.1451,1.1444,1.1444,1.1466,1.1544,1.1591,1.1555,1.1507,1.1495,1.1767,1.1891,1.214,1.2635,1.2793,1.2929,1.303,1.3192,1.3394,1.3661,1.4021,1.4385,1.4758,1.4902,1.5009,1.4976,1.4804,1.473,1.4686,1.4586,1.4515,1.45,1.45,1.45,1.45,1.447,1.4372,1.4175,1.3836,1.3616,1.3526,1.3526,1.3703,1.3946,1.43,1.4698,1.4692,1.4658,1.436,1.3975,1.3207,1.2367,1.2111,1.18,1.1533,1.1457,1.1589,1.1668,1.1864,1.2259,1.2597,1.2558,1.232,1.1965,1.1677,1.174,1.184,1.2019,1.2397,1.3125,0.4301,0.442,0.5815,0.6404,0.64,0.6379,0.6314,0.6219,0.6154,0.6061,0.5936,0.6061,0.6163,0.6236,0.6339,0.6404,0.6404,0.6404,0.6482,0.6613,0.6811,0.7314,0.7798,0.8215,0.8501,0.8855,0.9646,1.024,1.0706,1.1243,1.153,1.1483,1.1522,1.1544,1.1513,1.1435,1.1506,1.1529,1.1505,1.1505,1.1505,1.154,1.1549,1.1512,1.1326,1.1279,1.1326,1.1318,1.135,1.1412,1.1506,1.1591,1.1591,1.1591,1.1736,1.1988,1.2153,1.2346,1.2685,1.281,1.3,1.3083,1.3286,1.3458,1.3657,1.4034,1.4643,1.5004,1.5108,1.5088,1.5103,1.4893,1.4804,1.4754,1.463,1.45,1.45,1.45,1.45,1.45,1.45,1.4426,1.4273,1.4228,1.3995,1.3995,1.398,1.4178,1.442,1.4698,1.4977,1.4979,1.4884,1.4647,1.4242,1.3733,1.3007,1.2523,1.2083,1.167,1.1629,1.1649,1.1705,1.173,1.1732,1.2004,1.1996,1.2027,1.1786,1.1638,1.1607,1.1669,1.1833,1.2506,1.3358,0.4301,0.4436,0.5798,0.6404,0.6379,0.6294,0.622,0.6171,0.6036,0.5943,0.5843,0.5908,0.6029,0.6188,0.6339,0.6408,0.6404,0.6404,0.6453,0.6585,0.6798,0.7012,0.7188,0.7461,0.7766,0.8134,0.8603,0.9422,1.0225,1.1068,1.1428,1.1318,1.135,1.1334,1.1365,1.1326,1.1216,1.1303,1.1232,1.1169,1.122,1.1379,1.1353,1.1233,1.1153,1.1185,1.1279,1.1303,1.1357,1.1506,1.156,1.1591,1.1591,1.1591,1.1911,1.2191,1.239,1.2532,1.3117,1.3193,1.3142,1.3223,1.3315,1.3237,1.3585,1.3896,1.4421,1.4824,1.5032,1.521,1.5254,1.5093,1.5005,1.4852,1.469,1.4551,1.4491,1.45,1.45,1.45,1.45,1.45,1.4426,1.4417,1.4417,1.4431,1.4477,1.4669,1.4891,1.5145,1.5519,1.5604,1.5362,1.5093,1.444,1.3946,1.3351,1.283,1.2381,1.1882,1.1878,1.1853,1.1679,1.1689,1.1628,1.1599,1.1724,1.174,1.1622,1.1693,1.1833,1.174,1.1622,1.2522,1.3756,0.4301,0.4403,0.5398,0.6066,0.6379,0.6331,0.6196,0.6056,0.5936,0.5774,0.5622,0.5697,0.5895,0.6163,0.6289,0.6339,0.64,0.642,0.6535,0.6667,0.6848,0.7024,0.7265,0.7412,0.751,0.7668,0.815,0.8694,0.9592,1.0383,1.0926,1.0926,1.124,1.1404,1.124,1.1232,1.1216,1.12,1.1138,1.1113,1.1126,1.1194,1.1247,1.1192,1.1122,1.1169,1.1256,1.1303,1.1334,1.1459,1.1513,1.1591,1.1591,1.1685,1.1981,1.2936,1.2488,1.2595,1.3179,1.3355,1.3437,1.3604,1.3774,1.4099,1.4175,1.4288,1.4575,1.5103,1.5245,1.5352,1.5362,1.5225,1.5103,1.4941,1.4749,1.461,1.4521,1.45,1.45,1.45,1.45,1.45,1.4519,1.4549,1.4617,1.476,1.4842,1.5041,1.5289,1.5586,1.5983,1.6416,1.6055,1.5623,1.4807,1.4099,1.3373,1.2879,1.2584,1.2213,1.2184,1.2107,1.1913,1.1744,1.17,1.1672,1.1628,1.166,1.1729,1.1918,1.2112,1.212,1.2243,1.3508,1.4732,0.4137,0.4386,0.5282,0.593,0.6379,0.6371,0.6188,0.5904,0.5846,0.563,0.5444,0.5563,0.5863,0.6109,0.6228,0.6351,0.6498,0.6465,0.6634,0.6831,0.6991,0.7134,0.7314,0.7444,0.751,0.751,0.7891,0.8183,0.8571,0.939,1.0199,1.031,1.1099,1.1209,1.1108,1.1068,1.1075,1.0956,1.103,1.1023,1.099,1.103,1.1073,1.1071,1.1059,1.1059,1.1216,1.1225,1.124,1.1435,1.1529,1.1591,1.1591,1.1654,1.2066,1.2705,1.2435,1.2428,1.3013,1.3408,1.3725,1.3964,1.4222,1.4425,1.483,1.4902,1.4965,1.5322,1.5366,1.5396,1.5376,1.5269,1.5132,1.4985,1.4823,1.4675,1.4551,1.4515,1.45,1.45,1.45,1.45,1.4537,1.4628,1.4799,1.5029,1.5218,1.5409,1.5775,1.6139,1.6564,1.7033,1.6725,1.6142,1.5146,1.4327,1.3565,1.2961,1.2678,1.2509,1.2451,1.229,1.2087,1.1941,1.1823,1.1831,1.1853,1.1861,1.1915,1.2235,1.2537,1.2722,1.3196,1.442,1.5532,0.3682,0.4403,0.5749,0.6326,0.64,0.6265,0.6105,0.5856,0.5705,0.551,0.5371,0.5658,0.5838,0.6,0.6236,0.6453,0.6675,0.6679,0.6778,0.6925,0.7106,0.7204,0.7314,0.7412,0.7493,0.7493,0.7619,0.7489,0.7668,0.8732,0.9326,0.9709,1.0699,1.0739,1.0692,1.0721,1.0823,1.0769,1.0873,1.0863,1.0816,1.0834,1.0888,1.0744,1.0697,1.0776,1.1083,1.1138,1.1279,1.1529,1.1576,1.1591,1.1591,1.1591,1.2035,1.2401,1.2279,1.2375,1.2942,1.3385,1.3727,1.3909,1.4228,1.4672,1.5093,1.5058,1.5161,1.5366,1.541,1.542,1.5376,1.5284,1.5176,1.5015,1.4852,1.469,1.458,1.4515,1.45,1.45,1.45,1.45,1.4619,1.4735,1.4992,1.523,1.5755,1.5956,1.6534,1.6938,1.7254,1.7523,1.7321,1.6647,1.5525,1.474,1.4191,1.346,1.2949,1.2782,1.2658,1.2475,1.2341,1.2122,1.2028,1.2056,1.214,1.2288,1.2483,1.2727,1.301,1.3418,1.3967,1.4957,1.6052,0.4306,0.5041,0.5922,0.6282,0.6278,0.6224,0.6012,0.5734,0.564,0.5486,0.5309,0.5478,0.567,0.5914,0.6105,0.6392,0.6678,0.679,0.6925,0.7057,0.7167,0.7269,0.7347,0.7347,0.7375,0.7407,0.7281,0.7204,0.7379,0.8183,0.8037,0.8613,1.0075,1.0415,1.0399,1.0405,1.0602,1.0638,1.0687,1.068,1.0667,1.0676,1.0732,1.0733,1.0728,1.0895,1.1162,1.1216,1.1388,1.1529,1.1591,1.1591,1.1591,1.1591,1.1888,1.2304,1.2067,1.2348,1.2947,1.335,1.3696,1.469,1.5077,1.534,1.5459,1.5476,1.5407,1.5439,1.542,1.542,1.5391,1.5347,1.5254,1.5073,1.4897,1.4734,1.461,1.4545,1.45,1.45,1.45,1.45,1.4665,1.4845,1.5148,1.546,1.6021,1.6568,1.7082,1.7516,1.776,1.7913,1.7754,1.6872,1.5718,1.5223,1.4822,1.3991,1.317,1.3045,1.2906,1.2845,1.2699,1.2443,1.2246,1.2297,1.247,1.279,1.311,1.3493,1.3917,1.4372,1.4982,1.5636,1.6448,0.4568,0.5071,0.5855,0.6191,0.6187,0.6122,0.5926,0.5634,0.5583,0.5486,0.5323,0.5371,0.5527,0.5819,0.6106,0.6355,0.6702,0.6898,0.7092,0.7199,0.7265,0.7302,0.7297,0.7248,0.7155,0.7232,0.7106,0.6975,0.7052,0.7631,0.7484,0.7858,0.9112,0.9805,0.9821,1.0209,1.0586,1.0586,1.0586,1.0586,1.0586,1.0609,1.0638,1.0713,1.0713,1.0886,1.1122,1.1232,1.1357,1.1513,1.1591,1.1591,1.1591,1.1654,1.1825,1.1974,1.2103,1.2237,1.2708,1.3409,1.3851,1.4831,1.5368,1.5662,1.5835,1.5774,1.5584,1.5429,1.542,1.542,1.542,1.5376,1.5298,1.5117,1.5,1.4838,1.466,1.4565,1.453,1.45,1.4509,1.4564,1.5032,1.5302,1.5716,1.6063,1.6557,1.7017,1.7362,1.775,1.8027,1.8134,1.8142,1.7052,1.5876,1.5523,1.5032,1.3958,1.3316,1.3279,1.3167,1.3123,1.2925,1.2567,1.2467,1.2548,1.2841,1.3211,1.3764,1.4345,1.4779,1.5212,1.593,1.6538,1.6814,0.4246,0.4222,0.5608,0.6191,0.6138,0.5972,0.5778,0.5577,0.5569,0.546,0.5325,0.5452,0.5565,0.5735,0.6104,0.6425,0.6666,0.6976,0.7202,0.7261,0.719,0.7199,0.712,0.7018,0.6963,0.6913,0.6848,0.6782,0.6773,0.7239,0.7048,0.7342,0.863,0.9598,0.8962,0.9986,1.0561,1.0586,1.0586,1.0586,1.0586,1.0586,1.0609,1.0649,1.0665,1.0839,1.0911,1.0989,1.1115,1.1326,1.1388,1.1451,1.1576,1.1591,1.1669,1.1678,1.1671,1.1702,1.1826,1.3163,1.4139,1.4843,1.533,1.5608,1.579,1.5759,1.5604,1.5449,1.542,1.542,1.542,1.5405,1.5298,1.5191,1.5059,1.4911,1.4719,1.4565,1.453,1.4647,1.4619,1.4698,1.5293,1.5833,1.6311,1.6721,1.7166,1.748,1.7672,1.8022,1.831,1.8252,1.8269,1.7271,1.6224,1.5852,1.5217,1.4088,1.3448,1.3389,1.336,1.3316,1.306,1.2701,1.2782,1.2972,1.3308,1.3666,1.4208,1.4774,1.5517,1.6085,1.6821,1.7199,1.7223,0.5084,0.5486,0.5722,0.5806,0.5783,0.573,0.5589,0.543,0.5409,0.5367,0.5317,0.5374,0.549,0.5704,0.5989,0.6328,0.6532,0.6829,0.7062,0.6983,0.6964,0.6933,0.686,0.6836,0.6806,0.6811,0.6733,0.6663,0.6724,0.6999,0.7146,0.7472,0.8646,0.9598,0.9961,1.0498,1.0586,1.0586,1.0586,1.0586,1.0586,1.0609,1.0649,1.0713,1.0728,1.0721,1.0636,1.0645,1.0762,1.0942,1.0973,1.1146,1.1475,1.1591,1.1591,1.1591,1.1607,1.188,1.2366,1.3357,1.4054,1.4711,1.536,1.5688,1.5793,1.5745,1.559,1.5464,1.5425,1.5425,1.542,1.542,1.5342,1.5205,1.5073,1.4902,1.4725,1.4595,1.4561,1.4821,1.4912,1.5326,1.5843,1.6281,1.6752,1.711,1.751,1.7584,1.7733,1.8283,1.8654,1.8428,1.8175,1.7284,1.6532,1.5956,1.5073,1.3887,1.3477,1.3462,1.3448,1.3433,1.3265,1.295,1.3177,1.3447,1.3491,1.3684,1.4468,1.5151,1.5653,1.6337,1.7003,1.7137,1.703,0.4777,0.5304,0.5309,0.5371,0.5474,0.5494,0.5426,0.5323,0.5315,0.5315,0.5315,0.5305,0.5367,0.558,0.587,0.613,0.6307,0.6575,0.6797,0.6688,0.6695,0.6673,0.6625,0.6606,0.6629,0.6667,0.6585,0.6498,0.6613,0.6741,0.7358,0.828,0.9069,0.9795,1.0301,1.0555,1.0586,1.0586,1.0586,1.0586,1.0609,1.064,1.0697,1.0791,1.0791,1.0737,1.0433,1.0322,1.0322,1.0415,1.0579,1.0832,1.1341,1.1591,1.1591,1.1591,1.1654,1.2089,1.2902,1.3461,1.4207,1.4943,1.5613,1.585,1.5759,1.5662,1.5536,1.5439,1.5464,1.5512,1.5537,1.5522,1.5566,1.5454,1.5297,1.5125,1.4931,1.481,1.4839,1.5105,1.5386,1.5857,1.6366,1.6773,1.7177,1.7506,1.7811,1.7811,1.7784,1.8233,1.8637,1.8411,1.8039,1.7225,1.6489,1.5877,1.4895,1.3702,1.3492,1.3492,1.3484,1.3455,1.3331,1.3206,1.325,1.3275,1.3324,1.3646,1.4322,1.4859,1.5323,1.6114,1.7051,1.7013,1.6722,0.3393,0.3797,0.4439,0.4972,0.5276,0.5321,0.5305,0.5315,0.5329,0.5329,0.5315,0.5329,0.5359,0.5387,0.5712,0.5942,0.6078,0.6296,0.6415,0.6511,0.6429,0.6378,0.6371,0.6395,0.6461,0.6441,0.6437,0.6515,0.6552,0.7391,0.8361,0.9102,0.9534,1.0072,1.0444,1.0586,1.0586,1.0586,1.0586,1.0618,1.0656,1.0713,1.0807,1.087,1.0863,1.0589,1.0297,1.0069,1.0107,1.0209,1.039,1.0863,1.1279,1.1576,1.1591,1.1607,1.1607,1.2405,1.3252,1.3786,1.4505,1.5245,1.5575,1.5774,1.5774,1.5672,1.558,1.5629,1.5712,1.5742,1.5766,1.5889,1.6003,1.5856,1.5689,1.5486,1.5256,1.5192,1.525,1.5449,1.5705,1.6145,1.6719,1.7184,1.7377,1.7624,1.7837,1.7923,1.7913,1.793,1.8219,1.8168,1.7733,1.7157,1.6446,1.5666,1.4806,1.3648,1.351,1.3492,1.3492,1.3492,1.3418,1.3309,1.3152,1.3158,1.331,1.3603,1.404,1.4559,1.5028,1.5826,1.6755,1.6483,1.6209,0.4295,0.4465,0.4921,0.5189,0.5291,0.5315,0.5315,0.5329,0.543,0.5448,0.5315,0.5444,0.5421,0.5331,0.5577,0.5686,0.581,0.5914,0.5947,0.5995,0.6102,0.6049,0.6096,0.6212,0.6302,0.6363,0.6445,0.6679,0.7358,0.8215,0.8893,0.947,0.9955,1.0349,1.0444,1.0586,1.0586,1.0586,1.0586,1.0634,1.0697,1.076,1.0902,1.1021,1.0715,1.0361,0.9916,0.9416,0.932,0.9214,0.9614,1.0123,1.0721,1.1279,1.1607,1.1669,1.2011,1.2665,1.3537,1.4168,1.4809,1.5439,1.5731,1.5701,1.573,1.575,1.5711,1.578,1.6003,1.6122,1.6272,1.6417,1.6502,1.6427,1.624,1.6047,1.5819,1.5713,1.5767,1.5949,1.6193,1.6483,1.706,1.7288,1.7489,1.7699,1.7864,1.7957,1.8008,1.8008,1.7828,1.7777,1.7442,1.6872,1.6062,1.526,1.4492,1.3757,1.3612,1.3492,1.3492,1.3492,1.3492,1.3433,1.3298,1.3341,1.3443,1.3709,1.3884,1.4302,1.4809,1.5623,1.6228,1.6009,1.5912,0.428,0.4338,0.4782,0.5101,0.5287,0.5315,0.5315,0.5325,0.5448,0.5393,0.5315,0.5407,0.5421,0.5323,0.543,0.5525,0.5606,0.5624,0.5698,0.5876,0.5831,0.5895,0.5972,0.6127,0.6266,0.6335,0.6482,0.6757,0.7679,0.8726,0.9486,0.9566,1.0231,1.031,1.0295,1.0396,1.0586,1.0586,1.0602,1.0634,1.0697,1.0769,1.0973,1.1052,1.0598,1.0059,0.9582,0.9032,0.8919,0.8989,0.955,1.0225,1.0816,1.1404,1.1591,1.1654,1.1848,1.2596,1.3433,1.3959,1.4756,1.5493,1.5889,1.5999,1.5919,1.5879,1.5843,1.5882,1.6271,1.6573,1.6789,1.6961,1.702,1.7051,1.6853,1.6648,1.6472,1.6288,1.6377,1.6519,1.6738,1.6961,1.7201,1.7375,1.7615,1.7889,1.7991,1.7974,1.8008,1.8008,1.7691,1.7425,1.7062,1.6585,1.5719,1.4905,1.4294,1.3757,1.3575,1.3492,1.3492,1.3492,1.3492,1.3492,1.347,1.3459,1.3403,1.3491,1.3692,1.4075,1.4395,1.4954,1.5509,1.5716,1.5717,0.3744,0.3769,0.4322,0.4908,0.5274,0.5315,0.5315,0.5315,0.5325,0.5315,0.5315,0.5338,0.5338,0.5305,0.5351,0.5416,0.5482,0.549,0.5614,0.5879,0.5872,0.59,0.6046,0.6209,0.627,0.6282,0.6468,0.6872,0.7782,0.8796,0.955,0.9604,1.0247,1.0396,1.0088,1.0396,1.0586,1.0586,1.0609,1.064,1.0665,1.076,1.0879,1.098,1.0589,1.0085,0.9725,0.9518,0.9502,0.9716,1.0114,1.0753,1.1279,1.1544,1.1591,1.1709,1.1833,1.2528,1.3312,1.3885,1.4575,1.5369,1.6054,1.6277,1.6257,1.6258,1.6282,1.6372,1.6749,1.7011,1.7213,1.7464,1.7586,1.754,1.7411,1.7119,1.6815,1.6682,1.6644,1.6759,1.6815,1.7047,1.7202,1.7358,1.7529,1.794,1.8093,1.8008,1.7879,1.7862,1.7449,1.6975,1.635,1.586,1.5225,1.4502,1.414,1.3757,1.3539,1.3492,1.3492,1.3492,1.3492,1.3492,1.3484,1.3353,1.3301,1.3422,1.3517,1.3634,1.3941,1.4245,1.4718,1.5408,1.588,0.4299,0.4336,0.4894,0.5187,0.5287,0.5315,0.5301,0.5315,0.5315,0.5315,0.5329,0.5434,0.5434,0.5315,0.5315,0.5359,0.5371,0.55,0.5596,0.5757,0.585,0.6008,0.6105,0.6213,0.6282,0.6351,0.6564,0.7068,0.8053,0.8989,0.9795,1.0222,1.0539,1.031,1.0056,1.0428,1.0507,1.046,1.0593,1.064,1.0719,1.0791,1.0879,1.0863,1.0566,1.0288,0.9961,0.9738,0.9604,0.9598,1.0161,1.0832,1.1529,1.1576,1.1591,1.1669,1.1965,1.2604,1.3307,1.3976,1.4739,1.5496,1.6171,1.6463,1.6644,1.6761,1.6873,1.7014,1.7166,1.7398,1.761,1.7863,1.8065,1.7999,1.7916,1.7534,1.7159,1.7018,1.69,1.6887,1.6899,1.7012,1.7168,1.734,1.7512,1.7718,1.7923,1.7906,1.7613,1.7459,1.6932,1.6367,1.5482,1.4914,1.4448,1.4132,1.3768,1.3575,1.3375,1.3401,1.3481,1.3455,1.3419,1.3473,1.3462,1.3375,1.3353,1.3426,1.3499,1.3528,1.3689,1.4059,1.5034,1.5836,1.6299,0.4491,0.4532,0.4822,0.4946,0.4949,0.4949,0.5073,0.5287,0.5315,0.5315,0.5315,0.5407,0.5407,0.5315,0.5315,0.5323,0.5351,0.5521,0.5665,0.5781,0.5935,0.6065,0.6167,0.6249,0.6265,0.6371,0.6817,0.744,0.8183,0.9128,0.9875,0.9939,1.0034,1.0177,0.997,1.0018,1.0199,1.0104,1.038,1.0609,1.0713,1.0744,1.0791,1.0769,1.0541,1.0337,1.0451,1.0267,1.0344,1.0441,1.0965,1.1157,1.1572,1.1591,1.1591,1.1654,1.195,1.2528,1.3348,1.4106,1.4894,1.5689,1.6562,1.6955,1.7114,1.722,1.7223,1.7334,1.7374,1.7576,1.7732,1.7965,1.8125,1.8128,1.7993,1.7733,1.736,1.71,1.6983,1.6889,1.6908,1.6926,1.7081,1.7193,1.7348,1.7443,1.7649,1.7476,1.7226,1.6802,1.6315,1.5816,1.4968,1.434,1.3977,1.3695,1.3404,1.3266,1.3211,1.3309,1.3364,1.3364,1.3364,1.3437,1.3492,1.3477,1.3477,1.3473,1.352,1.3562,1.3711,1.3931,1.5045,1.6119,1.6604,0.4349,0.4391,0.4377,0.4446,0.4491,0.4491,0.4808,0.5242,0.5315,0.5315,0.5315,0.5315,0.5315,0.5315,0.5315,0.5331,0.5422,0.5624,0.5758,0.594,0.6146,0.6216,0.627,0.6339,0.6327,0.6505,0.688,0.7242,0.77,0.8775,0.9352,0.901,0.9234,0.9586,0.9154,0.924,0.9598,0.9763,1.0034,1.0412,1.0523,1.057,1.0602,1.0494,1.0396,1.0377,1.0705,1.1035,1.1246,1.1524,1.1744,1.1736,1.1693,1.1692,1.1635,1.1682,1.1654,1.2437,1.3342,1.3955,1.4901,1.5883,1.6815,1.7218,1.7272,1.7358,1.7366,1.7439,1.7484,1.7701,1.7873,1.7972,1.8127,1.8134,1.7991,1.782,1.7461,1.7116,1.6995,1.6891,1.6908,1.6908,1.6978,1.7089,1.7159,1.7254,1.7115,1.6872,1.655,1.5948,1.5393,1.5065,1.4555,1.3995,1.3619,1.3357,1.3156,1.3119,1.3119,1.3218,1.3273,1.3273,1.3328,1.3455,1.3492,1.351,1.3473,1.3437,1.3501,1.3643,1.3639,1.3898,1.4955,1.5972,1.6719,0.378,0.378,0.3766,0.4056,0.4449,0.4491,0.4798,0.5256,0.5315,0.5315,0.5315,0.5315,0.5315,0.5315,0.5315,0.5351,0.5478,0.5689,0.5924,0.615,0.6245,0.6318,0.6363,0.6379,0.6371,0.6535,0.6776,0.7116,0.7549,0.8544,0.9144,0.9005,0.9602,0.9554,0.8881,0.8967,0.908,0.9278,0.9598,0.997,1.0396,1.0412,1.0295,1.0367,1.0573,1.0712,1.0986,1.1477,1.1905,1.2229,1.2311,1.2149,1.1969,1.1848,1.1778,1.1726,1.1682,1.2484,1.3366,1.3976,1.491,1.585,1.6472,1.6391,1.6544,1.6784,1.6856,1.7052,1.725,1.7735,1.7924,1.7975,1.8076,1.7906,1.7752,1.7537,1.7262,1.702,1.683,1.6856,1.6908,1.6908,1.6926,1.6986,1.7038,1.7011,1.6785,1.6515,1.5895,1.5207,1.4537,1.4312,1.4068,1.3822,1.3492,1.3229,1.3028,1.301,1.2973,1.2991,1.3065,1.32,1.3273,1.3437,1.351,1.3535,1.3492,1.374,1.3703,1.3797,1.3587,1.3871,1.4898,1.5769,1.6463]},{"header":{"parameterUnit":"m.s-1","parameterCategory":1,"la1":31.0,"la2":29.5877,"lo1":-88.7671,"lo2":-86.6584,"dy":0.0162,"dx":0.0185,"nx":115,"ny":88,"refTime":"2023-09-19T06:00:00:Z","depth":0,"parameterNumber":3,"parameterNumberName":"V-component_of_WINDS"},"data":[0.0,0.0,0.0,0.0,0.0,0.0,0.0,0.0,0.0,0.0,0.0,0.0,0.0,0.0,0.0,0.0,0.0,0.0,0.0,0.0,0.0,0.0,0.0,0.0,0.0,0.0,0.0,0.0,0.0,0.0,0.0,0.0,0.0,0.0,0.0,0.0,0.0,0.0,0.0,0.0,0.0,0.0,0.0,0.0,0.0,0.0,0.0,0.0,0.0,0.0,0.0,0.0,0.0,0.0,0.0,0.0,0.0,0.0,0.0,0.0,0.0,0.0,0.0,0.0,0.0,0.0,0.0,0.0,0.0,0.0,0.0,0.0,0.0,0.0,0.0,0.0,0.0,0.0,0.0,0.0,0.0,0.0,0.0,0.0,0.0,0.0,0.0,0.0,0.0,0.0,0.0,0.0,0.0,0.0,0.0,0.0,0.0,0.0,0.0,0.0,0.0,0.0,0.0,0.0,0.0,0.0,0.0,0.0,0.0,0.0,0.0,0.0,0.0,0.0,0.0,0.0,0.0,0.0,0.0,0.0,0.0,0.0,0.0,0.0,0.0,0.0,0.0,0.0,0.0,0.0,0.0,0.0,0.0,0.0,0.0,0.0,0.0,0.0,0.0,0.0,0.0,0.0,0.0,0.0,0.0,0.0,0.0,0.0,0.0,0.0,0.0,0.0,0.0,0.0,0.0,0.0,0.0,0.0,0.0,0.0,0.0,0.0,0.0,0.0,0.0,0.0,0.0,0.0,0.0,0.0,0.0,0.0,0.0,0.0,0.0,0.0,0.0,0.0,0.0,0.0,0.0,0.0,0.0,0.0,0.0,0.0,0.0,0.0,0.0,0.0,0.0,0.0,0.0,0.0,0.0,0.0,0.0,0.0,0.0,0.0,0.0,0.0,0.0,0.0,0.0,0.0,0.0,0.0,0.0,0.0,0.0,0.0,0.0,0.0,0.0,0.0,0.0,0.0,0.0,0.0,0.0,0.0,0.0,0.0,0.0,0.0,0.0,0.0,0.0,0.0,0.0,0.0,0.0,0.0,0.0,0.0,0.0,0.0,0.0,0.0,0.0,0.0,0.0,0.0,0.0,0.0,0.0,0.0,0.0,0.0,0.0,0.0,0.0,0.0,0.0,0.0,0.0,0.0,0.0,0.0,0.0,0.0,0.0,0.0,0.0,0.0,0.0,0.0,0.0,0.0,0.0,0.0,0.0,0.0,0.0,0.0,0.0,0.0,0.0,0.0,0.0,0.0,0.0,0.0,0.0,0.0,0.0,0.0,0.0,0.0,0.0,0.0,0.0,0.0,0.0,0.0,0.0,0.0,0.0,0.0,0.0,0.0,0.0,0.0,0.0,0.0,0.0,0.0,0.0,0.0,0.0,0.0,0.0,0.0,0.0,0.0,0.0,0.0,0.0,0.0,0.0,0.0,0.0,0.0,0.0,0.0,0.0,0.0,0.0,0.0,0.0,0.0,0.0,0.0,0.0,0.0,0.0,0.0,0.0,0.0,0.0,0.0,0.0,0.0,0.0,0.0,0.0,0.0,0.0,0.0,0.0,0.0,0.0,0.0,0.0,0.0,0.0,0.0,0.0,0.0,0.0,0.0,0.0,0.0,0.0,0.0,0.0,0.0,0.0,0.0,0.0,0.0,0.0,0.0,0.0,0.0,0.0,0.0,0.0,0.0,0.0,0.0,0.0,0.0,0.0,0.0,0.0,0.0,0.0,0.0,0.0,0.0,0.0,0.0,0.0,0.0,0.0,0.0,0.0,0.0,0.0,0.0,0.0,0.0,0.0,0.0,0.0,0.0,0.0,0.0,0.0,0.0,0.0,0.0,0.0,0.0,0.0,0.0,0.0,0.0,0.0,0.0,0.0,0.0,0.0,0.0,0.0,0.0,0.0,0.0,0.0,0.0,0.0,0.0,0.0,0.0,0.0,0.0,0.0,0.0,0.0,0.0,0.0,0.0,0.0,0.0,0.0,0.0,0.0,0.0,0.0,0.0,0.0,0.0,0.0,0.0,0.0,0.0,0.0,0.0,0.0,0.0,0.0,0.0,0.0,0.0,0.0,0.0,0.0,0.0,0.0,0.0,0.0,0.0,0.0,0.0,0.0,0.0,0.0,0.0,0.0,0.0,0.0,0.0,0.0,0.0,0.0,0.0,0.0,0.0,0.0,0.0,0.0,0.0,0.0,0.0,0.0,0.0,0.0,0.0,0.0,0.0,0.0,0.0,0.0,0.0,0.0,0.0,0.0,0.0,0.0,0.0,0.0,0.0,0.0,0.0,0.0,0.0,0.0,0.0,0.0,0.0,0.0,0.0,0.0,0.0,0.0,0.0,0.0,0.0,0.0,0.0,0.0,0.0,0.0,0.0,0.0,0.0,0.0,0.0,0.0,0.0,0.0,0.0,0.0,0.0,0.0,0.0,0.0,0.0,0.0,0.0,0.0,0.0,0.0,0.0,0.0,0.0,0.0,0.0,0.0,0.0,0.0,0.0,0.0,0.0,0.0,0.0,0.0,0.0,0.0,0.0,0.0,0.0,0.0,0.0,0.0,0.0,0.0,0.0,0.0,0.0,0.0,0.0,0.0,0.0,0.0,0.0,0.0,0.0,0.0,0.0,0.0,0.0,0.0,0.0,0.0,0.0,0.0,0.0,0.0,0.0,0.0,0.0,0.0,0.0,0.0,0.0,0.0,0.0,0.0,0.0,0.0,0.0,0.0,0.0,0.0,0.0,0.0,0.0,0.0,0.0,0.0,0.0,0.0,0.0,0.0,0.0,0.0,0.0,0.0,0.0,0.0,0.0,0.0,0.0,0.0,0.0,0.0,0.0,0.0,0.0,0.0,0.0,0.0,0.0,0.0,0.0,0.0,0.0,0.0,0.0,0.0,0.0,0.0,0.0,0.0,0.0,0.0,0.0,0.0,0.0,0.0,0.0,0.0,0.0,0.0,0.0,0.0,0.0,0.0,0.0,0.0,0.0,0.0,0.0,0.0,0.0,0.0,0.0,0.0,0.0,0.0,0.0,0.0,0.0,0.0,0.0,0.0,0.0,0.0,0.0,0.0,0.0,0.0,0.0,0.0,0.0,0.0,0.0,0.0,0.0,0.0,0.0,0.0,0.0,0.0,0.0,0.0,0.0,0.0,0.0,0.0,0.0,0.0,0.0,0.0,0.0,0.0,0.0,0.0,0.0,0.0,0.0,0.0,0.0,0.0,0.0,0.0,0.0,0.0,0.0,0.0,0.0,0.0,0.0,0.0,0.0,0.0,0.0,0.0,0.0,0.0,0.0,0.0,0.0,0.0,0.0,0.0,0.0,0.0,0.0,0.0,0.0,0.0,0.0,0.0,0.0,0.0,0.0,0.0,0.0,0.0,0.0,0.0,0.0,0.0,0.0,0.0,0.0,0.0,0.0,0.0,0.0,0.0,0.0,0.0,0.0,0.0,0.0,0.0,0.0,0.0,0.0,0.0,0.0,0.0,0.0,0.0,0.0,0.0,0.0,0.0,0.0,0.0,0.0,0.0,0.0,0.0,0.0,0.0,0.0,0.0,0.0,0.0,0.0,0.0,0.0,0.0,0.0,0.0,0.0,0.0,0.0,0.0,0.0,0.0,0.0,0.0,0.0,0.0,0.0,0.0,0.0,0.0,0.0,0.0,0.0,0.0,0.0,0.0,0.0,0.0,0.0,0.0,0.0,0.0,0.0,0.0,0.0,0.0,0.0,0.0,0.0,0.0,0.0,0.0,0.0,0.0,0.0,0.0,0.0,0.0,0.0,0.0,0.0,0.0,0.0,0.0,0.0,0.0,0.0,0.0,0.0,0.0,0.0,0.0,0.0,0.0,0.0,0.0,0.0,0.0,0.0,0.0,0.0,0.0,0.0,0.0,0.0,0.0,0.0,0.0,0.0,0.0,0.0,0.0,0.0,0.0,0.0,0.0,0.0,0.0,0.0,0.0,0.0,0.0,0.0,0.0,0.0,0.0,0.0,0.0,0.0,0.0,0.0,0.0,0.0,0.0,0.0,0.0,0.0,0.0,0.0,0.0,0.0,0.0,0.0,0.0,0.0,0.0,0.0,0.0,0.0,0.0,0.0,0.0,0.0,0.0,0.0,0.0,0.0,0.0,0.0,0.0,0.0,0.0,0.0,0.0,0.0,0.0,0.0,0.0,0.0,0.0,0.0,0.0,0.0,0.0,0.0,0.0,0.0,0.0,0.0,0.0,0.0,0.0,0.0,0.0,0.0,0.0,0.0,0.0,0.0,0.0,0.0,0.5961,0.0,0.0,0.0,0.0,0.0,0.0,0.0,0.0,0.0,0.0,0.0,0.0,0.0,0.0,0.0,0.0,0.0,0.0,0.0,0.0,0.0,0.0,0.0,0.0,0.0,0.0,0.0,0.0,0.0,0.0,0.0,0.0,0.0,0.0,0.0,0.0,0.0,0.0,0.0,0.0,0.0,0.0,0.0,0.0,0.0,0.0,0.0,0.0,0.0,0.0,0.0,0.0,0.0,0.0,0.0,0.0,0.0,0.0,0.0,0.0,0.0,0.0,0.0,0.0,0.0,0.0,0.0,0.0,0.0,0.0,0.0,0.0,0.0,0.0,0.0,0.0,0.0,0.0,0.0,0.0,0.0,0.0,0.0,0.0,0.0,0.0,0.0,0.0,0.0,0.0,0.0,0.0,0.0,0.0,0.0,0.0,0.0,0.0,0.0,0.0,0.0,0.0,0.0,0.0,0.0,0.0,0.0,0.0,0.0,0.0,0.4755,0.4961,0.5141,0.5585,0.6319,0.0,0.0,0.0,0.0,0.0,0.0,0.0,0.0,0.0,0.0,0.0,0.0,0.0,0.0,0.0,0.0,0.0,0.0,0.0,0.0,0.0,0.0,0.0,0.0,0.0,0.0,0.0,0.0,0.0,0.0,0.0,0.0,0.0,0.0,0.0,0.0,0.0,0.0,0.0,0.0,0.0,0.0,0.0,0.0,0.0,0.0,0.0,0.0,0.0,0.0,0.0,0.0,0.0,0.0,0.0,0.0,0.0,0.0,0.0,0.0,0.0,0.0,0.0,0.0,0.0,0.0,0.0,0.0,0.0,0.0,0.0,0.0,0.0,0.0,0.0,0.0,0.0,0.0,0.0,0.0,0.0,0.0,0.0,0.0,0.0,0.0,0.0,0.0,0.0,0.0,0.0,0.0,0.0,0.0,0.0,0.0,0.0,0.0,0.0,0.0,0.0,0.0,0.0,0.0,0.0,0.0,0.0,0.0,0.0,0.0,0.0,0.0,0.5704,0.6326,0.7329,0.0,0.0,0.0,0.0,0.0,0.0,0.0,0.0,0.0,0.0,0.0,0.0,0.0,0.0,0.0,0.0,0.0,0.0,0.0,0.0,0.0,0.0,0.0,0.0,0.0,0.0,0.0,0.0,0.0,0.0,0.0,0.0,0.0,0.0,0.0,0.0,0.0,0.0,0.0,0.0,0.0,0.0,0.0,0.0,0.0,0.0,0.0,0.0,0.0,0.0,0.0,0.0,0.0,0.0,0.0,0.0,0.0,0.0,0.0,0.0,0.0,0.0,0.0,0.0,0.0,0.0,0.0,0.0,0.0,0.0,0.0,0.0,0.0,0.0,0.0,0.0,0.0,0.0,0.0,0.0,0.0,0.0,0.0,0.0,0.0,0.0,0.0,0.0,0.0,0.0,0.0,0.0,0.0,0.0,0.0,0.0,0.0,0.0,0.0,0.0,0.0,0.0,0.0,0.0,0.0,0.0,0.0,0.0,0.0,0.0,0.5084,0.6242,0.7114,0.0,0.9497,0.0,0.0,0.0,0.0,0.0,0.0,0.0,0.0,0.0,0.0,0.0,0.0,0.0,0.0,0.0,0.0,0.0,0.0,0.0,0.0,0.0,0.0,0.0,0.0,0.0,0.0,0.0,0.0,0.0,0.0,0.0,0.0,0.0,0.0,0.0,0.0,0.0,0.0,0.0,0.0,0.0,0.0,0.0,0.0,0.0,0.0,0.0,0.0,0.0,0.0,0.0,0.0,0.0,0.0,0.0,0.0,0.0,0.0,0.0,0.0,0.0,0.0,0.0,0.0,0.0,0.0,0.0,0.0,0.0,0.0,0.0,0.0,0.0,0.0,0.0,0.0,0.0,0.0,0.0,0.0,0.0,0.0,0.0,0.0,0.0,0.0,0.0,0.0,0.0,0.0,0.0,0.0,0.0,0.0,0.0,0.0,0.0,0.0,0.0,0.0,0.0,0.0,0.0,0.0,0.0,0.0,0.0,0.0,0.0,0.0,0.5732,0.679,0.7758,0.8561,0.0,0.0,0.0,0.0,0.0,0.0,0.0,0.0,0.0,0.0,0.0,0.0,0.0,0.0,0.0,0.0,0.0,0.0,0.0,0.0,0.0,0.0,0.0,0.0,0.0,0.0,0.0,0.0,0.0,0.0,0.0,0.0,0.0,0.0,0.0,0.0,0.0,0.0,0.0,0.0,0.0,0.0,0.0,0.0,0.0,0.0,0.0,0.0,0.0,0.0,0.0,0.0,0.0,0.0,0.0,0.0,0.0,0.0,0.0,0.0,0.0,0.0,0.0,0.0,0.0,0.0,0.0,0.0,0.0,0.0,0.0,0.0,0.0,0.0,0.0,0.0,0.0,0.0,0.0,0.0,0.0,0.0,0.0,0.0,0.0,0.0,0.0,0.0,0.0,0.0,0.0,0.0,0.0,0.0,0.0,0.0,0.0,0.0,0.0,0.0,0.0,0.0,0.0,0.0,0.0,0.0,0.0,0.0,0.0,0.0,0.5155,0.616,0.7535,0.8549,0.9083,0.9111,0.0,0.0,0.0,0.0,0.0,0.0,0.0,0.0,0.0,0.0,0.0,0.0,0.0,0.0,0.0,0.0,0.0,0.0,0.0,0.0,0.0,0.0,0.0,0.0,0.0,0.0,0.0,0.0,0.0,0.0,0.0,0.0,0.0,0.0,0.0,0.0,0.0,0.0,0.0,0.0,0.0,0.0,0.0,0.0,0.0,0.0,0.0,0.0,0.0,0.0,0.0,0.0,0.0,0.0,0.0,0.0,0.0,0.0,0.0,0.0,0.0,0.0,0.0,0.0,0.0,0.0,0.0,0.0,0.0,0.0,0.0,0.0,0.0,0.0,0.0,0.0,0.0,0.0,0.0,0.0,0.0,0.0,0.0,0.0,0.0,0.0,0.0,0.0,0.0,0.0,0.0,0.0,0.0,0.0,0.0,0.0,0.0,0.0,0.0,0.0,0.0,0.0,0.0,0.0,0.0,0.0,0.0,0.0,0.5253,0.5094,0.6198,0.8715,0.9723,1.0186,0.0,0.0,0.0,0.0,0.0,0.0,0.0,0.0,0.0,0.0,0.0,0.0,0.0,0.0,0.0,0.0,0.0,0.0,0.0,0.0,0.0,0.0,0.0,0.0,0.0,0.0,0.0,0.0,0.0,0.0,0.0,0.0,0.0,0.0,0.0,0.0,0.0,0.0,0.0,0.0,0.0,0.0,0.0,0.0,0.0,0.0,0.0,0.0,0.0,0.0,0.0,0.0,0.0,0.0,0.0,0.0,0.0,0.0,0.0,0.0,0.0,0.0,0.0,0.0,0.0,0.0,0.0,0.0,0.0,0.0,0.0,0.0,0.0,0.0,0.0,0.0,0.0,0.0,0.0,0.0,0.0,0.0,0.0,0.0,0.0,0.0,0.0,0.0,0.0,0.0,0.0,0.0,0.0,0.0,0.0,0.0,0.0,0.0,0.0,0.0,0.0,0.0,0.0,0.0,0.0,0.0,0.0,0.0,0.0,0.4574,0.5735,0.7283,0.9125,0.9214,0.9482,0.0,0.0,0.0,0.0,0.0,0.0,0.0,0.0,0.0,0.0,0.0,0.0,0.0,0.0,0.0,0.0,0.0,0.0,0.0,0.0,0.0,0.0,0.0,0.0,0.0,0.0,0.0,0.0,0.0,0.0,0.0,0.0,0.0,0.0,0.0,0.0,0.0,0.0,0.0,0.0,0.0,0.0,0.0,0.0,0.0,0.0,0.0,0.0,0.0,0.0,0.0,0.0,0.0,0.0,0.0,0.0,0.0,0.0,0.0,0.0,0.0,0.0,0.0,0.0,0.0,0.0,0.0,0.0,0.0,0.0,0.0,0.0,0.0,0.0,0.0,0.0,0.0,0.0,0.0,0.0,0.0,0.0,0.0,0.0,0.0,0.0,0.0,0.0,0.0,0.0,0.0,0.0,0.0,0.0,0.0,0.0,0.0,0.0,0.0,0.0,0.0,0.0,0.0,0.0,0.0,0.0,0.0,0.0,0.0,0.4855,0.0,0.7805,0.8912,0.8869,0.8996,0.0,0.0,0.0,0.0,0.0,0.0,0.0,0.0,0.0,0.0,0.0,0.0,0.0,0.0,0.0,0.0,0.0,0.0,0.0,0.0,0.0,0.0,0.0,0.0,0.0,0.0,0.0,0.0,0.0,0.0,0.0,0.0,0.0,0.0,0.0,0.0,0.0,0.0,0.0,0.0,0.0,0.0,0.0,0.0,0.0,0.0,0.0,0.0,0.0,0.0,0.0,0.0,0.0,0.0,0.0,0.0,0.0,0.0,0.0,0.0,0.0,0.0,0.0,0.0,0.0,0.0,0.0,0.0,0.0,0.0,0.0,0.0,0.0,0.0,0.0,0.0,0.0,0.0,0.0,0.0,0.0,0.0,0.0,0.0,0.0,0.0,0.0,0.0,0.0,0.0,0.0,0.0,0.0,0.0,0.0,0.0,0.0,0.0,0.0,0.0,0.0,0.0,0.0,0.0,0.0,0.0,0.0,0.0,0.4612,0.63,0.7053,0.7734,0.8161,0.8848,0.8947,0.0,0.0,0.0,0.0,0.0,0.0,0.0,0.0,0.0,0.0,0.0,0.0,0.0,0.0,0.0,0.0,0.0,0.0,0.0,0.0,0.0,0.0,0.0,0.0,0.0,0.0,0.0,0.0,0.0,0.0,0.0,0.0,0.0,0.0,0.0,0.0,0.0,0.0,0.0,0.0,0.0,0.0,0.0,0.0,0.0,0.0,0.0,0.0,0.0,0.0,0.0,0.0,0.0,0.0,0.0,0.0,0.0,0.0,0.0,0.0,0.0,0.0,0.0,0.0,0.0,0.0,0.0,0.0,0.0,0.0,0.0,0.0,0.0,0.0,0.0,0.0,0.0,0.0,0.0,0.0,0.0,0.0,0.0,0.0,0.0,0.0,0.0,0.0,0.0,0.0,0.0,0.0,0.0,0.0,0.0,0.0,0.0,0.0,0.0,0.0,0.0,0.0,0.0,0.0,0.0,0.0,0.0,0.0,0.0,0.6092,0.7666,0.9157,1.0416,0.9379,0.9469,0.0,0.0,0.0,0.0,0.0,0.0,0.0,0.0,0.0,0.0,0.0,0.0,0.0,0.0,0.0,0.0,0.0,0.0,0.0,0.0,0.0,0.0,0.0,0.0,0.0,0.0,0.0,0.0,0.0,0.0,0.0,0.0,0.0,0.0,0.0,0.0,0.0,0.0,0.0,0.0,0.0,0.0,0.0,0.0,0.0,0.0,0.0,0.0,0.0,0.0,0.0,0.0,0.0,0.0,0.0,0.0,0.0,0.0,0.0,0.0,0.0,0.0,0.0,0.0,0.0,0.0,0.0,0.0,0.0,0.0,0.0,0.0,0.0,0.0,0.0,0.0,0.0,0.0,0.0,0.0,0.0,0.0,0.0,0.0,0.0,0.0,0.0,0.0,0.0,0.0,0.0,0.0,0.0,0.0,0.0,0.0,0.0,0.0,0.0,0.0,0.0,0.0,0.0,0.0,0.0,0.0,0.0,0.0,0.0,0.791,0.9427,1.086,1.2084,1.0483,1.0186,1.1379,0.0,0.0,0.0,0.0,0.0,0.0,0.0,0.0,0.0,0.0,0.0,0.0,0.0,0.0,0.0,0.0,0.0,0.0,0.0,0.0,0.0,0.0,0.0,0.0,0.0,0.0,0.0,0.0,0.0,0.0,0.0,0.0,0.0,0.0,0.0,0.0,0.0,0.0,0.0,0.0,0.0,0.0,0.0,0.0,0.0,0.0,0.0,0.0,0.0,0.0,0.0,0.0,0.0,0.0,0.0,0.0,0.0,0.0,0.0,0.0,0.0,0.0,0.0,0.0,0.0,0.0,0.0,0.0,0.0,0.0,0.0,0.0,0.0,0.0,0.0,0.0,0.0,0.0,0.0,0.0,0.0,0.0,0.0,0.0,0.0,0.0,0.0,0.0,0.0,0.0,0.0,0.0,0.0,0.0,0.0,0.0,0.0,0.0,0.0,0.0,0.0,0.0,0.0,0.0,0.0,0.0,0.0,0.0,1.1219,1.2198,1.29,1.324,1.2047,1.1112,0.0,0.0,0.0,0.0,0.0,0.0,0.0,0.0,0.0,0.0,0.0,0.0,0.0,0.0,0.0,0.0,0.0,0.0,0.0,0.0,0.0,0.0,0.0,0.0,0.0,0.0,0.0,0.0,0.0,0.0,0.0,0.0,0.0,0.0,0.0,0.0,0.0,0.0,0.0,0.0,0.0,0.0,0.0,0.0,0.0,0.0,0.0,0.0,0.0,0.0,0.0,0.0,0.0,0.0,0.0,0.0,0.0,0.0,0.0,0.0,0.0,0.0,0.0,0.0,0.0,0.0,0.0,0.0,0.0,0.0,0.0,0.0,0.0,0.0,0.0,0.0,0.0,0.0,0.0,0.0,0.0,0.0,0.0,0.0,0.0,0.0,0.0,0.0,0.0,0.0,0.0,0.0,0.0,0.0,0.0,0.0,0.0,0.0,0.0,0.0,0.0,0.0,0.0,0.0,0.0,0.0,0.0,0.0,0.0,1.2803,1.5202,1.6355,1.6137,1.3888,1.2821,0.0,0.0,0.0,0.0,0.0,0.0,0.0,0.0,0.0,0.0,0.0,0.0,0.0,0.0,0.0,0.0,0.0,0.0,0.0,0.0,0.0,0.0,0.0,0.0,0.0,0.0,0.0,0.0,0.0,0.0,0.0,0.0,0.0,0.0,0.0,0.0,0.0,0.0,0.0,0.0,0.0,0.0,0.0,0.0,0.0,0.0,0.0,0.0,0.0,0.0,0.0,0.0,0.0,0.0,0.0,0.0,0.0,0.0,0.0,0.0,0.0,0.0,0.0,0.0,0.0,0.0,0.0,0.0,0.0,0.0,0.0,0.0,0.0,0.0,0.0,0.0,0.0,0.0,0.0,0.0,0.0,0.0,0.0,0.0,0.0,0.0,0.0,0.0,0.0,0.0,0.0,0.0,0.0,0.0,0.0,0.0,0.0,0.0,0.0,0.0,0.0,0.0,0.0,0.0,0.0,0.0,0.0,0.0,1.2137,1.4263,1.698,1.8457,1.8542,1.6197,1.4578,0.0,0.0,0.0,0.0,0.0,0.0,0.0,0.0,0.0,0.0,0.0,0.0,0.0,0.0,0.0,0.0,0.0,0.0,0.0,0.0,0.0,0.0,0.0,0.0,0.0,0.0,0.0,0.0,0.0,0.0,0.0,0.0,0.0,0.0,0.0,0.0,0.0,0.0,0.0,0.0,0.0,0.0,0.0,0.0,0.0,0.0,0.0,0.0,0.0,0.0,0.0,0.0,0.0,0.0,0.0,0.0,0.0,0.0,0.0,0.0,0.0,0.0,0.0,0.0,0.0,0.0,0.0,0.0,0.0,0.0,0.0,0.0,0.0,0.0,0.0,0.0,0.0,0.0,0.0,0.0,0.0,0.0,0.0,0.0,0.0,0.0,0.0,0.0,0.0,0.0,0.0,0.0,0.0,0.0,0.0,0.0,0.0,0.0,0.0,0.0,0.0,0.0,0.0,0.0,0.0,0.0,0.0,0.0,1.3153,1.5619,1.7962,1.9533,2.0218,1.8493,1.634,0.0,0.0,0.0,0.0,0.0,0.0,0.0,0.0,0.0,0.0,0.0,0.0,0.0,0.0,0.0,0.0,0.0,0.0,0.0,0.0,0.0,0.0,0.0,0.0,0.0,0.0,0.0,0.0,0.0,0.0,0.0,0.0,0.0,0.0,0.0,0.0,0.0,0.0,0.0,0.0,0.0,0.0,0.0,0.0,0.0,0.0,0.0,0.0,0.0,0.0,0.0,0.0,0.0,0.0,0.0,0.0,0.0,0.0,0.0,0.0,0.0,0.0,0.0,0.0,0.0,0.0,0.0,0.0,0.0,0.0,0.0,0.0,0.0,0.0,0.0,0.0,0.0,0.0,0.0,0.0,0.0,0.0,0.0,0.0,0.0,0.0,0.0,0.0,0.0,0.0,0.0,0.0,0.0,0.0,0.0,0.0,0.0,0.0,0.0,0.0,0.0,0.0,0.0,0.0,0.0,0.0,0.0,0.0,1.4245,1.6629,1.8564,1.9865,2.0431,1.9092,1.7477,0.0,0.0,0.0,0.0,0.0,0.0,0.0,0.0,0.0,0.0,0.0,0.0,0.0,0.0,0.0,0.0,0.0,0.0,0.0,0.0,0.0,0.0,0.0,0.0,0.0,0.0,0.0,0.0,0.0,0.0,0.0,0.0,0.0,0.0,0.0,0.0,0.0,0.0,0.0,0.0,0.0,0.0,0.0,0.0,0.0,0.0,0.0,0.0,0.6887,0.0,0.0,0.0,0.0,0.0,0.0,0.0,0.0,0.0,0.0,0.0,0.0,0.0,0.0,0.0,0.0,0.0,0.0,0.0,0.0,0.0,0.0,0.0,0.0,0.0,0.0,0.0,0.0,0.0,0.0,0.0,0.0,0.0,0.0,0.0,0.0,0.0,0.0,0.0,0.0,0.0,0.0,0.0,0.0,0.0,0.0,0.0,0.0,0.0,0.0,0.0,0.0,0.0,0.0,0.0,0.0,0.0,0.0,0.0,1.5157,1.7508,1.9045,2.0128,2.0724,2.0193,1.8656,0.0,0.0,0.0,0.0,0.0,0.0,0.0,0.0,0.0,0.0,0.0,0.0,0.0,0.0,0.0,0.0,0.0,0.0,0.0,0.0,0.0,0.0,0.0,0.0,0.0,0.0,0.0,0.0,0.0,0.0,0.0,0.0,0.0,0.0,0.0,0.0,0.0,0.0,0.0,0.0,0.0,0.0,0.0,0.0,0.0,0.0,0.0,0.0,0.0,0.0,0.0,0.0,0.0,0.0,0.0,0.0,0.0,0.0,0.0,0.0,0.0,0.0,0.0,0.0,0.0,0.0,0.0,0.0,0.0,0.0,0.0,0.0,0.0,0.0,0.0,0.0,0.0,0.0,0.0,0.0,0.0,0.0,0.0,0.0,0.0,0.0,0.0,0.0,0.0,0.0,0.0,0.0,0.0,0.0,0.0,0.0,0.0,0.0,0.0,0.0,0.0,0.0,0.0,0.0,0.0,0.0,0.0,1.3576,1.5851,1.8326,1.9514,2.0403,2.1078,2.1284,1.9744,1.6294,0.0,0.0,0.0,0.0,0.0,0.0,0.0,0.0,0.0,0.0,0.0,0.0,0.0,0.0,0.0,0.0,0.0,0.0,0.0,0.0,0.0,0.0,0.0,0.0,0.0,0.0,0.0,0.0,0.0,0.0,0.0,0.0,0.0,0.0,0.0,0.0,0.0,0.0,0.5925,0.7981,0.0,0.0,0.0,0.0,0.0,0.0,0.0,0.0,0.89,0.0,0.0,0.0,0.0,0.0,0.0,0.0,0.0,0.0,0.0,0.0,0.0,0.0,0.0,0.0,0.0,0.0,0.0,0.0,0.0,0.0,0.0,0.0,0.0,0.0,0.0,0.0,0.0,0.0,0.0,0.0,0.0,0.0,0.0,0.0,0.0,0.0,0.0,0.0,0.0,0.0,0.0,0.0,0.0,0.0,0.0,0.0,0.0,0.0,0.0,0.0,0.0,0.0,0.0,0.0,0.0,1.3846,1.4108,1.5895,1.9358,2.0069,2.0632,2.1102,2.1492,2.0298,1.7399,0.0,0.0,0.0,0.0,0.0,0.0,0.0,0.0,0.0,0.0,0.0,0.0,0.0,0.0,0.0,0.0,0.0,0.0,0.0,0.0,0.0,0.0,0.0,0.0,0.0,0.0,0.0,0.0,0.0,0.0,0.0,0.0,0.0,0.0,0.0,0.0,0.0,0.0,0.0,1.1373,1.2802,0.0,0.0,0.0,0.0,0.0,0.0,0.0,0.0,1.0033,0.0,0.0,0.0,0.0,0.0,0.0,0.0,0.0,0.0,0.0,0.0,0.0,0.0,0.0,0.0,0.0,0.0,0.0,0.0,0.0,0.0,0.0,0.0,0.0,0.0,0.0,0.0,0.0,0.0,0.0,0.0,0.0,0.0,0.0,0.0,0.0,0.0,0.0,0.0,0.0,0.0,0.0,0.0,0.0,0.0,0.0,0.0,0.0,0.0,0.0,0.0,0.0,0.0,0.0,0.0,1.3584,1.5045,1.7142,1.9995,2.0396,2.0853,2.1406,2.0904,1.9671,0.0,0.0,0.0,0.0,0.0,0.0,0.0,0.0,0.0,0.0,0.0,0.0,0.0,0.0,0.0,0.0,0.0,0.0,0.0,0.0,0.0,0.0,0.0,0.0,0.0,0.0,0.0,0.0,0.0,0.0,0.0,0.0,0.0,0.0,0.0,0.0,0.0,0.0,0.0,0.0,1.1726,1.292,1.4326,0.0,0.0,0.0,0.0,0.0,0.0,1.1754,1.1272,0.0,0.0,0.0,0.0,0.0,0.0,0.0,0.0,0.0,0.0,0.0,0.0,0.0,0.0,0.0,0.0,0.0,0.0,0.0,0.0,0.0,0.0,0.0,0.0,0.0,0.0,0.0,0.0,0.0,0.0,0.0,0.0,0.0,0.0,0.0,0.0,0.0,0.0,0.0,0.0,0.0,0.0,0.0,0.0,0.0,0.0,0.0,0.0,0.0,0.0,0.0,0.0,0.0,0.0,0.0,1.3039,1.559,1.8095,2.0395,2.0639,2.1055,2.1757,2.0524,1.9142,0.0,0.0,0.0,0.0,0.0,0.0,0.0,0.0,0.0,0.0,0.0,0.0,0.0,0.0,0.0,0.0,0.0,0.0,0.0,0.0,0.0,0.0,0.0,0.0,0.0,0.0,0.0,0.0,0.0,0.0,0.0,0.0,0.0,0.0,0.0,0.0,0.0,0.0,0.0,0.0,0.0,1.3205,1.516,1.4997,0.0,0.0,0.0,0.0,1.4245,1.3614,0.0,0.0,0.0,0.0,0.0,0.0,0.0,0.0,0.0,0.0,0.0,0.0,0.0,0.0,0.0,0.0,0.0,0.0,0.0,0.0,0.0,0.0,0.0,0.0,0.0,0.0,0.0,0.0,0.0,0.0,0.0,0.0,0.0,0.0,0.0,0.0,0.0,0.0,0.0,0.0,0.0,0.0,0.0,0.0,0.0,0.0,0.0,0.0,0.0,0.0,0.0,0.0,0.0,0.0,0.0,0.0,1.3121,1.5018,1.7479,2.0423,2.0886,2.1275,2.1781,2.128,1.9704,0.0,0.0,0.0,0.0,0.0,0.0,0.0,0.0,0.0,0.0,0.0,0.0,0.0,0.0,0.0,0.0,0.0,0.0,0.0,0.0,0.0,0.0,0.0,0.0,0.0,0.0,0.0,0.0,0.0,0.0,0.0,0.0,0.0,0.0,0.0,0.0,0.0,0.0,0.0,0.0,0.0,1.6123,1.6032,1.6185,1.614,0.0,0.0,1.6112,1.6394,1.6385,0.0,0.0,0.0,0.0,0.0,0.0,0.0,0.0,0.0,0.0,0.0,0.0,0.0,0.0,0.0,0.0,0.0,0.0,0.0,0.0,0.0,0.0,0.0,0.0,0.0,0.0,0.0,0.0,0.0,0.0,0.0,0.0,0.0,0.0,0.0,0.0,0.0,0.0,0.0,0.0,0.0,0.0,0.0,0.0,0.0,0.0,0.0,0.0,0.0,0.0,0.0,0.0,0.0,0.0,0.0,1.1142,1.321,1.5919,1.8484,2.0782,2.1291,2.1682,2.2087,2.0661,1.8883,0.0,0.0,0.0,0.0,0.0,0.0,0.0,0.0,0.0,0.0,0.0,0.0,0.0,0.0,0.0,0.0,0.0,0.0,0.0,0.0,0.0,0.0,0.0,0.0,0.0,0.0,0.0,0.0,0.0,0.0,0.0,0.0,0.0,0.0,0.0,0.0,0.0,0.0,0.0,0.0,0.0,0.0,1.7239,1.7466,0.0,0.0,0.0,1.8457,1.7804,0.0,0.0,0.0,0.0,0.0,0.0,0.0,0.0,0.0,0.0,0.0,0.0,0.0,0.0,0.0,0.0,0.0,0.0,0.0,0.0,0.0,0.0,0.0,0.0,0.0,0.0,0.0,0.0,0.0,0.0,0.0,0.0,0.0,0.0,0.0,0.0,0.0,0.0,0.0,0.0,0.0,0.0,0.0,0.0,0.0,0.0,0.0,0.0,0.0,0.0,0.0,0.0,0.0,0.0,0.0,0.0,0.0,1.3412,1.6783,1.9416,2.1203,2.1622,2.1961,2.2255,2.0251,0.0,0.0,0.0,0.0,0.0,0.0,0.0,0.0,0.0,0.0,0.0,0.0,0.0,0.0,0.0,0.0,0.0,0.0,0.0,0.0,0.0,0.0,0.0,0.0,0.0,0.0,0.0,0.55,0.0,0.0,0.0,0.0,0.0,0.0,0.0,0.0,0.0,0.0,0.0,0.0,0.0,0.0,1.5587,1.8159,1.8533,1.8711,0.0,0.0,2.018,1.9217,1.9816,1.9385,0.0,0.0,0.0,0.0,0.0,0.0,0.0,0.0,0.0,0.0,0.0,0.0,0.0,0.0,0.0,0.0,0.0,0.0,0.0,0.0,0.0,0.0,0.0,0.0,0.0,0.0,0.0,0.0,0.0,0.0,0.0,0.0,0.0,0.0,0.0,0.0,0.0,0.0,0.0,0.0,0.0,0.0,0.0,0.0,0.0,0.0,0.0,0.0,0.0,0.0,0.0,0.0,0.0,0.0,0.0,1.3974,1.7007,1.9619,2.1663,2.1773,2.1961,2.2255,2.0758,1.8501,0.0,0.0,0.0,0.0,0.0,0.0,0.0,0.0,0.0,0.0,0.0,0.0,0.0,0.0,0.0,0.0,0.0,0.0,0.0,0.0,0.0,0.0,0.0,0.0,0.0,0.0,0.0,0.0,0.0,0.0,0.0,0.0,0.0,0.0,0.0,0.0,0.0,0.0,0.0,0.0,0.0,1.6929,1.8392,1.9234,2.0031,0.0,0.0,2.0601,2.0879,2.0965,2.0103,1.7345,0.0,0.0,0.0,0.0,0.0,0.0,0.0,0.0,0.0,0.0,0.0,0.0,0.0,0.0,0.0,0.0,0.0,0.0,0.0,0.0,0.0,0.0,0.0,0.0,0.0,0.0,0.0,0.0,0.0,0.0,0.0,0.0,0.0,0.0,0.0,0.0,0.0,0.0,0.0,0.0,0.0,0.0,0.0,0.0,0.0,0.0,0.0,0.0,0.0,0.0,0.0,0.0,0.0,1.2188,1.4185,1.7291,1.9856,2.1715,2.1998,2.2166,2.2313,2.0823,1.8711,0.0,0.0,0.0,0.0,0.0,0.0,0.0,0.0,0.0,0.0,0.0,0.0,0.0,0.0,0.0,0.0,0.0,0.0,0.0,0.0,0.0,0.0,0.0,0.0,0.0,0.0,0.0,0.0,0.5936,0.6532,0.6864,0.0,0.0,0.0,0.0,0.0,0.0,0.0,0.0,0.0,0.0,1.7842,1.905,2.0089,0.0,0.0,2.1706,2.1778,2.1557,2.1705,2.0981,1.8409,1.755,0.0,0.0,0.0,0.0,0.0,0.0,0.0,0.0,0.0,0.0,0.0,0.0,0.0,0.0,0.0,0.0,0.0,0.0,0.0,0.0,0.0,0.0,0.0,0.0,0.0,0.0,0.0,0.0,0.0,0.0,0.0,0.0,0.0,0.0,0.0,0.0,0.0,0.0,0.0,0.0,0.0,0.0,0.0,0.0,0.0,0.0,0.0,0.0,0.0,0.0,0.0,0.0,1.2337,1.4445,1.7548,2.0035,2.1904,2.2173,2.2313,2.2279,2.1049,1.9204,0.0,0.0,0.0,0.0,0.0,0.0,0.0,0.0,0.0,0.0,0.0,0.0,0.0,0.0,0.0,0.0,0.0,0.0,0.0,0.0,0.0,0.0,0.0,0.0,0.0,0.0,0.0,0.0,0.6667,0.7102,0.6911,0.0,0.0,0.0,0.0,0.0,0.0,0.0,0.0,0.0,0.0,1.8273,1.9576,2.0519,2.1234,2.1689,2.2127,2.2312,2.1989,2.2142,2.1545,1.936,0.0,0.0,0.0,0.0,0.0,0.0,0.0,0.0,0.0,0.0,0.0,0.0,0.0,0.0,0.0,0.0,0.0,0.0,0.0,0.0,0.0,0.0,0.0,0.0,0.0,0.0,0.0,0.0,0.0,0.0,0.6895,0.0,0.0,0.0,0.0,0.0,0.0,0.0,0.0,0.0,0.0,0.0,0.0,0.0,0.0,0.0,0.0,0.0,0.0,0.0,0.0,0.0,0.0,1.259,1.4805,1.7743,2.0216,2.22,2.2313,2.2313,2.2296,2.1556,1.9995,1.7495,0.0,0.0,0.0,0.0,0.0,0.0,0.0,0.0,0.0,0.0,0.0,0.0,0.0,0.0,0.0,0.0,0.0,0.0,0.0,0.0,0.0,0.0,0.0,0.0,0.0,0.0,0.6882,0.7503,0.7502,0.0,0.0,0.0,0.0,0.0,0.0,0.0,0.0,0.0,0.0,1.6692,1.8172,1.9934,2.0381,2.0946,2.1941,2.196,2.1949,2.224,2.2279,2.1765,0.0,0.0,0.0,0.0,0.0,0.0,0.0,0.0,0.0,0.0,0.0,0.0,0.0,0.0,0.0,0.0,0.0,0.0,0.0,0.0,0.0,0.0,0.0,0.0,0.0,0.0,0.0,0.9341,0.8657,0.0,0.0,0.0,0.0,0.0,0.0,0.0,0.0,0.0,0.0,0.0,1.2533,1.3409,0.0,0.0,0.0,0.0,0.0,0.0,0.0,0.0,0.0,0.0,0.0,0.0,1.3632,1.57,1.87,2.0909,2.2255,2.2313,2.2313,2.2289,2.1559,1.9632,1.6466,0.0,0.0,0.0,0.0,0.0,0.0,0.0,0.0,0.0,0.0,0.0,0.0,0.0,0.0,0.0,0.0,0.0,0.0,0.0,0.0,0.0,0.0,0.0,0.0,0.0,0.6577,0.0,0.0,0.0,0.0,0.0,0.0,0.0,0.0,0.0,0.0,0.0,1.4708,1.6209,1.8063,1.9627,2.0533,2.1182,2.1808,0.0,0.0,0.0,0.0,0.0,0.0,0.0,0.0,0.0,0.0,0.0,0.0,0.0,0.0,1.8649,1.4536,1.3404,1.3134,1.3293,0.0,0.0,0.0,0.0,0.0,0.0,0.0,0.0,0.0,0.0,0.0,0.0,0.0,0.0,1.1156,0.0,1.0445,0.0,0.0,0.0,0.0,0.0,0.0,0.0,0.0,1.374,1.4779,1.476,1.5629,1.5619,0.0,1.4669,1.3192,0.0,0.0,0.0,0.0,0.0,0.0,0.0,0.0,1.4552,1.6491,1.9333,2.1291,2.2255,2.2313,2.2313,2.2286,2.1515,1.9863,1.7246,1.5925,1.406,0.0,0.0,0.0,0.0,0.0,0.0,0.0,0.0,0.0,0.0,0.0,0.0,0.0,0.0,0.0,0.0,0.0,0.0,0.0,0.0,0.0,0.0,0.0,0.7846,0.0,0.0,0.0,0.0,0.0,0.0,0.0,0.0,0.0,1.2852,1.4711,1.6498,1.778,1.9344,2.0546,2.1045,0.0,0.0,0.0,0.0,0.0,0.0,0.0,2.2348,2.2341,2.2341,2.2162,2.1637,2.2304,2.2704,2.2089,0.0,0.0,1.792,1.6817,1.6569,1.6754,1.7032,1.7342,1.769,1.8747,1.9539,0.0,0.0,0.0,0.0,0.0,0.0,0.0,0.0,1.2255,1.2499,0.0,1.2342,0.0,0.0,0.0,0.0,0.0,1.3141,0.0,0.0,1.6534,1.7622,1.764,1.7622,1.7622,1.7595,1.7985,1.7051,1.4836,1.2625,0.0,0.0,0.0,0.0,0.0,0.0,1.5352,1.7304,1.9654,2.1331,2.2248,2.2313,2.2313,2.2286,2.1555,2.0689,1.9707,1.7896,1.6135,1.4497,1.2819,0.0,0.0,0.0,0.0,0.0,0.0,0.0,0.0,0.0,0.0,0.0,0.0,0.0,0.0,0.0,0.0,0.0,0.0,0.0,0.0,0.964,0.0,0.0,0.0,0.0,0.0,0.0,0.0,0.0,0.0,0.0,1.5244,1.6441,1.7994,1.9879,0.0,0.0,0.0,0.0,2.2786,2.2969,2.3825,2.4481,2.4481,2.4465,2.4465,2.4465,0.0,0.0,2.3285,2.3641,2.3802,2.2818,2.3225,2.3335,2.2778,2.2186,2.1995,2.2053,2.1964,2.2182,2.2263,2.2539,2.3206,1.8402,0.0,0.0,0.0,0.0,1.5197,1.5544,1.6031,1.6514,1.6058,1.4976,1.4828,0.0,0.0,0.0,0.0,0.0,0.0,1.5206,1.605,1.7391,1.8397,1.9014,1.8783,1.8778,1.8983,1.8517,1.7952,1.7278,1.6375,1.4266,1.1035,0.0,0.0,0.0,0.0,1.7733,1.9007,2.089,2.2013,2.2296,2.2313,2.2313,2.2313,2.2079,2.1442,2.0383,1.9754,1.8192,1.5539,1.47,0.0,0.0,0.0,0.0,0.0,0.0,0.0,0.0,0.0,0.0,0.0,0.0,0.0,0.0,0.0,0.0,0.0,0.0,0.0,0.9225,1.0083,1.0611,0.0,0.0,0.0,0.0,0.0,0.0,0.0,0.0,0.0,1.8052,1.8808,1.9767,0.0,0.0,2.2452,2.3123,2.3457,2.3739,2.4061,2.4361,0.0,0.0,2.4575,2.456,2.4506,2.4923,2.5348,2.5604,2.5781,2.5841,2.5514,2.5648,2.5714,2.547,2.4076,2.3147,2.3308,2.3408,2.3514,2.3796,2.4395,2.4787,2.1727,2.0073,1.7863,1.724,1.7806,1.7955,1.8304,1.8814,1.9203,1.8874,1.798,1.7772,1.6809,1.5316,1.506,0.0,0.0,0.0,1.7918,1.9063,1.979,2.0469,2.0976,2.0523,2.0392,2.0555,1.9774,1.9368,1.9377,1.9187,1.7467,1.4398,0.0,0.0,1.5167,1.7561,1.9244,2.014,2.1558,2.2313,2.2313,2.2313,2.2313,2.2313,2.2313,2.1975,2.1301,2.0789,1.9511,1.7321,1.6266,1.4433,0.0,0.0,0.0,0.0,0.0,0.0,0.0,0.0,0.0,0.0,0.0,0.6722,0.5847,0.0,0.0,0.0,0.942,1.0577,1.1746,1.2379,0.0,0.0,0.0,0.0,0.0,0.0,0.0,1.5617,1.7352,1.9056,2.0615,2.127,2.1836,2.2473,2.3196,2.3836,2.4323,0.0,2.4844,2.5071,2.5366,2.5554,2.5554,2.5546,2.553,2.5491,2.5817,2.6258,2.6707,2.6792,2.68,2.6808,2.6808,2.6825,2.6825,2.5631,2.477,2.5021,2.5096,2.5186,2.5421,2.5776,2.5904,2.4486,2.4083,2.0979,1.9954,2.0328,2.0137,2.0336,2.0752,2.0809,2.1007,2.1224,2.0756,2.018,1.95,1.856,0.0,2.0529,2.0866,2.1538,2.267,2.2964,2.3147,2.3195,2.2508,2.2203,2.2196,2.1512,2.1143,2.1071,2.1079,2.0453,1.9197,1.8158,1.7811,1.8173,1.9276,2.022,2.093,2.1837,2.2313,2.2313,2.2313,2.2313,2.2313,2.2313,2.2262,2.2171,2.1178,2.0228,1.9348,1.7531,1.5559,1.343,0.0,0.0,0.0,0.0,0.0,0.0,0.0,0.0,0.0,0.0,0.0,0.0,0.0,0.0,0.0,1.1899,0.0,1.5226,1.5595,0.0,0.0,0.0,1.4199,1.4015,1.5296,1.6687,1.8017,0.0,0.0,2.2836,2.3675,2.4055,2.3967,2.4648,2.5153,2.5263,2.5724,2.6036,2.6042,2.661,2.7014,2.687,2.688,2.6846,2.6838,2.6933,2.69,2.6966,2.695,2.695,2.6992,2.7008,2.7,2.7,2.6873,2.6983,2.6816,2.6833,2.6833,2.6774,2.669,2.6615,2.5797,2.5468,2.427,2.3261,2.2506,2.2938,2.2739,2.2179,2.2666,2.2483,2.1788,2.1669,2.1689,2.1787,2.1254,2.1553,2.251,2.2588,2.2787,2.3055,2.3123,2.3314,2.3553,2.3136,2.3072,2.3283,2.2876,2.2379,2.1849,2.1841,2.152,2.0911,2.0684,2.0137,1.9382,2.0645,2.1528,2.1949,2.2174,2.2313,2.2313,2.2313,2.2313,2.2313,2.2313,2.204,2.1478,2.1106,2.0271,1.8931,1.8173,1.6699,1.438,1.2733,0.0,0.0,0.0,0.0,0.0,0.0,0.0,0.0,0.0,0.9591,0.796,0.0,1.1677,0.0,1.3769,1.5079,1.5837,1.5621,0.0,0.0,1.572,1.5612,1.7144,1.7483,1.8129,1.9526,2.137,2.2838,2.3597,2.4938,2.5893,2.6185,2.6126,2.6244,2.675,2.6957,2.7074,2.716,2.7316,2.7361,2.7127,2.704,2.7008,2.7008,2.6975,2.6975,2.7,2.6983,2.6983,2.7008,2.7008,2.7008,2.7008,2.7039,2.7055,2.6983,2.6925,2.6867,2.6767,2.6733,2.6708,2.7962,2.776,2.7121,2.6326,2.5463,2.4946,2.4389,2.389,2.4236,2.4065,2.3514,2.3444,2.355,2.3743,2.3525,2.3798,2.4419,2.4383,2.4507,2.475,2.4724,2.4843,2.5021,2.4513,2.4364,2.4522,2.4017,2.3572,2.3185,2.316,2.3067,2.2825,2.2539,2.2039,2.1387,2.1797,2.2106,2.2313,2.2313,2.2313,2.2313,2.2313,2.2313,2.2313,2.2313,2.1955,2.1224,2.1127,2.0359,1.8802,1.8091,1.6926,1.5127,1.3499,1.2168,0.0,0.0,0.0,0.0,0.0,0.0,0.0,0.0,0.0,0.0,0.0,1.3345,1.4236,1.5558,1.6618,1.721,1.7516,1.7844,1.8175,1.7993,1.8149,1.8927,1.9289,2.0014,2.1414,2.2752,2.3939,2.4889,2.5839,2.664,2.7183,2.7098,2.7153,2.7589,2.7622,2.7547,2.7642,2.7547,2.7411,2.7225,2.7153,2.713,2.7138,2.7088,2.7072,2.7105,2.708,2.7072,2.7122,2.7138,2.713,2.7129,2.7261,2.7299,2.7103,2.7086,2.7038,2.6842,2.6725,2.6708,3.0153,3.0051,2.9253,2.8732,2.8337,2.6494,2.5624,2.5507,2.5491,2.5491,2.5465,2.5364,2.5357,2.5435,2.5435,2.572,2.6193,2.6087,2.6306,2.675,2.675,2.6716,2.6666,2.6089,2.5784,2.571,2.5083,2.472,2.466,2.4643,2.4585,2.4465,2.3772,2.3408,2.3366,2.2675,2.2313,2.2313,2.2313,2.2313,2.2313,2.2313,2.2313,2.2313,2.2313,2.1914,2.1082,2.1146,2.0428,1.8815,1.7967,1.7038,1.596,1.438,1.3321,0.0,1.1698,0.0,0.0,0.0,0.0,0.0,0.0,0.0,0.0,1.4141,1.506,1.5972,1.7273,1.8335,1.8903,2.0075,2.0445,1.9583,2.0424,2.0766,2.0015,2.0754,2.1884,2.3229,2.3831,2.4756,2.612,2.6531,2.6912,2.7515,2.7757,2.7876,2.8075,2.7933,2.7742,2.7723,2.7473,2.7305,2.7307,2.7299,2.7299,2.7291,2.7201,2.7176,2.7258,2.7209,2.7168,2.7266,2.7291,2.7299,2.7307,2.7481,2.7509,2.7151,2.7197,2.7221,2.6949,2.6775,2.67,3.0405,3.0201,2.9407,2.8988,2.88,2.7781,2.6813,2.5962,2.5953,2.5937,2.5886,2.5868,2.6172,2.6721,2.6746,2.6974,2.7373,2.734,2.7249,2.7127,2.7377,2.7203,2.6733,2.6827,2.6759,2.6496,2.6344,2.5989,2.5406,2.5398,2.5075,2.4491,2.3763,2.3408,2.3366,0.0,0.0,0.0,2.2313,2.2313,2.2313,2.2313,2.2313,2.2313,2.2313,0.0,2.0329,2.0856,2.0441,1.8908,1.9123,0.0,0.0,0.0,0.0,0.0,0.0,0.0,0.0,0.0,0.0,0.0,1.4838,1.4762,1.4899,1.6639,1.7636,1.7413,1.9053,2.0189,2.0324,2.1036,2.1426,2.1243,2.1161,2.1169,2.1357,2.1862,2.2601,2.3647,2.476,2.5691,2.6395,2.705,2.7592,2.7929,2.823,2.8424,2.8469,2.8208,2.7954,2.7738,2.7475,2.7315,2.7307,2.7307,2.7307,2.7299,2.7291,2.7274,2.7299,2.7299,2.7266,2.7307,2.7307,2.7307,2.7315,2.7353,2.7327,2.7072,2.7055,2.7048,2.6926,2.68,2.6708,3.2132,0.0,3.0801,3.0193,0.0,2.8732,2.7734,2.6984,2.692,2.6871,2.6854,2.6829,2.7055,2.7409,2.7391,2.75,2.7708,2.7708,2.7619,2.7469,2.7609,2.7519,2.7186,2.7359,2.7276,2.6956,2.6948,2.667,2.615,2.6142,2.5955,2.5583,2.4847,2.4306,2.3915,2.2861,2.2313,2.2313,2.2313,2.2373,2.2494,2.2501,2.2552,2.2688,0.0,0.0,0.0,0.0,0.0,0.0,0.0,0.0,0.0,0.0,0.0,1.6693,1.5758,1.5331,1.563,1.5339,1.5806,1.7311,1.7953,1.7906,1.7038,1.8308,1.9011,1.8753,1.992,2.0688,2.0718,2.1605,2.2064,2.1759,2.2131,2.243,2.2466,2.3147,2.3932,2.4727,2.5591,2.6325,2.6824,2.7361,2.7783,2.8068,2.838,2.8551,2.8385,2.8228,2.7982,2.7569,2.7405,2.7315,2.7307,2.7307,2.7307,2.7307,2.7307,2.7307,2.7307,2.7307,2.7307,2.7307,2.7307,2.7329,2.7465,2.7473,2.7419,2.7326,2.7222,2.7133,2.7103,2.703,2.6948,3.3931,3.3938,3.2302,3.1481,3.1134,2.9452,2.853,2.8152,0.0,0.0,0.0,2.7807,2.7836,2.789,2.7879,2.7872,2.7868,2.7865,2.7829,2.7754,2.784,2.7793,2.7708,2.7749,2.7565,2.7205,2.7197,2.7021,2.67,2.6708,2.6708,2.664,2.5964,2.5152,2.4271,2.297,2.231,2.2317,2.2359,2.2474,2.2692,2.274,2.2882,2.3091,2.2878,2.2408,2.1616,2.1513,2.1071,2.0246,1.974,1.9525,1.9557,1.9008,1.8735,1.8899,1.8649,1.8524,1.8617,1.8281,1.846,1.9405,2.0292,2.0311,1.916,1.951,1.9791,1.9791,2.046,2.0892,2.0907,2.2079,2.2643,2.2099,2.3097,2.3619,2.3387,2.422,2.5089,2.5801,2.623,2.6724,2.7271,2.7605,2.7869,2.8161,2.8437,2.8443,2.8109,2.7975,2.7779,2.7405,2.7323,2.7307,2.7307,2.7307,2.7307,2.7307,2.7307,2.7307,2.7307,2.7307,2.7307,2.7307,2.7307,2.7392,2.7569,2.7605,2.7572,2.7529,2.7428,2.7319,2.7311,2.7297,2.7299,3.4353,3.4306,3.2689,3.1941,3.1758,3.008,2.9319,2.913,2.8261,2.7999,2.8212,2.8212,2.8354,2.8551,2.8619,2.8582,2.8497,2.8519,2.8378,0.0,2.8344,2.819,2.7713,2.794,2.7743,2.7228,2.7197,2.7029,2.6733,2.67,2.6708,2.6615,2.5964,2.4907,2.3596,2.2709,2.2338,2.2401,2.2569,2.2659,2.2699,2.294,2.3066,2.3091,2.3061,2.2598,2.1658,2.2169,2.2025,2.1095,2.1481,2.1452,2.0805,2.0525,2.016,1.9549,1.9216,1.9312,1.989,1.9679,1.9814,2.0492,2.073,2.0706,2.052,2.0265,2.0137,2.0174,2.0971,2.1545,2.1645,2.2692,2.3385,2.3321,2.3582,2.3938,2.426,2.4659,2.5275,2.6157,2.6428,2.6798,2.7459,2.784,2.814,2.843,2.8538,2.8416,2.7929,2.7554,2.7398,2.733,2.7307,2.7307,2.7307,2.7307,2.7307,2.7307,2.7307,2.7307,2.7307,2.7307,2.7307,2.7307,2.7307,2.7329,2.739,2.7547,2.7537,2.7346,2.7352,2.7403,2.7396,2.7517,2.7679,3.4655,3.4515,3.294,3.2256,3.2081,3.0312,2.9542,2.9466,2.9025,2.8851,2.8897,2.8897,2.8956,2.9008,2.8967,2.8868,2.8809,2.8706,2.8532,2.8396,2.8542,2.8213,2.7638,2.8102,2.7937,2.7147,2.7509,2.7547,2.725,2.7077,2.6964,2.6913,2.6053,2.5043,2.4017,2.3301,2.2814,2.2578,2.2697,2.2831,2.2976,2.32,2.3388,2.3485,2.3371,2.3112,2.2647,2.2666,2.2491,2.2029,2.2173,2.2084,2.1677,2.1594,2.1346,2.0877,2.0555,2.0503,2.0799,2.0676,2.075,2.1063,2.123,2.1253,2.1087,2.0729,2.0437,2.0272,2.1267,2.1881,2.1754,2.2857,2.3584,2.3584,2.3771,2.4089,2.4553,2.5096,2.5661,2.6306,2.6725,2.7078,2.7427,2.7833,2.8136,2.8315,2.8456,2.8416,2.7968,2.7686,2.745,2.7346,2.7307,2.7307,2.7307,2.7307,2.7307,2.7307,2.7307,2.7307,2.7307,2.7307,2.7307,2.7307,2.7307,2.7368,2.7475,2.7585,2.759,2.7632,2.7592,2.7688,2.7794,2.8068,2.845,3.4935,3.4817,3.3389,3.2539,3.2049,3.0431,2.9734,2.9734,2.9734,2.968,2.9584,2.95,2.9394,2.9324,2.9153,2.901,2.8962,2.8749,2.8619,2.86,2.86,2.8274,2.7767,2.8328,2.8039,2.7189,2.7752,2.7773,2.7237,2.7239,2.7211,2.6989,2.6213,2.5344,2.4432,2.3939,2.3395,2.2897,2.2939,2.3097,2.3277,2.349,2.3682,2.3795,2.368,2.3577,2.3474,2.3108,2.2818,2.2699,2.2501,2.2321,2.2204,2.219,2.2116,2.1904,2.166,2.1486,2.1418,2.1418,2.1418,2.1449,2.167,2.1708,2.144,2.119,2.0828,2.0551,2.1403,2.1994,2.2008,2.2998,2.3756,2.3784,2.4078,2.4497,2.4926,2.5542,2.6096,2.6513,2.699,2.7305,2.7467,2.7807,2.8088,2.815,2.8398,2.8435,2.8017,2.7789,2.7615,2.7407,2.7307,2.7307,2.7307,2.7307,2.7307,2.7307,2.7307,2.7307,2.7307,2.7307,2.7307,2.7307,2.7307,2.736,2.7564,2.7708,2.7742,2.779,2.7897,2.8054,2.817,2.8443,2.8894,3.5164,3.5028,3.4146,3.2955,3.1531,3.0543,3.0173,3.0135,3.0142,3.0142,3.0068,2.9732,2.9561,2.9466,2.928,2.9121,2.8993,2.8785,2.8669,2.86,2.86,2.8539,2.8419,2.8539,2.8033,2.7185,2.7687,2.7214,2.5931,2.7023,2.7281,2.6654,2.6514,2.5726,2.4394,2.4212,2.3916,2.3283,2.349,2.36,2.3584,2.3816,2.3932,2.3896,2.3876,2.375,2.3538,2.3458,2.3211,2.2758,2.2672,2.2504,2.224,2.219,2.2137,2.1998,2.1897,2.1833,2.1751,2.176,2.1766,2.1823,2.1803,2.1796,2.1787,2.1736,2.1425,2.1017,2.1366,2.1874,2.2175,2.335,2.4102,2.423,2.4675,2.5304,2.5799,2.6184,2.6513,2.698,2.716,2.7382,2.7605,2.7911,2.8088,2.8109,2.8341,2.8304,2.7674,2.7637,2.7607,2.7392,2.7307,2.7307,2.7307,2.7307,2.7307,2.7307,2.7315,2.7329,2.7353,2.7345,2.7323,2.7392,2.7307,2.7346,2.7444,2.7654,2.794,2.7869,2.8047,2.8355,2.8336,2.8417,2.8609,3.4919,3.4407,3.3582,3.2267,3.0835,3.0895,3.0682,3.0227,3.0208,3.0208,3.0171,2.998,2.9888,2.9847,2.9644,2.9413,2.9182,2.8959,2.8773,2.8612,2.86,2.8364,2.7912,2.79,2.7404,2.6597,2.6831,2.6823,2.6762,2.7501,2.7222,2.5995,2.6335,2.5811,2.438,2.4324,2.4094,2.3565,2.3694,2.3816,2.3937,2.4034,2.4039,2.3952,2.3952,2.3891,2.3745,2.3596,2.333,2.2977,2.2779,2.2558,2.2275,2.2254,2.2218,2.212,2.1988,2.1875,2.1855,2.1862,2.1847,2.1857,2.1847,2.1797,2.1563,2.1509,2.1379,2.1247,2.1695,2.2028,2.2034,2.2823,2.3603,2.4089,2.4499,2.5097,2.6001,2.6315,2.6641,2.7029,2.7217,2.7398,2.7664,2.7922,2.8088,2.8116,2.823,2.8051,2.7622,2.7627,2.7569,2.7376,2.7307,2.7307,2.7307,2.7307,2.7315,2.7338,2.7444,2.7549,2.7549,2.7585,2.76,2.7549,2.7407,2.7315,2.7323,2.7577,2.7833,2.7929,2.8326,2.8682,2.8664,2.8533,2.8457,3.4861,3.4239,3.3391,3.2359,3.1297,3.1656,3.135,3.0605,3.0551,3.0437,3.0185,3.0134,3.0121,3.0046,2.9811,2.9523,2.9285,2.901,2.8791,2.8576,2.8394,2.7948,2.7411,2.7158,2.6651,2.6071,2.6373,2.6976,2.7622,2.7532,2.6985,2.6127,2.6548,2.6179,2.5008,2.4754,2.447,2.4163,2.4008,2.4006,2.4161,2.4142,2.4089,2.4026,2.4021,2.3996,2.3922,2.3732,2.3483,2.323,2.3022,2.2753,2.2432,2.2398,2.2352,2.2214,2.2056,2.1964,2.1919,2.1926,2.1897,2.1862,2.1889,2.1811,2.1563,2.1463,2.1456,2.1488,2.1914,2.207,2.201,2.2557,2.325,2.387,2.4213,2.4882,2.5899,2.6253,2.657,2.7051,2.7241,2.7415,2.7682,2.7926,2.8082,2.7999,2.7971,2.788,2.7664,2.756,2.7517,2.7421,2.7368,2.7307,2.7307,2.7307,2.7323,2.7436,2.7592,2.7708,2.7782,2.7826,2.7775,2.763,2.7444,2.7362,2.736,2.7557,2.7918,2.8239,2.8589,2.8827,2.8651,2.8476,2.8219,3.5167,3.4999,3.4273,3.3784,3.3746,3.297,3.2206,3.1442,3.1408,3.0968,3.0303,3.0185,3.016,3.0057,2.9611,2.9329,2.9232,2.8868,2.8662,2.8527,2.7876,2.7459,2.7351,2.6614,2.589,2.5516,2.6542,2.7562,2.8249,2.7103,2.6686,2.732,2.7375,2.7023,2.6154,2.5482,2.5228,2.4993,2.4448,2.418,2.4208,2.4194,2.4166,2.4094,2.4117,2.4069,2.3996,2.3922,2.3758,2.3471,2.344,2.3206,2.2745,2.2659,2.2515,2.2257,2.2176,2.213,2.2013,2.1991,2.1991,2.1998,2.1991,2.1991,2.1911,2.1853,2.1823,2.1869,2.1899,2.2039,2.2305,2.2825,2.3405,2.3761,2.4187,2.489,2.5835,2.5997,2.6414,2.7025,2.7293,2.7465,2.7694,2.7929,2.7943,2.7804,2.772,2.7627,2.7436,2.7345,2.7421,2.7539,2.7473,2.7323,2.7323,2.7376,2.745,2.7592,2.7716,2.7836,2.7904,2.7961,2.7855,2.7745,2.76,2.7511,2.7467,2.7686,2.8161,2.847,2.8688,2.8803,2.8445,2.8188,2.7929,3.4986,3.4407,3.4128,3.3681,3.32,3.3414,3.3047,3.2244,3.1713,3.1293,3.0904,3.0389,3.0135,3.0087,2.9719,2.9456,2.927,2.9105,2.8879,2.8601,2.8292,2.8165,2.8075,2.7357,2.685,2.6614,2.6614,2.6771,2.7127,2.7495,2.7404,2.69,2.7358,2.6996,2.5889,2.5502,2.5124,2.4629,2.4295,2.4194,2.4194,2.4194,2.4198,2.417,2.4166,2.4118,2.4074,2.4031,2.3858,2.3504,2.3506,2.3248,2.2747,2.2525,2.2384,2.2275,2.2218,2.2183,2.212,2.212,2.2089,2.2013,2.2075,2.2082,2.2013,2.1967,2.1969,2.1962,2.1962,2.2056,2.2234,2.2513,2.2907,2.3469,2.3774,2.4274,2.5133,2.5723,2.6199,2.6586,2.7195,2.779,2.7742,2.7922,2.7978,2.7742,2.7554,2.7429,2.7353,2.7315,2.7405,2.763,2.7637,2.7612,2.7815,2.7667,2.7637,2.7789,2.7936,2.8213,2.8365,2.8501,2.8487,2.8226,2.801,2.7789,2.7774,2.7793,2.825,2.8281,2.8514,2.8507,2.8147,2.7865,2.7612,3.4576,3.4098,3.4277,3.4044,3.362,3.414,3.391,3.3062,3.2225,3.171,3.1301,3.05,3.0127,3.0098,2.9921,2.9697,2.9443,2.9274,2.8982,2.8589,2.8328,2.8219,2.8075,2.7387,2.7007,2.694,2.6517,2.6474,2.7036,2.7912,2.7887,2.7267,2.7353,2.6948,2.6096,2.5404,2.48,2.4542,2.4332,2.4194,2.4194,2.4194,2.4194,2.4194,2.4194,2.417,2.4123,2.4103,2.3963,2.3708,2.3649,2.3427,2.2991,2.2619,2.2426,2.2412,2.2303,2.2242,2.2242,2.2218,2.2173,2.2089,2.2159,2.218,2.2082,2.2068,2.2068,2.2068,2.2075,2.2113,2.2183,2.2252,2.2499,2.3018,2.32,2.362,2.4447,2.5244,2.5964,2.6683,2.7497,2.7879,2.78,2.795,2.7897,2.7637,2.7398,2.7321,2.7405,2.7444,2.7587,2.7904,2.789,2.7975,2.814,2.8117,2.8031,2.8131,2.8206,2.8506,2.8718,2.8912,2.8917,2.8682,2.8443,2.8226,2.8093,2.8072,2.8044,2.8024,2.8113,2.8219,2.7883,2.7577,2.7342,3.3995,3.4029,3.4823,3.4999,3.4885,3.5018,3.4694,3.3933,3.3028,3.2183,3.1515,3.0583,3.0201,3.019,3.009,2.9958,2.9696,2.93,2.8962,2.8615,2.7949,2.7647,2.761,2.6952,2.6596,2.6566,2.6418,2.7173,2.8409,2.8075,2.811,2.8412,2.7308,2.6966,2.7531,2.5494,2.4647,2.4842,2.4482,2.4213,2.4194,2.4194,2.4194,2.4194,2.4194,2.4203,2.4203,2.4123,2.4069,2.3981,2.3907,2.3771,2.3435,2.2984,2.2681,2.2626,2.2446,2.2324,2.2313,2.2289,2.2271,2.2211,2.2254,2.2261,2.2204,2.219,2.219,2.219,2.2183,2.2207,2.2228,2.231,2.2432,2.2511,2.2685,2.3052,2.3808,2.4584,2.5709,2.7175,2.7858,2.795,2.7826,2.7933,2.7904,2.7524,2.7366,2.7421,2.76,2.7627,2.7954,2.8313,2.8308,2.8255,2.8437,2.8589,2.8532,2.8513,2.8551,2.8706,2.8828,2.8976,2.8923,2.8743,2.8552,2.8352,2.8346,2.8281,2.8079,2.8037,2.8037,2.7901,2.7565,2.7276,2.7108,3.3104,3.3219,3.4025,3.4369,3.4449,3.4961,3.5037,3.4655,3.3329,3.2546,3.2069,3.0815,3.0208,3.0197,3.0123,3.0,2.9788,2.9561,2.9336,2.9036,2.8667,2.8459,2.8394,2.8046,2.7833,2.787,2.7919,2.8143,2.8512,2.8518,2.8633,2.853,2.7815,2.7138,2.6799,2.5581,2.4869,2.4479,2.4317,2.4194,2.4194,2.4213,2.4213,2.4194,2.4194,2.418,2.4141,2.4156,2.4108,2.3988,2.3981,2.3837,2.3521,2.3187,2.2908,2.2725,2.2626,2.248,2.2324,2.2313,2.2289,2.2268,2.2289,2.2272,2.2285,2.2268,2.2261,2.2268,2.2278,2.2268,2.2299,2.2352,2.2477,2.2494,2.2569,2.2928,2.3832,2.4964,2.6147,2.7168,2.7657,2.7757,2.7779,2.7947,2.7982,2.7682,2.7577,2.7627,2.7701,2.7782,2.7936,2.8424,2.8417,2.8514,2.8682,2.8785,2.8761,2.8731,2.8779,2.8779,2.8899,2.8952,2.8917,2.8833,2.8663,2.8526,2.8526,2.8373,2.8134,2.7894,2.7772,2.7535,2.7206,2.7023,2.6899,3.2241,3.2336,3.3513,3.3991,3.4105,3.4861,3.5186,3.5014,3.3773,3.3028,3.247,3.1293,3.0491,3.0258,3.016,3.0068,2.9922,2.9861,2.9745,2.9547,2.9249,2.9117,2.908,2.8869,2.8687,2.8637,2.8663,2.8675,2.8656,2.8785,2.8822,2.8646,2.8031,2.7226,2.6379,2.5654,2.4899,2.4225,2.4472,2.4658,2.469,2.4904,2.5069,2.5042,2.4779,2.4584,2.4543,2.4278,2.4079,2.3968,2.3919,2.3795,2.3614,2.3388,2.317,2.2998,2.2792,2.2619,2.2477,2.2366,2.2313,2.2313,2.2313,2.2313,2.2313,2.2313,2.2313,2.2313,2.2313,2.2429,2.2656,2.2792,2.2964,2.3313,2.286,2.3141,2.4115,2.5335,2.6444,2.7237,2.7716,2.7815,2.7897,2.811,2.8154,2.7936,2.7858,2.7926,2.7961,2.8048,2.8339,2.8582,2.8712,2.8834,2.8934,2.8982,2.8976,2.8953,2.8941,2.8905,2.8934,2.8964,2.8952,2.894,2.8815,2.8507,2.8456,2.8221,2.7989,2.7765,2.751,2.7236,2.6983,2.69,2.6792,3.1385,3.1576,3.3131,3.3742,3.3838,3.4674,3.5033,3.4938,3.4159,3.3356,3.2627,3.1618,3.0876,3.0322,3.0204,3.0157,3.0105,3.0076,3.0049,2.9905,2.9608,2.9345,2.9188,2.8991,2.8773,2.8637,2.8675,2.8682,2.8687,2.8767,2.8767,2.8531,2.7789,2.714,2.6311,2.5611,2.4944,2.4574,2.5075,2.5438,2.5479,2.6033,2.6402,2.6397,2.569,2.5293,2.5233,2.4728,2.4189,2.3938,2.386,2.38,2.3758,2.362,2.3491,2.3417,2.3015,2.2797,2.2676,2.2487,2.2338,2.231,2.2313,2.2313,2.2313,2.2431,2.2499,2.2499,2.2455,2.2726,2.3296,2.3306,2.3674,2.4298,2.3679,2.3832,2.487,2.5764,2.6639,2.7422,2.789,2.8061,2.802,2.8326,2.8347,2.817,2.8095,2.8255,2.8391,2.8481,2.8694,2.8834,2.8923,2.8953,2.8987,2.8987,2.8994,2.8994,2.8994,2.8964,2.8952,2.8969,2.8969,2.8964,2.8923,2.8614,2.8326,2.8113,2.7797,2.7457,2.7213,2.6957,2.6859,2.68,2.675,3.0529,3.0624,3.1694,3.2153,3.2382,3.3685,3.4315,3.4197,3.3429,3.2947,3.2409,3.1156,3.0494,3.0208,3.0208,3.0201,3.0164,3.0116,3.0098,3.0072,2.9917,2.9513,2.9095,2.8833,2.8669,2.8612,2.8669,2.8687,2.8644,2.8718,2.8434,2.7749,2.7179,2.6586,2.6147,2.5579,2.5464,2.5744,2.5999,2.6211,2.6242,2.6409,2.6469,2.643,2.6215,2.606,2.6031,2.5788,2.5032,2.3992,2.385,2.3795,2.3844,2.3791,2.3712,2.3497,2.3348,2.3072,2.2784,2.2619,2.2501,2.2324,2.2313,2.2313,2.2337,2.281,2.3054,2.3105,2.3115,2.3393,2.3879,2.3444,2.336,2.3904,2.4584,2.5227,2.5732,2.6488,2.7129,2.7394,2.7657,2.78,2.7964,2.8246,2.8469,2.8257,2.8328,2.85,2.8614,2.8663,2.8761,2.8899,2.8964,2.8975,2.8987,2.8987,2.8987,2.8987,2.8999,2.8999,2.8975,2.8981,2.8958,2.8934,2.8929,2.87,2.8347,2.8054,2.7641,2.7235,2.6997,2.6808,2.6825,2.68,2.6742,3.0208,3.0284,3.114,3.148,3.1633,3.2875,3.3452,3.3352,3.2947,3.2466,3.2012,3.1197,3.051,3.0208,3.0208,3.0194,3.0141,3.0112,3.0101,3.0057,2.9914,2.9598,2.9188,2.895,2.8803,2.86,2.8644,2.842,2.8238,2.8493,2.8046,2.723,2.7163,2.6891,2.6252,2.6271,2.6169,2.645,2.675,2.7002,2.6997,2.7294,2.743,2.7298,2.7069,2.669,2.6335,2.6203,2.575,2.5047,2.4849,2.4683,2.4339,2.4308,2.4098,2.3697,2.3457,2.3152,2.2914,2.2692,2.2467,2.2338,2.2313,2.2472,2.275,2.319,2.3451,2.3806,2.384,2.4244,2.4757,2.456,2.4509,2.4893,2.5855,2.6446,2.617,2.6774,2.7238,2.7368,2.7517,2.7757,2.7858,2.8306,2.8488,2.8539,2.8657,2.8743,2.8785,2.8767,2.8755,2.8839,2.8934,2.8934,2.8952,2.8958,2.8975,2.8975,2.8975,2.8975,2.8969,2.8958,2.8845,2.8815,2.8857,2.8719,2.8224,2.7819,2.7545,2.7178,2.6881,2.6775,2.6817,2.6867,2.6792,3.0206,3.0265,3.1045,3.1328,3.1381,3.2203,3.2565,3.2562,3.2504,3.2126,3.158,3.1347,3.072,3.0227,3.0208,3.0171,3.0097,3.012,3.0105,3.0038,2.989,2.9593,2.9309,2.9177,2.8944,2.8656,2.86,2.8256,2.8002,2.828,2.7701,2.6995,2.7689,2.7538,2.6777,2.707,2.717,2.7017,2.7495,2.7786,2.786,2.8197,2.8397,2.8349,2.7888,2.7296,2.6819,2.6596,2.6493,2.647,2.6325,2.566,2.5081,2.4967,2.4536,2.3846,2.3417,2.3176,2.2974,2.2612,2.2352,2.2334,2.2313,2.2624,2.3173,2.3519,2.3891,2.4558,2.4609,2.4901,2.5343,2.621,2.6269,2.6002,2.6653,2.6722,2.6557,2.6876,2.7307,2.733,2.7549,2.7807,2.8093,2.8398,2.8682,2.8737,2.8834,2.8743,2.8718,2.8639,2.8645,2.8694,2.8785,2.8851,2.8893,2.8941,2.8952,2.8964,2.8964,2.8958,2.8934,2.8863,2.8706,2.8614,2.8533,2.823,2.7779,2.7462,2.7386,2.7311,2.7131,2.698,2.6882,2.6932,2.6899,3.0244,3.0227,3.0399,3.0475,3.0586,3.1369,3.1729,3.1687,3.1687,3.1553,3.1289,3.0758,3.0399,3.0208,3.0208,3.0181,3.0171,3.019,3.0176,3.0094,3.0068,2.9724,2.9358,2.9177,2.8898,2.8662,2.86,2.8473,2.831,2.7857,2.752,2.7224,2.7013,2.6904,2.72,2.7404,2.7815,2.8106,2.8427,2.8445,2.8421,2.8567,2.8687,2.8638,2.8419,2.8274,2.8141,2.8093,2.8087,2.7779,2.694,2.6041,2.5371,2.5135,2.4665,2.3897,2.3528,2.3271,2.2863,2.2665,2.2521,2.2324,2.2405,2.2591,2.3342,2.3992,2.4575,2.5185,2.5403,2.5386,2.532,2.5819,2.618,2.6234,2.6335,2.6653,2.6962,2.7178,2.729,2.7353,2.7526,2.7775,2.8061,2.8347,2.8632,2.8887,2.8864,2.8718,2.8601,2.8495,2.8488,2.8501,2.8495,2.8545,2.8657,2.8731,2.8834,2.8893,2.8911,2.8923,2.8899,2.8706,2.8502,2.8297,2.8123,2.7801,2.7555,2.7614,2.7636,2.751,2.7421,2.7344,2.7276,2.7197,2.7029,3.0269,3.0238,3.0216,3.0208,3.0284,3.0685,3.0854,3.0835,3.0831,3.0831,3.0755,3.036,3.0227,3.0208,3.0208,3.0208,3.0208,3.0208,3.0197,3.0146,3.0091,2.9811,2.9409,2.918,2.8967,2.8651,2.86,2.8437,2.8075,2.7942,2.7604,2.7013,2.7085,2.7387,2.7489,2.7828,2.8264,2.8555,2.8725,2.8725,2.8694,2.8657,2.865,2.8606,2.86,2.86,2.8539,2.8557,2.8582,2.8382,2.7767,2.6952,2.6288,2.6084,2.5432,2.4277,2.3892,2.3462,2.2955,2.2572,2.2439,2.2341,2.2591,2.3197,2.3849,2.4585,2.5353,2.5995,2.6196,2.6063,2.556,2.6178,2.645,2.6224,2.6439,2.6833,2.7203,2.7307,2.7307,2.7338,2.7421,2.7637,2.7894,2.8195,2.8341,2.8489,2.8694,2.8582,2.8354,2.8268,2.8235,2.8221,2.817,2.821,2.836,2.8488,2.8663,2.8743,2.8834,2.8852,2.8833,2.857,2.827,2.8129,2.802,2.7847,2.7669,2.7764,2.7815,2.7669,2.7609,2.7686,2.7619,2.7359,2.7213,3.0322,3.0293,3.0227,3.0208,3.0208,3.0227,3.0265,3.0227,3.0208,3.0303,3.0227,3.0208,3.0208,3.0208,3.0208,3.0208,3.0208,3.0208,3.0201,3.0194,3.0129,2.9864,2.9523,2.9343,2.9155,2.8737,2.8631,2.8262,2.8032,2.8038,2.7725,2.6994,2.7659,2.7973,2.7846,2.8252,2.8639,2.8669,2.8712,2.8688,2.8663,2.8613,2.8606,2.86,2.86,2.86,2.86,2.86,2.86,2.86,2.86,2.8238,2.7785,2.732,2.6549,2.4706,2.4297,2.3684,2.2814,2.2456,2.2334,2.2337,2.2779,2.347,2.4154,2.4654,2.5379,2.6231,2.6611,2.6626,2.6274,2.6678,2.6786,2.6578,2.6921,2.7238,2.7307,2.7307,2.7307,2.7315,2.736,2.7496,2.7694,2.794,2.8013,2.8105,2.8328,2.8404,2.8174,2.8014,2.7947,2.7865,2.78,2.7869,2.801,2.8323,2.8488,2.8595,2.8706,2.8761,2.8773,2.8589,2.8352,2.8123,2.7996,2.7851,2.7815,2.7897,2.789,2.7786,2.789,2.8038,2.7861,2.7519,2.739,3.0397,3.0293,3.0227,3.0208,3.0208,3.0208,3.0188,3.0208,3.015,3.0188,3.015,3.0188,3.015,3.0169,3.0208,3.0208,3.0208,3.0208,3.0188,3.019,3.0129,2.9924,2.9671,2.9542,2.9367,2.9121,2.8839,2.8511,2.8244,2.79,2.7918,2.8064,2.7925,2.7901,2.8367,2.8688,2.8706,2.8644,2.8675,2.8657,2.8631,2.8612,2.86,2.86,2.8606,2.8612,2.8606,2.86,2.86,2.86,2.86,2.8509,2.8256,2.7767,2.653,2.5112,2.4475,2.3907,2.2829,2.2383,2.232,2.2323,2.2514,2.2852,2.3431,2.3879,2.4898,2.5841,2.6653,2.6914,2.6862,2.7018,2.7067,2.7005,2.7095,2.7307,2.7307,2.7307,2.7307,2.7307,2.7321,2.7351,2.7562,2.772,2.7819,2.789,2.7975,2.8007,2.7854,2.7694,2.7591,2.7487,2.7398,2.7509,2.7639,2.8054,2.8336,2.8456,2.8552,2.87,2.8712,2.8644,2.8473,2.8279,2.8104,2.7943,2.7954,2.8034,2.8147,2.8197,2.8315,2.8426,2.8156,2.7865,2.7634,3.045,3.0403,3.026,3.0208,3.0208,3.0208,2.9921,2.9551,2.9513,2.9284,2.9134,2.9322,2.9532,2.965,3.0055,3.0208,3.0208,3.0208,3.0178,3.013,3.0095,2.9956,2.9719,2.9626,2.947,2.9262,2.8973,2.8803,2.8761,2.8318,2.8257,2.8408,2.8221,2.8293,2.8547,2.8644,2.8662,2.8612,2.8637,2.8644,2.86,2.86,2.8618,2.8606,2.8644,2.8656,2.8656,2.8638,2.8638,2.865,2.8619,2.86,2.8467,2.8128,2.7329,2.5932,2.5142,2.4348,2.321,2.2698,2.2282,2.2314,2.2536,2.2938,2.3484,2.4133,2.4915,2.5985,2.6576,2.7008,2.6982,2.7054,2.7094,2.7119,2.7217,2.7299,2.7307,2.7307,2.7307,2.7307,2.7323,2.7353,2.7411,2.7562,2.7649,2.7694,2.7694,2.7672,2.7594,2.7654,2.7644,2.7559,2.7532,2.7513,2.7689,2.8042,2.8401,2.8489,2.862,2.8771,2.8717,2.8685,2.861,2.8466,2.8277,2.8128,2.8124,2.8208,2.8403,2.8543,2.8518,2.8497,2.8401,2.8217,2.7908,3.0479,3.0482,3.0267,3.0208,3.0188,3.0013,2.9548,2.8949,2.8723,2.8363,2.7851,2.8363,2.8761,2.9105,2.9742,3.0208,3.0208,3.0208,3.0171,3.0142,3.0098,2.996,2.9817,2.9685,2.9584,2.948,2.9251,2.9069,2.8922,2.8633,2.8582,2.8601,2.8607,2.8619,2.8631,2.8662,2.8613,2.8625,2.8656,2.8656,2.8656,2.8789,2.8764,2.8674,2.8706,2.8724,2.8706,2.8688,2.8675,2.8651,2.8613,2.86,2.86,2.86,2.816,2.7245,2.6098,2.4966,2.3826,2.2845,2.2264,2.2238,2.2753,2.2991,2.3418,2.4216,2.5555,2.6451,2.6908,2.6942,2.6933,2.7006,2.7054,2.7104,2.7193,2.7307,2.7307,2.7307,2.7307,2.7307,2.7307,2.7346,2.7382,2.7405,2.7503,2.7503,2.7511,2.7826,2.7812,2.8085,2.8093,2.7914,2.781,2.7693,2.7838,2.8157,2.85,2.8759,2.8947,2.9158,2.8964,2.8787,2.8701,2.8627,2.8542,2.8408,2.839,2.8377,2.8499,2.8581,2.8593,2.8568,2.8479,2.8254,2.7927,3.0479,3.048,3.027,3.0208,3.0093,2.9452,2.9029,2.8799,2.8169,2.781,2.7491,2.7797,2.8211,2.8956,2.9742,3.0147,3.0208,3.0208,3.0197,3.0169,3.0121,3.0072,3.0011,2.9924,2.9826,2.9707,2.9575,2.9324,2.9075,2.8785,2.8644,2.8688,2.8675,2.8682,2.8669,2.8706,2.8749,2.8694,2.8743,2.8767,2.8852,2.9356,2.9241,2.8931,2.8773,2.8761,2.8724,2.8694,2.8693,2.8613,2.8612,2.86,2.86,2.86,2.8404,2.7625,2.6419,2.4829,2.3725,2.2852,2.2339,2.2336,2.2464,2.2305,2.3121,2.4069,2.5232,2.5676,2.6435,2.685,2.6825,2.6916,2.6966,2.7072,2.7161,2.7258,2.729,2.7307,2.7307,2.7307,2.7307,2.7307,2.7346,2.7329,2.7329,2.7321,2.7407,2.777,2.8117,2.8446,2.8844,2.8776,2.833,2.8164,2.8263,2.8554,2.8837,2.9115,2.9436,2.9641,2.9537,2.9337,2.8817,2.875,2.869,2.8618,2.8524,2.8518,2.8587,2.8537,2.8479,2.8518,2.8587,2.829,2.7972,3.0479,3.0484,3.0324,3.0237,3.0173,2.9784,2.9074,2.8265,2.7851,2.7166,2.652,2.6803,2.766,2.8761,2.9353,2.9742,3.0109,3.0204,3.0179,3.0151,3.011,3.0049,2.9972,2.9936,2.9911,2.9851,2.9703,2.9528,2.9249,2.9019,2.8839,2.8839,2.8718,2.8675,2.8718,2.8743,2.8749,2.8755,2.8779,2.881,2.8889,2.9114,2.9156,2.8779,2.8785,2.8767,2.8712,2.8694,2.8682,2.8632,2.8631,2.86,2.86,2.8562,2.8396,2.778,2.6329,2.5125,2.4336,2.3367,2.2868,2.2837,2.3009,2.3611,2.4065,2.4655,2.5437,2.6192,2.6538,2.6725,2.6742,2.6842,2.6933,2.7024,2.7129,2.7226,2.7274,2.7307,2.7307,2.7307,2.7307,2.7307,2.7341,2.7435,2.7599,2.7832,2.7988,2.8325,2.8679,2.9007,2.9437,2.9846,2.9264,2.8699,2.8865,2.9109,2.9428,2.9754,3.024,3.0371,3.0298,3.0013,2.9439,2.9022,2.8914,2.8799,2.869,2.8635,2.867,2.8508,2.8319,2.838,2.8412,2.8439,2.8376,3.0522,3.0487,3.0344,3.0244,3.0173,2.9975,2.9035,2.7778,2.7431,2.6558,2.5819,2.6313,2.7507,2.8513,2.9067,2.972,3.0167,3.0174,3.0158,3.0114,3.0057,3.0003,2.996,2.9928,2.9911,2.9911,2.9773,2.9694,2.9584,2.9334,2.9104,2.9065,2.8773,2.8731,2.8749,2.8785,2.8804,2.887,2.9113,2.9095,2.8961,2.9113,2.9034,2.8889,2.881,2.881,2.8749,2.8725,2.8718,2.8662,2.8625,2.86,2.86,2.8574,2.8382,2.7758,2.6591,2.5838,2.5065,2.4189,2.3446,2.3327,2.3582,2.4007,2.5176,2.5586,2.5888,2.6539,2.6649,2.67,2.6733,2.6817,2.6917,2.6999,2.7088,2.7169,2.7258,2.7299,2.7307,2.7307,2.7307,2.7307,2.7376,2.7548,2.7833,2.8265,2.8584,2.8903,2.9283,2.9686,3.0076,3.0531,2.9942,2.9461,2.9766,2.9953,3.0156,3.0442,3.0941,3.1009,3.0865,3.0466,2.9916,2.9554,2.9264,2.9282,2.9337,2.9038,2.872,2.8479,2.8283,2.8201,2.8219,2.8339,2.8793,3.054,3.0484,3.0279,3.0164,3.0109,2.9318,2.8494,2.7549,2.6842,2.6064,2.5475,2.6692,2.7393,2.8077,2.9105,2.9798,3.0109,3.0128,3.0106,3.0072,3.003,3.0007,2.996,2.9936,2.9916,2.9916,2.9864,2.9897,2.9851,2.9537,2.9355,2.923,2.8904,2.8868,2.8885,2.8916,2.8899,2.9044,2.9422,2.9447,2.9318,2.9416,2.9563,2.9074,2.8946,2.8917,2.8779,2.8779,2.8724,2.8625,2.8606,2.86,2.86,2.86,2.8395,2.7895,2.7179,2.6576,2.6065,2.4846,2.3626,2.3292,2.3533,2.4269,2.5496,2.5563,2.5932,2.6581,2.6691,2.6708,2.6733,2.6809,2.6892,2.6983,2.7072,2.7161,2.7242,2.7299,2.7307,2.7307,2.7307,2.7307,2.7531,2.7713,2.8196,2.8644,2.936,2.9696,3.0137,3.0517,3.081,3.0972,3.0459,3.0343,3.0801,3.099,3.1094,3.1375,3.18,3.1636,3.1329,3.0876,3.0593,3.0049,2.9771,2.9886,3.0,2.9897,2.9541,2.8669,2.8262,2.8331,2.8478,2.8656,2.9221,3.0518,3.0326,2.9688,2.9395,2.9376,2.9048,2.8134,2.6975,2.6536,2.595,2.5249,2.5912,2.6749,2.7676,2.8194,2.9211,2.9968,3.0083,3.0072,3.0042,2.9996,2.9991,2.9952,2.9952,2.9925,2.9917,2.9968,3.0007,2.9944,2.9694,2.9734,2.9551,2.9106,2.9007,2.9013,2.9031,2.8981,2.903,2.9262,2.9244,2.9207,2.9183,2.9287,2.8995,2.8934,2.8851,2.8749,2.8749,2.8681,2.8625,2.86,2.86,2.86,2.86,2.8435,2.813,2.7466,2.7212,2.7106,2.599,2.5323,2.5348,2.5279,2.528,2.5984,2.611,2.6286,2.6607,2.6708,2.6708,2.6725,2.675,2.6825,2.695,2.7048,2.7137,2.7226,2.7283,2.7307,2.7307,2.7307,2.7307,2.7617,2.792,2.8489,2.9075,2.9816,3.0475,3.0817,3.0999,3.1152,3.1222,3.0751,3.0754,3.1184,3.156,3.1922,3.2274,3.2596,3.2288,3.1944,3.1843,3.148,3.0846,3.0357,3.0484,3.0625,3.0831,3.0378,2.9438,2.8893,2.8669,2.8819,2.9025,2.9672,3.0342,2.9905,2.9184,2.8895,2.8876,2.865,2.7733,2.6577,2.6408,2.595,2.5246,2.5475,2.6141,2.7157,2.7974,2.8519,2.9542,2.9878,2.9973,2.9988,2.9972,2.9983,2.9964,2.9976,3.0018,2.998,3.003,3.0061,3.0023,2.9841,2.9878,2.9781,2.9402,2.9198,2.9193,2.908,2.8987,2.8987,2.8987,2.8987,2.8987,2.8999,2.903,2.894,2.894,2.8875,2.8785,2.8743,2.8693,2.8631,2.86,2.86,2.86,2.8574,2.8461,2.8166,2.7877,2.7647,2.7606,2.6967,2.6501,2.6414,2.5992,2.6067,2.6419,2.6546,2.659,2.6657,2.6708,2.6708,2.6708,2.6733,2.68,2.6925,2.6991,2.708,2.7177,2.725,2.7291,2.7307,2.7324,2.7428,2.8196,2.8628,2.9248,2.9816,3.0414,3.0897,3.1041,3.1135,3.1067,3.1095,3.0954,3.1123,3.1411,3.1783,3.219,3.2734,3.2958,3.2868,3.264,3.2531,3.2042,3.1154,3.0858,3.1057,3.1338,3.165,3.1051,3.0161,2.9602,2.9029,2.9377,2.9644,3.0139,2.9974,2.9228,2.8934,2.8815,2.8647,2.8023,2.7186,2.631,2.6272,2.5895,2.5325,2.5857,2.6252,2.6835,2.7895,2.8684,2.909,2.9699,2.9927,2.9812,2.995,2.9988,2.9946,2.995,3.0084,3.0095,3.011,3.0125,3.0087,2.9938,3.0004,2.9933,2.9547,2.9267,2.9427,2.9157,2.9017,2.8987,2.8987,2.8987,2.8987,2.8987,2.8999,2.8964,2.8958,2.8893,2.8845,2.8815,2.8767,2.8706,2.8681,2.8656,2.8606,2.86,2.8568,2.8501,2.8483,2.847,2.8419,2.6914,2.6592,2.6743,2.6286,2.6008,2.6377,2.6555,2.6623,2.6691,2.6708,2.6708,2.6708,2.6716,2.68,2.6884,2.6958,2.704,2.7145,2.725,2.7291,2.7583,2.7531,2.7644,2.8611,2.9429,3.0081,3.0636,3.1127,3.1333,3.1315,3.1137,3.0968,3.1025,3.1015,3.1359,3.1628,3.2013,3.2449,3.304,3.3284,3.314,3.3067,3.2958,3.2325,3.1437,3.1636,3.2107,3.2329,3.254,3.1772,3.0973,2.9927,2.9471,2.9844,3.0168,3.0559,2.911,2.8898,2.7736,2.724,2.7205,2.6956,2.6367,2.5682,2.5587,2.5456,2.5287,2.5554,2.5969,2.6622,2.744,2.8325,2.894,2.9653,2.992,2.9296,2.9722,2.9589,2.9566,2.9832,3.0079,3.0098,3.0136,3.0131,3.0098,3.0015,2.998,2.9901,2.9542,2.9267,2.9187,2.904,2.8987,2.8987,2.8987,2.8987,2.8987,2.8999,2.8964,2.894,2.8934,2.8916,2.8927,2.8903,2.888,2.8833,2.8821,2.8755,2.8626,2.86,2.86,2.86,2.8593,2.846,2.8188,2.7385,2.7034,2.6815,2.6472,2.6142,2.6512,2.6563,2.6632,2.6683,2.6683,2.6683,2.6708,2.6708,2.6775,2.6876,2.695,2.7023,2.712,2.7234,2.7385,2.7911,2.8083,2.8748,2.9601,2.9986,3.0575,3.0868,3.1226,3.1319,3.1303,3.0962,3.074,3.0898,3.1048,3.1464,3.1843,3.2135,3.2602,3.3167,3.3357,3.3321,3.3284,3.3248,3.2832,3.2053,3.2614,3.3179,3.2824,3.2532,3.2448,3.181,3.0845,3.0089,3.0167,3.0405,3.0644,2.8548,2.8018,2.6923,2.6253,2.6032,2.5988,2.5663,2.5246,2.5207,2.5207,2.5207,2.5229,2.5456,2.611,2.6826,2.7649,2.845,2.891,2.944,2.8824,2.9364,2.9268,2.9279,2.9644,3.0059,3.0151,3.0169,3.0167,3.0142,3.0094,2.9929,2.9667,2.9435,2.9222,2.9089,2.8998,2.8987,2.8987,2.8987,2.8987,2.8999,2.8988,2.8946,2.8911,2.8911,2.891,2.8959,2.8999,2.8999,2.9007,2.8968,2.8875,2.87,2.86,2.86,2.86,2.8574,2.835,2.7947,2.7638,2.7218,2.6888,2.6573,2.6478,2.6555,2.6589,2.664,2.6674,2.6683,2.67,2.6708,2.6717,2.6826,2.6936,2.7003,2.7077,2.7252,2.7384,2.7835,2.8334,2.8937,2.9705,3.034,3.0652,3.0987,3.1139,3.1281,3.1281,3.1274,3.0992,3.075,3.0908,3.1127,3.1518,3.1887,3.2196,3.2684,3.3286,3.3393,3.3393,3.3375,3.3302,3.2995,3.2687,3.2795,3.2806,3.2618,3.2442,3.2598,3.2464,3.1901,3.1246,3.0722,3.081,3.108,2.8274,2.6803,2.6526,2.5954,2.5295,2.5306,2.5229,2.5207,2.5205,2.5205,2.5207,2.5205,2.5278,2.5412,2.6101,2.687,2.756,2.7752,2.8065,2.8484,2.8703,2.8694,2.9036,2.953,2.9916,3.014,3.0201,3.0164,3.0176,2.9921,2.9644,2.9425,2.9288,2.9149,2.9038,2.8987,2.8987,2.8987,2.8987,2.8975,2.8982,2.894,2.8905,2.8881,2.8863,2.8944,2.9028,2.9088,2.9095,2.908,2.9037,2.8863,2.8724,2.8606,2.86,2.8593,2.8593,2.8192,2.7783,2.75,2.7172,2.6808,2.664,2.6546,2.6546,2.6606,2.6615,2.6699,2.6741,2.6724,2.6732,2.6841,2.6932,2.7019,2.7071,2.7233,2.7452,2.7799,2.8345,2.8904,2.9498,3.0126,3.0593,3.0961,3.1189,3.123,3.1288,3.1239,3.1222,3.1213,3.1045,3.1075,3.1303,3.16,3.1932,3.2299,3.2724,3.3308,3.3386,3.3393,3.3393,3.3393,3.3212,3.294,3.2603,3.2517,3.2687,3.2841,3.2975,3.2749,3.2365,3.196,3.1306,3.1538,3.1812,2.7024,2.6502,2.5844,2.5433,2.5232,2.5207,2.5207,2.5205,2.5143,2.5159,2.5207,2.514,2.5165,2.5284,2.603,2.6466,2.6899,2.7236,2.7249,2.7539,2.7955,2.8007,2.8376,2.899,2.957,3.0016,3.0159,3.0128,2.9929,2.9685,2.9489,2.9309,2.9168,2.9072,2.9038,2.8987,2.8987,2.8987,2.8987,2.8969,2.8946,2.8923,2.887,2.8803,2.8898,2.9006,2.9161,2.9306,2.9336,2.939,2.9262,2.909,2.8916,2.8724,2.8593,2.8568,2.8383,2.8034,2.7601,2.7326,2.7029,2.6742,2.6639,2.6589,2.6572,2.6605,2.6606,2.6656,2.6932,2.7066,2.7249,2.739,2.7567,2.7748,2.7813,2.797,2.8211,2.8605,2.9154,2.9877,3.0455,3.0676,3.1096,3.1149,3.135,3.1322,3.1295,3.122,3.119,3.119,3.1271,3.13,3.1466,3.1731,3.2127,3.2493,3.2886,3.3263,3.3323,3.3393,3.3393,3.3393,3.3393,3.3248,3.2966,3.2969,3.3118,3.3199,3.3211,3.299,3.2637,3.2299,3.2065,3.2197,3.2223,2.6374,2.6008,2.5493,2.5212,2.5213,2.5207,2.5207,2.5185,2.5159,2.5171,2.5207,2.5168,2.5165,2.5246,2.5682,2.6061,2.6444,2.646,2.6664,2.7424,2.7434,2.766,2.8023,2.8749,2.9398,2.9803,3.0011,3.009,2.9828,2.9518,2.9304,2.9278,2.9093,2.9065,2.9071,2.9055,2.8987,2.8987,2.8981,2.8969,2.8946,2.8899,2.8821,2.8791,2.892,2.9112,2.9272,2.9426,2.9461,2.946,2.9283,2.9075,2.8881,2.8675,2.86,2.8574,2.8473,2.8086,2.7695,2.7434,2.7036,2.6801,2.6841,2.7026,2.6891,2.6824,2.6664,2.6595,2.7113,2.7547,2.7805,2.8089,2.8395,2.8695,2.8789,2.8908,2.9188,2.9537,3.0201,3.0945,3.1315,3.1484,3.1598,3.1547,3.1414,3.1259,3.12,3.121,3.119,3.119,3.1349,3.1475,3.1629,3.186,3.2274,3.2658,3.2972,3.3263,3.3338,3.3393,3.3393,3.3393,3.3393,3.3393,3.3339,3.3259,3.3071,3.3288,3.3311,3.3109,3.3056,3.2957,3.27,3.2492,3.2449,2.612,2.5406,2.5317,2.525,2.5216,2.5207,2.5207,2.5207,2.5185,2.5207,2.5207,2.5183,2.5183,2.5229,2.5379,2.5685,2.5931,2.5969,2.6482,2.7584,2.7625,2.7759,2.8367,2.9211,2.9497,2.9475,2.9634,3.0064,2.9822,2.9518,2.9283,2.9286,2.9088,2.9055,2.9143,2.9055,2.8987,2.8987,2.8999,2.8988,2.8958,2.8923,2.8857,2.884,2.8944,2.9082,2.9225,2.9293,2.9298,2.9249,2.9114,2.8904,2.8724,2.8619,2.86,2.8531,2.8479,2.8138,2.7754,2.7472,2.7267,2.7165,2.7288,2.7564,2.7531,2.7394,2.7266,2.7349,2.7875,2.8241,2.8507,2.8994,2.9377,2.9518,2.9594,2.9764,3.0026,3.0368,3.0856,3.1437,3.1584,3.1726,3.1642,3.1557,3.1462,3.123,3.1141,3.119,3.1242,3.1252,3.1439,3.1675,3.1959,3.2205,3.251,3.286,3.306,3.3263,3.3353,3.3393,3.3393,3.3393,3.3393,3.3393,3.3375,3.3049,3.2922,3.3168,3.3404,3.3377,3.3399,3.361,3.3448,3.3136,3.3107,2.5519,2.5315,2.5253,2.5214,2.5213,2.5207,2.521,2.5207,2.5207,2.5207,2.5205,2.5162,2.5162,2.5207,2.5207,2.5418,2.5475,2.5947,2.6326,2.701,2.745,2.8115,2.8494,2.915,2.9475,2.9879,3.0073,3.0019,2.9729,2.946,2.9222,2.9117,2.9004,2.9065,2.9154,2.9044,2.9015,2.9033,2.9005,2.8988,2.8959,2.8911,2.8857,2.8863,2.8932,2.9052,2.9187,2.9262,2.9286,2.9267,2.9097,2.8875,2.8625,2.8606,2.86,2.8568,2.8403,2.8104,2.7821,2.7579,2.7467,2.7564,2.7763,2.8089,2.8255,2.8208,2.8256,2.8421,2.8604,2.892,2.9271,2.9803,3.0251,3.029,3.0339,3.0562,3.0796,3.1141,3.1494,3.1634,3.1783,3.1744,3.166,3.1566,3.1471,3.1356,3.1239,3.1249,3.137,3.1456,3.1677,3.195,3.2367,3.2632,3.2884,3.3042,3.3238,3.3338,3.3419,3.343,3.3418,3.3408,3.3422,3.34,3.3321,3.3103,3.3049,3.323,3.3411,3.3589,3.3882,3.4153,3.4269,3.4057,3.4076,2.5308,2.53,2.5247,2.5223,2.5242,2.5242,2.5217,2.5213,2.5207,2.5207,2.5207,2.5168,2.5168,2.5207,2.5207,2.5246,2.5379,2.6042,2.6651,2.7125,2.7771,2.8383,2.886,2.9242,2.9318,2.9735,2.9977,2.9909,2.9694,2.9397,2.9195,2.9174,2.9141,2.9092,2.9163,2.9147,2.9104,2.9138,2.9061,2.8999,2.894,2.8929,2.8911,2.8899,2.8962,2.9139,2.9513,2.966,2.9881,2.9847,2.9722,2.9065,2.8776,2.86,2.86,2.8574,2.8409,2.8138,2.7867,2.7797,2.7827,2.8015,2.8687,2.9182,2.9383,2.9344,2.9093,2.9208,2.9276,2.9542,2.9767,3.0197,3.0579,3.0736,3.0815,3.0988,3.1198,3.1453,3.1649,3.1722,3.18,3.1791,3.1707,3.1625,3.154,3.1509,3.1395,3.1447,3.1562,3.1768,3.1977,3.2205,3.2608,3.2931,3.3129,3.3268,3.3386,3.3462,3.3484,3.3466,3.3444,3.3444,3.3444,3.3415,3.3393,3.3357,3.3357,3.34,3.3782,3.4101,3.4421,3.4753,3.4861,3.5066,3.5207,2.5313,2.5305,2.5308,2.5296,2.5308,2.5308,2.5249,2.5203,2.5207,2.5207,2.5207,2.5207,2.5207,2.5207,2.5207,2.5284,2.5644,2.646,2.709,2.787,2.8685,2.9089,2.9417,2.9742,2.9685,2.9646,2.9802,2.9877,2.9843,2.9504,2.9326,2.9413,2.9343,2.923,2.9368,2.9362,2.9267,2.9233,2.9141,2.905,2.901,2.8992,2.8981,2.8979,2.9055,2.9456,2.992,3.0216,3.0534,3.0618,3.0346,2.9699,2.9169,2.8938,2.8708,2.8689,2.8574,2.8306,2.8129,2.8375,2.8398,2.869,2.9645,3.0202,3.0374,3.037,3.0117,3.0053,3.0094,3.0126,3.0342,3.051,3.085,3.1095,3.12,3.1298,3.15,3.1688,3.1754,3.1809,3.18,3.18,3.1763,3.1681,3.1643,3.1614,3.1645,3.1731,3.1878,3.2162,3.2409,3.2584,3.2836,3.3121,3.3341,3.3426,3.3506,3.352,3.352,3.3502,3.3481,3.3481,3.3459,3.3408,3.3393,3.3386,3.34,3.3415,3.3894,3.4469,3.5016,3.5396,3.5938,3.6139,3.6424,2.5384,2.5384,2.5386,2.5341,2.5315,2.5308,2.5271,2.52,2.5207,2.5207,2.5207,2.5207,2.5207,2.5207,2.5207,2.5379,2.5912,2.6765,2.7794,2.8704,2.9223,2.9647,2.9937,3.0013,3.0055,3.002,2.9946,2.9927,2.9861,2.9551,2.9392,2.9455,2.9225,2.924,2.9452,2.9446,2.9412,2.937,2.9267,2.9163,2.9055,2.905,2.9071,2.9024,2.895,2.9481,2.988,2.9946,3.0367,3.0701,3.0857,3.0354,2.9858,2.9465,2.9198,2.8798,2.8689,2.8456,2.842,2.8734,2.8834,2.9575,3.0416,3.0991,3.1197,3.1401,3.1207,3.1123,3.1081,3.0874,3.0968,3.0938,3.1151,3.1249,3.1337,3.1435,3.1587,3.1718,3.1819,3.1827,3.18,3.18,3.1791,3.1736,3.1709,3.1701,3.1777,3.1896,3.2188,3.2518,3.2844,3.2965,3.3091,3.3215,3.3393,3.3477,3.3556,3.3563,3.3577,3.357,3.3541,3.3509,3.3481,3.3415,3.3386,3.3396,3.3393,3.3376,3.4024,3.4638,3.5454,3.6077,3.6701,3.7037,3.714]}]]